GFSSGP_925_spd_000.txt.gz
Wind_Speed
9 6 1 2 3 5 1 3 3 3 2 1 2 5 9 8 3 5 8 12 14 15 17 18 20 18 18 17 20 19 19 20 22 22 23 22 18 15 13 10 10 9 7 7 7 8 7 6 5
7 3 3 2 4 4 4 4 6 3 5 9 9 8 6 6 4 9 11 15 16 16 18 21 19 17 17 19 21 21 22 24 23 21 21 18 16 14 12 10 8 7 6 5 6 5 4 4 4
5 3 3 3 4 1 1 3 8 10 8 4 4 5 4 3 7 11 13 18 17 18 20 20 18 19 19 19 21 22 25 26 19 17 17 17 15 13 10 8 7 6 5 4 3 3 3 4 4
3 5 3 4 4 1 3 7 13 10 4 7 9 7 5 11 6 11 24 19 20 20 20 20 20 20 19 18 19 21 23 23 15 15 14 14 12 10 7 6 5 3 2 1 2 3 4 5 6
5 2 3 3 4 2 3 7 8 5 5 7 3 5 7 3 13 26 23 21 22 20 19 20 20 19 18 18 18 19 19 18 17 14 13 13 11 8 6 5 3 1 1 2 3 5 5 6 6
3 2 5 2 2 3 4 6 3 4 8 8 9 7 3 17 25 24 23 23 22 20 19 18 18 17 18 18 20 20 19 18 16 13 12 11 9 7 5 3 1 2 2 3 5 6 7 7 7
4 3 3 3 4 3 3 5 6 3 8 7 10 6 6 13 22 24 24 23 20 19 18 17 18 17 19 20 20 19 18 16 15 13 11 10 7 5 4 3 3 3 3 5 6 7 7 7 6
2 3 3 2 5 3 5 3 6 5 2 9 10 7 9 16 24 25 23 22 19 18 17 19 18 18 19 17 16 16 16 15 15 13 11 8 5 4 4 4 5 5 6 7 7 7 6 6 6
3 3 3 7 8 5 6 4 4 5 10 3 5 6 14 26 25 23 22 20 19 18 17 18 19 18 18 16 14 13 14 14 13 11 8 6 6 5 6 6 8 7 6 7 6 6 6 7 6
3 2 7 7 6 8 11 8 9 5 9 2 6 15 27 27 24 21 19 18 20 20 19 20 19 18 18 16 15 15 14 14 14 12 10 8 8 7 8 9 7 8 5 4 3 4 5 6 7
5 6 5 5 7 15 11 8 5 10 6 6 14 19 22 24 21 20 20 23 26 25 21 21 22 20 19 18 17 16 15 14 13 12 12 10 8 7 5 4 4 1 4 3 3 5 4 5 7
3 8 8 7 8 12 14 9 6 11 6 7 14 20 20 18 18 20 20 20 22 25 26 24 22 21 21 20 18 16 16 17 16 15 14 13 10 7 4 3 3 4 6 4 4 7 6 7 11
6 4 9 9 11 11 13 7 5 7 4 14 17 18 18 15 19 21 23 22 25 25 27 25 24 23 22 21 18 17 17 17 15 15 16 15 13 8 5 4 5 6 6 6 8 8 8 10 12
3 3 9 7 8 5 9 5 8 4 13 14 17 17 16 16 20 20 19 18 23 26 27 25 25 24 23 23 21 18 18 17 16 15 14 15 13 12 9 8 8 8 8 9 10 10 11 11 12
5 6 9 4 4 5 11 2 7 10 16 16 15 14 14 14 19 20 22 23 28 29 29 28 27 23 23 23 17 17 17 17 16 16 15 15 14 12 11 10 10 8 8 9 10 10 11 10 8
3 5 6 4 7 8 6 6 3 14 17 17 15 14 14 14 19 22 22 26 28 28 31 29 26 25 23 23 20 19 18 18 21 20 18 15 14 13 12 12 11 9 8 9 9 8 8 8 10
3 7 4 3 6 7 3 4 8 13 14 15 15 15 14 13 15 22 25 28 28 31 30 31 28 27 25 21 20 19 16 14 14 15 15 14 14 12 12 13 12 9 9 9 7 6 7 10 11
6 6 3 7 9 8 6 4 12 14 13 16 16 14 15 15 16 22 26 30 33 33 32 31 30 28 23 21 20 19 17 17 16 15 13 12 13 13 12 11 8 8 7 5 5 6 8 10 11
8 7 17 1 3 3 5 5 15 16 13 14 14 14 15 16 19 24 26 28 32 33 33 31 31 31 27 26 24 21 20 19 18 17 15 14 11 10 10 7 6 5 5 6 6 7 7 8 7
10 7 10 2 4 4 2 3 10 16 18 17 15 15 14 14 9 15 22 24 28 34 35 33 32 29 29 28 25 23 22 18 17 15 14 13 12 12 8 6 6 6 6 6 7 7 6 4 4
5 10 6 15 5 3 6 3 7 11 8 11 12 12 13 15 14 11 18 24 27 30 35 35 35 33 32 28 26 21 15 14 13 16 13 12 11 10 7 6 7 5 6 6 5 6 5 4 3
7 8 8 9 9 7 6 5 7 11 17 14 17 15 16 16 14 14 17 21 25 33 37 36 34 35 35 30 28 26 22 19 19 15 15 14 13 11 8 7 6 7 7 6 7 4 4 5 3
9 8 11 8 8 5 1 2 6 14 12 21 21 19 19 19 17 17 18 27 31 33 36 36 35 35 36 33 30 29 25 21 16 15 15 16 16 13 11 11 9 9 9 8 5 5 5 6 4
9 7 6 4 4 2 9 9 5 7 24 25 19 20 20 18 18 16 25 28 27 31 35 36 37 36 35 32 29 29 27 23 19 17 15 16 18 15 15 15 13 9 11 8 6 6 6 6 6
6 6 2 2 2 6 3 4 12 11 16 24 23 24 22 19 17 17 17 22 25 27 35 38 39 38 35 33 31 31 29 26 21 19 20 20 19 17 15 15 15 12 9 8 6 5 6 6 7
6 9 6 6 5 5 4 8 10 20 13 9 8 19 15 18 17 20 19 25 26 30 35 35 37 40 38 36 34 33 31 28 24 21 22 23 20 17 14 14 12 9 8 9 6 6 8 10 7
4 4 7 7 2 2 5 8 9 6 7 8 14 13 18 20 20 20 19 28 29 31 36 40 39 39 38 38 36 34 31 30 27 23 23 23 19 16 15 14 12 13 12 11 10 7 7 6 9
10 9 3 3 5 5 5 4 6 5 11 9 8 16 18 18 17 18 18 27 32 36 38 39 40 41 41 40 40 37 34 32 28 24 25 24 21 19 18 15 14 14 14 13 12 11 10 11 12
3 4 5 6 5 7 4 6 9 10 12 12 14 19 18 17 17 17 19 32 36 37 34 35 35 36 38 44 44 40 37 34 29 27 26 25 22 20 19 18 17 17 16 14 14 13 12 14 15
11 11 9 7 6 3 4 7 5 12 6 9 12 15 8 12 16 17 18 26 28 31 32 35 35 33 40 42 41 43 39 38 34 31 28 25 23 22 20 20 19 19 18 16 15 12 12 14 14

GFSSGP_925_spd_003.txt.gz
Wind_Speed
10 11 8 6 1 3 5 5 5 7 4 3 5 8 8 7 3 7 9 10 14 13 13 16 21 17 16 18 18 18 20 23 21 20 19 17 14 10 8 8 8 8 8 9 10 9 9 9 9
8 5 4 1 4 6 4 3 10 5 9 13 10 7 6 5 6 11 13 14 14 14 14 15 17 18 17 18 17 17 18 19 18 18 18 14 10 7 5 5 6 6 7 8 7 7 8 9 9
5 1 2 2 3 6 4 6 10 14 8 4 5 9 4 6 10 15 13 15 14 13 15 13 15 15 15 16 17 17 18 17 15 15 15 11 8 7 5 4 4 5 6 6 5 5 6 7 9
4 1 1 4 8 5 4 10 16 12 7 6 12 10 6 7 10 10 19 17 15 13 13 13 13 13 14 15 16 18 18 17 13 13 12 11 9 7 4 3 3 4 4 4 4 6 7 8 8
3 1 3 4 6 5 10 12 9 5 7 9 5 7 8 3 10 20 18 16 17 15 13 12 13 13 13 14 16 18 18 13 12 13 12 11 8 5 3 3 3 3 3 3 5 6 7 8 8
2 1 2 4 5 7 8 13 8 4 7 11 14 13 7 10 18 18 18 17 16 16 14 13 13 14 14 15 16 18 17 13 13 11 10 9 6 4 3 2 3 4 4 5 6 7 8 8 8
2 2 2 5 7 6 6 10 6 7 8 7 15 9 7 15 19 18 18 17 15 14 13 12 13 14 15 16 16 16 17 15 11 10 9 8 7 4 2 0 3 4 4 6 7 7 7 8 7
1 1 4 3 8 5 11 10 8 9 5 13 11 7 9 21 21 19 17 17 14 14 13 13 13 14 14 13 15 14 14 13 12 11 9 7 5 3 2 3 5 5 5 6 7 6 6 6 6
3 2 5 7 9 8 13 9 6 6 12 6 8 7 13 27 24 21 19 17 15 14 14 14 14 13 13 13 12 12 11 12 12 9 8 5 3 2 3 4 7 7 5 6 6 4 6 6 6
4 3 5 6 9 10 15 12 13 5 12 7 5 10 26 27 26 24 22 20 18 17 16 15 14 14 13 11 11 11 11 12 12 10 8 5 4 4 6 7 8 6 4 4 4 6 6 7 7
4 8 4 4 9 15 16 12 11 8 13 11 15 19 25 28 26 24 24 23 22 19 16 16 15 14 13 11 11 11 12 12 12 11 9 7 6 5 4 3 4 3 3 3 4 6 5 5 7
8 8 8 6 10 16 18 15 11 13 6 11 15 23 26 22 24 24 23 22 21 19 17 17 17 15 15 13 12 12 12 12 11 11 11 10 7 6 4 2 1 2 3 3 4 5 7 8 10
9 9 9 10 15 15 17 17 11 13 4 9 19 23 24 21 24 23 23 22 22 22 20 19 18 17 16 16 14 13 14 13 13 12 12 11 10 9 7 5 3 3 3 2 4 7 8 10 11
5 6 5 11 13 13 15 9 9 8 8 14 21 24 22 21 24 22 21 21 22 21 21 20 20 20 17 18 17 15 14 14 14 13 13 15 14 13 10 8 6 4 5 4 6 6 7 8 9
6 4 7 9 16 8 16 7 14 9 13 15 19 20 20 20 24 23 23 22 21 22 22 23 22 20 20 19 19 17 15 14 14 15 14 14 13 12 11 10 7 7 7 7 7 6 6 6 6
4 5 6 9 15 10 15 13 13 14 17 17 20 19 18 19 23 24 23 23 22 20 22 22 21 20 20 19 19 17 16 15 15 16 14 16 14 13 12 11 8 9 8 7 6 6 6 5 5
4 8 9 10 12 9 14 6 10 17 17 17 19 19 18 17 21 24 24 24 23 24 22 23 22 21 20 20 19 20 16 18 16 16 19 15 15 12 11 10 10 10 8 9 6 4 5 6 7
12 9 8 10 12 9 13 8 8 14 17 18 18 17 18 19 21 24 24 23 23 22 22 22 22 22 22 20 19 18 19 17 15 13 13 13 13 13 12 11 9 9 8 4 5 4 5 5 6
14 14 14 9 11 12 13 12 6 13 15 17 17 17 18 20 22 23 24 24 22 23 22 23 23 24 22 19 18 17 18 14 13 15 15 15 13 12 10 9 8 6 5 4 4 4 4 5 4
13 17 16 7 11 12 9 14 9 15 19 19 18 18 19 18 18 23 25 25 26 25 25 24 25 23 27 22 17 15 14 14 14 12 15 15 13 12 11 8 6 6 5 4 5 5 4 4 2
12 17 15 15 9 3 6 13 10 11 17 17 18 18 19 19 20 20 25 27 26 26 26 26 27 27 25 21 16 15 13 12 10 12 12 13 15 12 10 8 6 5 5 4 3 2 4 4 1
19 15 15 15 12 13 11 12 11 16 17 20 20 21 20 20 18 18 23 26 28 28 26 26 27 30 25 23 20 19 18 17 15 13 12 11 13 12 11 8 6 6 6 4 2 2 2 2 2
11 9 16 15 16 8 9 6 11 8 16 23 25 24 24 22 21 21 22 28 28 27 26 26 28 30 27 25 24 21 20 18 14 10 10 11 13 14 13 10 7 7 7 7 5 3 3 3 3
10 10 5 5 9 10 15 13 10 9 15 24 23 24 25 23 22 21 27 26 27 28 27 26 29 35 30 29 26 25 22 20 16 12 11 11 13 16 17 14 11 9 9 10 6 6 5 4 5
14 11 6 8 7 9 8 11 17 11 19 23 20 26 26 24 22 21 22 25 28 28 28 28 30 32 28 28 27 27 25 23 20 17 15 13 14 16 18 16 15 12 12 10 8 7 6 6 6
21 21 12 15 10 12 5 11 8 16 18 15 15 17 21 24 23 24 23 27 28 30 31 30 29 30 28 28 29 29 28 25 23 22 18 16 18 18 18 16 16 16 14 12 12 6 5 8 9
11 14 18 18 1 6 6 6 10 13 14 11 17 15 21 25 25 26 24 29 29 30 33 33 32 33 30 28 28 27 26 26 24 22 25 19 22 18 19 16 17 17 15 14 12 9 7 7 9
13 13 11 7 19 18 9 6 8 6 12 12 12 19 22 23 25 24 23 30 32 34 34 32 35 34 33 26 27 27 27 27 26 25 25 20 19 20 19 19 20 18 16 14 12 11 11 9 10
11 11 4 6 8 15 15 14 8 14 15 13 15 19 20 21 22 23 22 31 35 35 32 34 32 32 28 29 30 29 29 27 24 29 29 24 23 24 21 21 21 18 17 15 14 14 13 12 12
21 21 20 13 12 6 9 13 4 15 16 13 14 11 13 19 20 21 22 28 29 30 31 32 31 31 34 34 30 31 28 33 32 31 23 22 22 22 22 22 21 19 15 14 15 14 15 14 13

GFSSGP_925_spd_006.txt.gz
Wind_Speed
14 13 8 10 6 4 12 7 9 8 8 11 7 5 9 9 3 7 17 16 19 16 17 17 16 14 17 16 16 17 20 18 17 17 14 13 12 12 12 11 10 11 11 11 10 11 12 12 11
13 11 7 6 3 5 8 7 10 11 13 14 12 7 5 6 8 19 19 19 18 19 20 18 14 13 15 15 15 16 17 15 15 13 13 11 8 8 9 9 9 8 9 8 8 10 10 10 9
12 10 6 4 4 9 11 8 11 12 10 4 5 9 5 11 16 17 24 22 19 18 18 14 14 13 13 13 13 15 15 14 14 13 11 8 6 6 7 7 8 8 7 7 8 8 8 8 9
9 7 5 4 12 7 11 10 13 11 8 3 9 12 11 17 12 17 22 20 19 18 15 13 13 12 13 13 14 16 14 13 13 13 10 8 6 6 5 6 7 6 5 5 6 6 7 7 7
8 4 3 9 12 10 10 12 9 6 7 8 11 12 13 8 13 22 20 19 18 18 15 13 14 13 14 15 17 17 15 13 13 12 11 9 7 4 5 5 4 4 4 4 5 6 7 7 7
7 4 4 10 12 9 8 10 6 5 8 8 14 16 11 14 19 20 19 17 18 18 16 14 13 14 15 16 18 19 14 12 11 11 10 7 5 2 3 2 4 3 3 5 6 7 7 7 6
7 5 5 9 10 9 9 9 4 8 10 9 17 14 12 16 19 19 19 18 18 17 15 14 13 12 14 15 17 17 13 10 10 9 8 6 4 2 1 1 2 3 4 5 5 5 6 7 6
5 5 4 2 6 12 11 10 7 8 8 14 9 6 14 21 22 21 20 18 17 17 16 14 13 14 14 13 14 13 12 11 9 8 7 6 4 2 2 2 4 5 3 4 4 4 4 5 6
4 6 4 6 4 11 14 10 7 7 12 7 9 7 22 26 24 23 21 18 17 16 15 15 15 14 15 14 12 11 11 10 10 8 7 4 3 2 2 4 5 5 2 3 4 3 4 4 6
8 7 5 4 1 13 15 11 13 9 12 9 10 9 27 26 25 24 23 21 20 18 16 16 15 15 14 13 12 11 11 11 10 9 6 4 3 3 3 4 5 3 1 3 3 5 5 6 5
7 11 6 2 1 11 18 12 12 10 12 12 15 17 25 27 25 23 22 21 21 19 18 16 16 14 14 13 12 12 12 11 12 10 8 6 5 3 3 2 1 0 3 1 2 3 3 5 6
10 10 10 7 7 10 17 16 11 10 4 13 14 20 25 23 23 23 22 21 20 20 18 18 17 15 15 12 13 12 12 12 11 10 9 9 7 5 3 3 2 1 2 2 3 4 4 5 7
12 12 9 10 8 11 14 15 10 12 9 12 16 21 24 21 24 24 23 21 20 20 19 19 18 16 16 14 13 12 12 12 11 10 10 10 9 7 5 4 4 4 4 3 5 6 6 7 7
4 7 9 10 9 11 13 11 11 13 13 12 18 22 22 22 25 23 23 22 21 20 20 19 19 18 17 16 14 14 12 12 12 12 11 12 10 8 7 6 6 6 6 4 4 6 7 8 8
8 11 5 9 12 9 13 11 14 12 13 13 18 19 21 21 25 25 24 23 22 21 21 21 19 19 19 17 16 15 13 13 13 13 12 12 10 9 8 8 7 7 5 5 6 6 6 8 9
14 13 12 10 15 9 15 12 16 15 16 15 17 18 20 21 24 25 25 25 24 22 22 22 21 20 20 18 17 16 15 15 14 13 12 11 10 9 10 8 9 8 8 9 8 7 8 9 9
15 14 13 11 14 7 16 6 15 15 16 15 15 18 19 19 22 25 25 25 24 23 22 23 23 22 21 20 18 17 15 15 11 12 13 13 12 11 10 10 9 9 10 8 8 7 7 9 9
18 17 11 13 15 12 17 9 6 13 16 16 17 17 19 20 22 26 25 24 24 23 22 22 23 22 21 19 18 17 15 14 14 13 12 11 10 10 9 9 9 8 8 7 6 6 8 8 8
18 15 13 15 14 17 15 13 11 10 14 16 17 18 19 20 21 25 26 25 24 23 23 22 23 22 20 18 18 18 17 15 14 14 11 10 10 9 8 8 8 7 7 5 5 8 7 8 4
21 18 17 14 9 15 12 14 12 13 16 17 19 19 19 19 19 23 26 27 27 26 24 23 23 24 22 20 19 16 14 15 14 14 11 12 12 11 10 9 7 4 5 5 5 5 7 4 3
23 21 18 16 11 15 11 14 14 15 15 16 17 20 21 20 21 21 26 28 28 27 27 25 25 24 23 23 18 14 13 12 10 13 12 10 10 10 8 6 5 4 5 4 3 3 4 6 1
24 23 18 14 12 13 16 12 14 15 15 17 20 21 21 22 21 20 24 28 29 29 27 26 25 24 24 22 22 20 16 15 14 12 10 9 9 9 8 7 6 4 4 4 3 3 3 4 3
24 22 19 18 15 18 15 11 13 6 14 19 23 24 24 23 22 22 22 29 30 28 27 27 26 24 24 23 23 20 20 16 14 12 9 9 9 11 11 11 8 5 6 6 3 3 3 3 5
20 18 13 17 15 18 23 15 15 12 14 16 17 22 24 24 23 22 27 29 30 30 29 27 26 26 24 25 24 23 19 18 15 14 12 13 14 13 14 13 10 8 7 7 5 5 5 4 5
22 18 11 15 15 15 19 19 16 11 12 15 16 17 22 23 22 22 23 25 30 32 31 29 27 27 26 26 26 24 24 22 20 16 16 13 13 13 14 14 11 9 8 7 6 6 5 4 5
28 26 16 24 15 14 21 17 18 18 18 21 14 14 19 24 24 25 25 29 32 33 33 31 29 28 27 27 27 26 25 24 22 20 18 16 14 13 11 13 11 10 10 9 9 8 8 7 7
29 26 26 25 20 16 17 14 22 16 15 16 14 13 17 22 26 26 25 32 32 33 33 33 30 29 28 27 26 27 25 25 22 19 18 16 14 12 12 14 12 10 11 11 11 11 9 8 8
29 22 24 21 26 24 20 19 12 18 18 17 14 15 17 20 22 25 25 32 35 35 35 34 33 31 27 28 27 27 26 24 23 22 22 22 17 13 12 14 13 13 11 12 13 12 11 11 10
21 24 21 23 23 20 18 19 17 16 15 16 14 14 16 18 21 23 25 33 34 34 34 34 31 30 30 29 30 28 26 25 25 26 24 18 14 12 13 12 13 13 12 14 16 14 12 11 11
26 26 26 18 27 21 23 20 16 14 18 22 21 16 11 13 18 21 22 27 33 35 34 34 33 31 31 33 30 28 26 26 28 26 26 25 20 18 18 10 11 13 12 15 18 17 14 13 14

GFSSGP_925_spd_009.txt.gz
Wind_Speed
20 20 20 9 2 4 2 6 5 6 11 12 4 9 11 12 6 11 21 21 21 22 22 19 19 19 19 20 20 19 18 18 17 16 16 15 16 14 14 13 12 12 12 12 12 12 12 12 12
20 20 23 7 0 3 4 10 14 14 14 11 10 13 10 9 16 19 18 20 21 24 22 17 18 18 18 17 16 17 16 15 15 14 13 13 12 12 11 11 10 11 10 10 10 10 11 11 11
16 17 8 6 9 7 10 11 16 14 10 10 7 9 11 17 22 23 27 24 26 25 21 16 15 16 15 15 16 17 15 14 13 12 11 9 10 10 10 9 9 9 9 8 8 9 9 9 9
14 9 9 6 10 14 15 15 12 10 9 9 19 15 21 23 26 28 27 26 26 22 18 16 15 14 14 15 16 15 14 12 11 10 8 8 8 8 8 8 7 7 7 7 8 8 8 8 7
18 11 13 9 12 10 13 10 9 10 11 10 21 22 19 16 30 26 24 22 23 18 17 16 14 13 14 15 15 14 12 11 10 9 7 7 7 6 6 6 6 6 6 7 6 7 7 7 6
8 5 7 13 12 9 9 6 5 13 12 8 20 20 15 20 26 24 23 18 20 19 19 14 14 13 13 15 14 14 11 10 10 8 8 6 4 4 5 5 5 5 4 5 6 6 7 7 6
12 14 10 16 10 10 10 7 8 10 11 14 19 18 16 21 23 22 24 18 16 18 16 15 14 13 13 15 15 12 10 9 9 8 7 5 4 4 3 2 3 3 3 5 5 6 5 6 6
11 8 7 14 10 13 11 6 9 11 12 18 16 13 19 22 24 22 21 18 14 19 18 18 16 14 14 14 14 11 8 8 7 7 7 6 4 2 0 0 1 3 1 2 2 3 4 4 5
14 6 3 7 18 15 12 13 7 12 14 11 4 19 23 27 26 26 26 20 15 13 17 15 16 16 15 15 13 11 9 8 7 6 6 3 7 6 1 4 5 5 2 1 3 4 4 1 1
7 7 8 9 21 17 10 13 13 12 14 13 8 24 28 26 25 26 20 25 22 18 20 19 20 16 15 15 12 11 10 9 9 8 7 5 3 3 3 4 3 1 1 2 3 5 2 4 8
13 14 20 9 8 12 13 11 12 12 13 16 15 21 24 25 24 23 23 21 21 19 19 18 19 17 15 18 12 13 12 13 11 9 7 6 2 6 8 4 7 5 2 6 1 5 3 8 7
13 8 7 2 10 4 13 14 10 8 14 16 16 21 23 21 19 22 23 21 22 20 18 18 20 16 15 13 14 13 13 12 12 12 10 8 6 8 6 4 5 4 7 4 2 3 6 5 7
11 11 6 5 9 9 14 14 11 9 9 15 19 21 23 21 22 22 21 21 21 21 20 20 18 17 15 12 13 11 11 11 11 8 10 10 10 4 4 4 7 8 6 7 7 5 6 7 10
12 12 10 6 10 10 10 14 11 13 11 16 19 21 22 21 23 22 22 21 21 21 21 20 19 17 15 14 9 9 10 10 11 10 9 9 9 2 6 8 8 7 5 5 6 7 7 8 5
13 12 14 10 8 11 12 14 14 18 14 17 18 19 20 21 25 24 24 23 22 21 20 20 19 18 18 16 14 13 13 13 12 12 8 9 9 8 9 9 6 9 5 6 9 6 8 8 9
18 18 16 14 13 12 16 17 17 16 18 18 18 18 19 21 24 25 25 24 24 23 22 21 21 21 19 18 17 17 15 14 12 11 11 11 10 9 8 11 10 5 5 7 8 8 11 9 10
18 17 21 13 15 14 16 9 17 17 18 17 17 18 19 19 21 25 26 25 25 24 23 23 21 20 21 20 18 17 15 14 9 9 10 10 11 11 10 12 9 6 9 5 7 7 12 7 9
19 21 20 20 17 13 16 6 18 16 17 17 17 18 19 20 22 26 26 26 25 25 24 24 23 21 18 18 18 16 16 12 14 13 14 11 8 11 11 11 6 8 9 9 6 3 8 9 7
23 21 19 15 24 19 18 15 15 14 14 16 19 18 20 20 20 25 26 26 26 25 26 25 25 23 21 19 17 18 18 17 17 15 9 7 9 11 9 10 10 7 12 2 8 8 8 6 2
28 23 19 14 17 21 18 19 19 19 15 15 18 20 21 21 21 23 27 28 28 28 27 26 25 24 24 21 21 21 19 18 14 13 12 11 13 12 10 9 8 6 7 4 3 4 6 5 1
25 25 19 17 27 22 16 17 17 15 20 16 16 18 22 22 22 22 24 29 29 30 29 29 28 26 25 25 21 17 12 12 10 14 13 11 12 11 10 6 7 2 2 6 3 3 2 8 1
25 25 24 19 12 12 19 15 21 19 20 19 19 19 20 23 22 22 24 28 31 31 30 27 28 27 26 25 22 21 18 17 17 14 16 14 13 11 10 8 6 4 5 1 3 3 4 3 4
26 24 24 23 17 23 24 17 11 21 21 21 20 21 21 22 23 24 25 31 31 31 31 31 28 28 27 27 26 21 21 19 15 14 8 10 9 10 10 8 6 4 4 5 3 3 4 3 5
24 23 24 23 18 18 22 17 19 16 18 17 21 22 21 21 23 23 28 32 32 32 32 31 31 30 29 27 26 23 21 21 15 15 13 12 14 11 11 11 9 6 5 5 5 4 5 6 3
29 24 16 19 18 19 21 19 20 16 16 18 17 20 23 23 22 23 25 25 31 32 32 30 31 30 30 29 28 27 22 19 17 12 17 12 13 14 16 13 10 9 8 6 5 5 5 5 5
32 28 20 24 18 18 23 23 22 18 12 12 14 12 15 23 22 24 26 26 30 33 32 31 31 30 30 29 28 26 25 24 22 21 16 17 13 12 16 16 14 12 10 9 7 8 7 7 6
30 29 28 27 24 20 21 26 23 10 17 18 16 18 12 19 22 26 26 30 30 33 35 35 31 32 31 31 28 28 27 27 25 23 24 17 17 15 16 16 16 14 12 10 9 9 10 7 8
34 24 27 22 28 26 24 23 18 21 19 18 14 17 14 15 20 23 24 28 32 35 35 35 33 32 31 30 29 29 29 28 25 22 21 23 20 21 21 20 19 17 18 16 13 12 11 11 11
20 27 23 26 24 21 20 19 20 15 14 19 21 21 17 15 18 21 23 31 35 35 35 36 35 33 32 32 30 29 30 29 29 27 26 24 22 22 19 23 23 22 20 20 18 14 11 10 11
29 28 32 19 29 21 22 19 13 16 19 16 15 14 16 14 18 19 22 26 32 34 36 37 36 37 35 32 31 31 30 31 31 30 28 28 27 25 26 27 28 26 26 22 18 17 16 14 14

GFSSGP_925_spd_012.txt.gz
Wind_Speed
20 20 17 4 4 3 4 6 7 5 12 11 11 12 14 7 6 12 22 23 25 22 20 19 22 21 21 22 22 22 21 20 19 20 19 17 16 16 15 14 12 12 11 11 13 13 12 12 10
20 20 10 8 3 2 6 6 6 15 14 14 18 15 14 19 18 20 20 25 25 24 21 20 22 21 21 20 20 19 18 17 17 17 16 15 15 14 13 11 10 10 9 10 11 11 11 10 9
21 24 4 4 6 3 11 12 15 18 12 14 7 1 7 18 21 23 27 28 28 27 22 21 21 20 19 18 18 17 16 15 14 14 12 13 13 12 11 10 8 7 8 9 10 10 9 8 7
10 4 8 10 15 10 15 14 16 19 19 17 19 18 21 26 30 31 32 30 28 24 21 21 20 19 17 17 18 15 14 14 13 12 11 11 11 10 9 8 6 6 7 8 9 9 8 7 6
7 4 7 6 19 9 14 18 13 13 21 20 25 24 20 27 32 33 31 27 24 21 20 19 18 17 17 17 17 14 13 12 12 10 10 10 8 7 7 6 6 6 7 7 7 7 7 6 6
5 3 11 8 8 11 13 13 13 22 16 25 23 22 16 31 35 30 30 29 23 22 20 18 17 17 17 17 16 14 13 12 11 9 9 8 6 5 5 4 5 5 6 6 7 7 7 7 5
5 9 9 9 9 11 7 13 10 19 26 20 25 20 20 23 30 29 26 18 24 23 20 17 16 16 17 17 16 13 12 11 10 9 8 6 5 5 4 3 4 5 5 5 5 6 6 6 6
9 12 11 2 6 13 6 16 9 13 22 23 17 16 16 23 33 25 23 21 19 26 20 20 18 17 17 16 15 12 11 10 9 8 7 6 5 5 4 2 2 5 2 4 5 4 4 5 7
18 7 5 7 9 13 10 12 13 18 18 20 3 23 28 31 29 24 24 21 15 20 23 21 20 18 19 17 14 11 9 9 8 7 6 7 5 7 4 2 5 4 2 3 4 4 5 5 5
5 6 7 19 6 10 14 15 11 12 13 13 23 24 31 32 32 20 22 18 22 20 22 23 22 22 21 16 15 10 9 7 6 6 7 4 6 10 3 1 6 8 6 2 2 5 7 9 9
12 9 18 20 17 14 8 17 12 17 12 15 26 24 23 30 30 28 24 24 23 21 16 23 19 22 19 22 16 15 13 14 9 12 11 4 3 2 8 4 8 6 2 6 6 3 2 7 8
10 18 20 7 16 15 14 17 12 15 14 20 23 23 23 22 23 27 29 27 30 28 24 23 23 22 12 19 14 21 21 18 18 16 13 10 4 5 8 0 8 2 10 1 1 4 5 8 8
16 21 15 6 9 10 8 16 15 9 20 20 22 24 23 20 21 28 24 26 27 27 25 26 23 21 16 18 15 15 18 13 16 17 14 9 10 2 1 2 3 9 7 6 7 5 6 6 10
17 12 13 12 8 12 17 17 16 13 18 21 23 24 23 21 22 23 25 23 28 25 26 28 27 22 16 15 11 4 13 7 7 5 16 10 8 4 3 6 7 6 3 1 4 7 7 9 10
22 19 9 11 10 9 11 17 12 19 16 20 20 22 22 22 25 21 21 22 23 23 25 32 26 24 22 14 13 6 11 9 12 10 8 7 6 4 6 7 6 6 4 5 4 6 7 14 14
22 20 16 18 17 10 13 11 12 21 16 19 21 20 20 21 24 24 23 22 22 24 23 24 22 25 23 18 13 12 11 11 12 9 11 9 9 9 6 8 9 4 2 1 5 4 6 10 9
21 18 21 21 13 17 14 16 5 15 17 19 19 20 20 18 20 25 26 23 25 22 24 22 21 26 28 24 18 17 18 14 14 13 10 10 14 9 8 7 8 4 4 7 3 4 5 10 9
19 21 19 18 18 18 19 12 13 19 12 18 20 20 19 20 20 27 27 27 24 26 26 26 22 19 27 25 20 21 18 16 14 10 12 14 12 9 8 10 9 6 7 4 4 1 6 6 5
22 20 22 15 10 17 22 13 10 29 24 20 19 18 19 20 20 26 27 28 26 28 27 29 27 24 21 22 20 16 13 17 16 17 17 15 9 7 9 11 8 7 4 3 1 2 5 9 1
27 26 24 14 21 20 19 26 31 31 28 21 21 20 20 20 20 20 28 28 29 27 31 30 30 25 24 20 19 17 19 19 20 19 17 15 12 9 10 9 9 12 5 6 4 1 5 9 3
27 26 23 20 20 22 17 18 23 28 21 19 21 21 20 21 21 21 22 28 29 31 32 32 31 28 26 21 20 22 21 18 15 19 14 15 12 9 10 6 7 3 2 1 5 3 1 8 0
26 26 27 25 15 12 16 12 4 18 21 21 21 21 22 22 21 20 21 27 29 30 32 32 32 30 28 30 24 24 21 14 17 17 20 19 18 15 14 10 10 8 4 8 3 3 2 4 7
26 26 26 25 12 18 20 12 12 26 20 25 22 22 22 23 22 21 23 30 31 30 33 34 34 33 31 31 29 27 19 19 18 16 15 21 15 13 17 12 11 8 6 7 7 4 3 2 5
25 25 25 22 19 17 22 15 21 17 22 20 22 22 21 22 23 23 30 32 32 32 34 35 34 34 33 32 36 25 26 25 21 21 20 17 19 19 15 16 14 12 9 10 8 7 5 5 2
28 23 15 17 17 16 19 21 13 23 23 20 4 21 22 19 21 22 22 23 33 34 35 36 35 35 34 31 33 35 24 28 24 12 17 18 20 20 22 17 18 15 14 11 10 11 8 7 4
26 26 16 21 17 19 22 20 16 23 21 15 24 39 24 25 22 23 24 23 32 36 34 34 37 36 35 35 31 31 31 23 24 21 17 19 19 21 27 27 24 18 17 17 18 15 17 14 10
26 25 27 26 23 17 18 23 22 17 23 20 20 16 18 24 23 23 23 26 31 35 36 36 36 37 36 35 32 32 32 30 25 24 26 18 23 16 26 29 24 22 19 16 16 16 16 9 12
29 18 23 20 25 25 21 21 13 19 19 17 11 13 13 13 21 21 20 23 30 34 36 35 35 38 36 35 35 33 33 33 31 28 28 29 22 23 26 27 26 23 23 24 21 17 18 18 15
18 22 23 20 21 17 17 17 15 17 16 20 21 21 15 11 15 19 21 27 32 33 35 36 37 35 36 36 35 34 34 33 35 29 32 29 30 26 24 29 28 27 26 25 25 23 22 23 22
29 28 27 17 21 19 20 16 16 9 20 17 14 15 13 17 13 16 18 20 29 32 34 36 36 35 37 37 36 37 36 34 34 35 30 33 29 29 35 30 30 29 30 29 29 27 22 22 24

GFSSGP_925_spd_015.txt.gz
Wind_Speed
18 19 12 1 0 2 3 3 2 6 6 5 8 12 10 11 4 9 22 27 25 22 25 25 25 24 24 24 25 24 24 23 22 21 20 18 17 17 16 15 15 14 13 12 10 10 10 9 8
22 18 8 1 2 2 1 5 5 12 13 16 17 18 14 9 11 17 21 28 26 25 26 25 24 25 24 24 24 23 21 21 21 21 18 17 15 15 15 14 13 11 11 9 8 8 8 8 7
18 16 3 4 1 4 5 5 14 15 14 11 3 6 7 11 15 22 29 32 29 24 26 25 24 24 23 23 22 20 19 18 17 17 16 14 14 13 13 12 10 10 9 7 7 7 6 7 6
6 1 4 5 8 7 4 9 16 13 15 13 15 11 9 18 18 24 33 32 32 27 28 24 24 23 22 22 20 19 18 16 15 13 13 12 12 12 11 10 9 8 7 6 6 6 6 6 6
5 1 4 6 12 5 19 23 9 16 18 23 23 20 20 23 32 33 34 33 32 27 27 24 23 22 22 21 19 18 16 15 13 12 11 10 10 10 9 9 8 6 5 5 5 6 8 8 7
3 2 5 9 6 15 15 24 21 25 23 21 24 22 14 33 31 31 29 30 28 28 27 24 22 22 22 21 17 16 15 14 13 11 10 9 8 8 8 7 6 5 5 4 6 7 8 8 9
5 2 10 11 1 16 20 22 16 23 24 16 21 26 18 23 32 31 33 30 25 26 26 23 22 21 21 20 18 16 15 14 12 10 9 6 6 5 4 4 5 5 6 6 6 6 7 7 7
5 3 9 7 8 9 11 17 23 22 19 22 27 17 19 28 36 30 29 29 32 28 24 23 23 23 22 20 17 15 14 13 12 10 8 6 5 2 2 2 3 7 5 7 7 6 5 7 7
3 4 3 11 11 4 7 24 13 23 24 22 8 23 28 38 34 29 30 25 30 27 24 22 23 23 22 21 17 15 14 13 11 10 9 6 3 1 3 3 5 7 5 8 6 6 6 8 10
6 5 12 14 7 6 14 21 17 19 20 9 26 21 37 34 31 24 18 22 22 29 30 25 23 23 22 21 19 15 13 12 11 10 8 5 2 2 3 1 2 1 1 6 1 5 4 8 13
7 6 11 9 15 15 13 14 13 22 14 23 28 27 26 29 28 25 22 20 22 31 30 30 26 25 25 21 18 14 14 12 12 11 7 5 2 1 10 3 3 1 3 2 7 4 2 5 7
5 11 11 14 11 5 12 12 16 15 19 24 29 29 25 22 19 28 27 26 29 27 30 33 30 26 27 25 20 18 17 18 16 14 13 13 6 8 2 3 2 2 1 5 4 4 3 1 6
13 14 17 17 12 15 11 15 17 14 27 26 24 23 25 23 25 30 33 32 30 30 36 32 32 26 23 27 20 20 20 21 21 18 16 13 9 4 5 4 2 0 1 1 2 1 3 7 6
16 15 16 10 22 15 14 4 12 22 28 28 25 20 22 23 26 28 32 31 31 33 38 34 32 31 23 25 19 18 20 24 22 22 20 12 10 7 6 3 3 2 1 4 2 5 4 8 10
15 14 16 12 4 11 21 17 6 21 25 26 24 19 14 16 31 27 32 28 38 36 38 36 33 32 27 23 19 12 10 10 8 16 17 16 15 7 6 4 2 2 5 2 3 3 5 6 12
13 9 6 10 10 7 9 8 12 17 24 23 23 21 17 13 16 27 26 35 37 38 37 39 35 33 30 25 15 15 11 8 7 2 11 15 12 9 7 4 4 5 3 4 2 2 3 7 9
7 9 11 13 9 7 9 7 20 15 22 22 23 22 19 15 12 23 26 33 38 37 40 39 36 37 32 27 19 16 15 11 8 9 11 16 13 8 6 6 3 4 3 3 4 2 0 5 5
9 7 11 14 10 16 12 7 6 10 19 22 22 21 20 18 17 24 29 29 39 36 40 41 39 38 33 30 26 20 20 16 13 13 13 15 11 9 8 5 4 4 5 2 2 3 3 2 7
14 14 16 19 10 9 8 13 12 11 8 11 21 21 21 20 15 26 31 30 32 36 39 39 31 34 34 34 29 23 24 20 19 19 13 16 16 15 13 11 9 7 5 7 6 2 3 3 4
20 19 19 15 10 10 13 14 15 14 15 10 20 21 22 21 19 22 29 32 33 37 40 39 35 26 37 36 32 27 23 15 22 19 18 18 19 18 14 11 7 8 10 8 7 2 3 2 4
21 20 17 11 8 7 11 3 2 8 4 6 11 22 23 24 23 20 25 30 32 36 40 42 40 33 33 32 30 25 22 20 14 22 20 20 24 18 12 11 8 6 8 13 8 7 2 2 3
18 22 22 20 14 7 16 5 3 5 2 11 15 19 23 24 23 21 24 29 35 34 42 41 42 42 33 30 32 30 23 23 19 19 26 27 23 18 16 14 12 12 8 13 9 10 7 3 2
20 14 21 22 15 7 20 1 13 15 20 27 23 25 23 23 23 24 25 37 38 38 42 45 45 42 40 34 31 28 24 29 23 23 24 29 25 20 17 16 15 16 11 11 14 13 12 12 8
15 14 16 18 13 11 16 16 6 18 24 25 22 21 22 22 23 24 34 37 35 36 39 40 42 43 41 40 33 31 29 28 29 24 17 26 28 20 21 20 19 18 13 14 12 9 10 9 5
18 8 12 10 12 8 11 14 11 15 21 28 24 12 10 6 21 21 24 23 34 34 38 38 41 39 40 43 42 34 32 31 30 29 21 25 30 26 23 26 24 19 16 16 17 16 12 11 8
15 15 12 12 12 9 8 14 9 15 19 23 19 18 23 33 22 25 25 27 36 34 37 38 41 39 40 40 41 41 33 34 35 32 17 31 31 31 28 28 26 20 18 18 16 15 14 14 15
11 18 15 5 8 6 7 9 11 17 13 18 21 27 29 23 21 23 23 31 35 37 39 42 39 39 41 39 41 41 41 37 37 34 30 24 28 28 31 32 30 25 21 23 20 20 17 18 16
19 7 12 14 14 17 16 10 10 6 17 16 16 20 20 15 19 19 22 26 37 42 40 43 42 44 42 41 38 40 42 43 40 33 33 30 26 25 30 37 34 30 25 24 24 23 20 21 21
13 16 11 7 12 12 9 15 7 9 17 16 18 20 22 23 25 24 24 31 38 39 39 41 43 41 40 40 39 37 39 41 39 36 32 34 29 29 25 33 36 34 30 28 27 26 23 25 23
21 10 12 9 6 4 9 14 9 13 8 25 30 22 24 16 30 23 24 23 32 39 39 39 39 42 43 42 39 38 37 35 35 37 39 35 33 32 32 33 38 36 35 32 31 30 28 27 27

GFSSGP_925_spd_021.txt.gz
Wind_Speed
18 17 12 3 1 1 3 2 2 4 3 3 2 4 8 5 1 3 21 18 24 25 25 23 22 24 24 24 24 25 25 24 23 21 19 17 16 15 14 13 11 11 10 9 10 10 10 10 9
23 13 3 2 2 2 3 2 4 2 7 11 10 8 5 4 4 11 13 26 26 28 26 25 23 24 23 23 23 24 22 22 20 19 17 16 14 13 12 11 10 9 8 7 9 8 8 9 9
16 4 3 2 1 3 2 2 6 11 12 4 5 7 3 3 11 16 20 28 29 28 25 24 24 24 23 21 21 22 20 19 18 17 16 14 13 11 10 9 8 7 7 8 8 7 8 10 9
9 1 3 0 4 4 2 6 8 10 5 9 14 9 5 12 11 14 28 30 31 29 25 24 24 22 22 20 20 19 19 18 17 16 14 13 11 10 8 8 7 6 7 8 9 8 9 10 10
2 2 1 2 4 3 2 10 4 4 3 10 5 5 7 8 14 32 28 29 31 28 25 24 23 23 21 19 18 18 16 16 15 14 13 12 10 8 8 7 6 6 7 7 8 9 9 11 9
2 2 2 3 4 4 3 5 6 9 12 13 13 12 4 21 28 25 27 31 30 29 26 24 22 23 21 19 18 16 15 14 13 12 11 10 9 9 8 6 6 6 5 6 8 9 10 10 8
1 3 3 4 3 3 3 4 10 13 11 8 12 5 6 16 22 27 28 30 30 28 26 24 22 21 20 20 18 16 14 13 11 11 10 9 8 7 7 6 5 5 4 5 7 9 10 9 7
3 2 2 3 4 4 5 4 9 11 5 15 12 7 10 21 26 26 27 29 29 28 26 26 24 22 22 20 18 17 14 13 11 11 9 9 8 6 4 3 4 3 4 5 8 7 7 6 4
1 1 3 5 5 5 10 5 10 3 12 5 4 8 20 32 30 25 22 23 24 27 27 26 26 25 23 21 18 17 16 15 13 12 10 8 7 5 2 1 2 3 4 4 5 8 7 5 6
4 2 6 7 5 12 16 15 17 6 14 2 10 17 29 30 29 25 22 21 23 25 29 28 27 26 25 22 20 20 18 17 15 14 11 9 6 4 3 2 2 3 1 2 3 3 4 4 6
5 6 2 7 3 16 17 13 5 16 8 8 24 22 23 29 26 25 23 25 28 32 30 31 29 27 26 25 23 21 20 18 16 15 13 10 6 6 5 4 2 4 1 4 5 3 1 5 7
6 8 12 18 5 12 16 12 6 19 7 20 26 27 24 23 20 25 25 26 26 27 33 32 31 30 28 26 24 23 21 20 18 16 14 12 10 5 9 4 5 4 4 5 3 2 1 2 6
14 14 13 20 16 15 17 19 15 22 9 19 21 23 24 21 25 27 30 30 27 29 32 34 33 33 30 28 25 24 23 21 19 17 15 13 10 8 9 8 6 3 4 4 3 3 2 0 2
6 12 12 10 10 16 19 17 10 16 18 19 22 24 22 22 26 24 25 28 29 32 33 34 35 34 32 30 28 26 23 21 20 19 18 16 12 10 10 9 6 4 5 3 2 4 3 2 2
5 5 6 8 7 10 22 9 19 16 22 23 23 22 21 21 25 27 31 29 31 33 35 34 36 36 35 33 30 26 23 21 21 21 20 19 17 14 13 10 8 5 7 6 4 4 1 2 3
2 2 3 4 5 8 17 17 19 20 24 23 23 20 21 21 26 29 32 31 34 33 34 37 35 36 36 35 30 25 23 23 22 23 23 20 18 16 14 10 10 6 7 8 7 5 4 2 2
4 5 6 6 6 6 9 7 12 24 24 23 22 20 20 18 20 28 31 33 34 37 37 37 36 37 36 35 30 26 22 24 24 22 23 24 21 19 13 11 9 7 8 7 5 5 3 4 1
5 4 5 4 4 8 3 3 18 21 22 23 22 20 19 19 23 31 31 32 32 37 39 40 40 39 38 36 32 30 21 18 18 17 17 19 24 22 17 12 11 8 8 7 7 5 4 3 2
4 3 6 5 3 4 14 6 18 22 19 20 20 19 20 22 21 28 30 32 30 31 34 39 38 38 39 36 34 34 30 24 21 20 19 20 25 23 20 15 14 11 10 9 8 7 7 5 3
7 7 12 2 7 5 7 12 19 23 28 27 23 22 23 20 19 23 28 32 33 38 39 38 42 42 41 38 37 33 35 31 26 20 18 20 25 23 22 19 16 14 13 12 12 10 6 5 3
5 9 11 8 2 1 6 3 11 19 15 16 19 23 22 23 22 21 23 34 36 34 39 43 46 44 44 40 38 31 30 30 29 25 22 20 24 26 24 21 18 17 16 16 14 11 7 6 2
9 6 10 3 3 3 3 4 5 8 19 19 19 21 22 22 20 18 22 28 37 40 41 41 41 43 46 44 39 36 29 24 30 30 25 23 25 26 24 22 19 18 18 19 16 12 10 9 9
10 5 7 4 5 1 4 0 6 10 15 19 21 21 22 23 22 22 22 35 41 40 41 42 44 44 45 46 41 37 29 32 29 28 27 25 24 25 26 25 22 20 18 17 16 15 12 12 11
5 2 4 3 3 4 16 9 7 8 22 23 22 23 25 23 23 22 31 31 34 35 38 41 42 44 45 49 47 41 35 33 33 30 27 24 24 26 25 27 24 22 20 18 18 17 14 13 13
5 7 4 4 4 10 8 6 15 10 25 25 26 27 27 25 23 23 21 20 28 34 37 37 39 40 43 46 45 44 41 41 38 36 33 30 26 25 26 29 26 26 23 20 18 19 16 15 15
8 11 6 7 4 7 5 9 8 17 12 27 26 27 23 24 23 25 25 27 34 38 37 37 39 39 41 44 45 45 45 42 41 39 35 34 32 29 27 32 30 28 25 23 19 21 19 16 16
7 10 12 3 2 3 5 7 5 8 12 9 16 18 21 24 25 27 26 30 35 34 38 42 40 40 41 44 43 41 44 39 38 41 38 34 35 30 27 33 34 32 29 26 23 23 22 19 17
15 9 4 2 11 12 5 6 6 7 16 10 10 15 18 21 23 24 23 26 39 40 40 42 44 45 45 46 43 42 45 43 40 41 39 34 35 33 31 32 36 34 32 30 26 25 24 21 19
5 9 3 7 7 10 6 10 8 10 9 11 11 17 19 19 22 23 22 30 33 35 35 42 41 41 41 40 40 38 40 39 39 42 41 38 35 33 32 32 37 37 34 33 30 28 26 25 22
14 18 8 5 11 5 8 12 1 15 15 11 11 15 19 21 22 24 24 20 25 31 34 38 41 41 43 42 41 41 42 38 39 44 44 40 40 37 34 30 34 39 37 37 35 32 30 28 26

GFSSGP_925_spd_024.txt.gz
Wind_Speed
17 16 15 4 1 1 3 1 1 5 3 2 4 4 6 4 2 2 18 24 25 25 21 21 22 24 25 26 28 26 24 22 21 21 19 17 15 13 12 12 12 11 11 10 10 9 8 8 7
21 17 4 2 1 1 2 2 5 4 6 12 9 7 4 4 4 10 11 26 30 26 23 22 23 25 25 26 25 23 21 20 19 19 17 15 13 12 11 11 10 10 9 9 8 9 7 7 6
20 4 2 3 3 1 2 3 4 7 10 5 5 6 3 4 10 14 17 29 29 25 25 23 24 25 23 24 22 20 20 18 17 16 14 13 11 10 10 9 9 9 9 8 8 8 8 6 6
9 3 1 1 3 3 1 5 7 6 4 7 11 9 5 11 13 11 29 28 30 26 24 23 23 22 21 22 20 19 18 16 15 15 13 11 10 10 9 8 7 8 8 8 8 8 8 7 6
3 0 2 2 3 1 2 7 7 4 4 6 2 4 6 4 10 28 25 29 31 27 25 23 23 22 20 20 19 18 16 15 14 13 12 10 9 8 8 8 8 8 7 8 8 9 8 6 5
2 1 2 3 4 2 4 5 3 4 6 8 9 6 4 20 26 24 26 29 29 27 25 24 23 21 19 19 18 17 15 13 13 12 11 10 9 8 7 7 7 7 7 8 10 10 9 7 6
2 1 3 3 3 1 5 6 6 4 8 6 10 5 4 13 20 25 27 29 29 26 26 24 23 20 18 17 16 15 14 12 12 10 10 9 7 7 6 6 6 7 7 9 10 9 8 7 7
2 2 3 3 2 1 5 3 8 6 3 10 10 6 8 16 24 25 27 28 27 26 26 24 23 21 20 17 16 15 14 12 11 10 8 7 6 4 3 3 4 6 8 8 8 8 7 5 6
0 3 3 4 3 2 7 5 5 5 12 3 4 6 12 28 27 25 24 24 25 25 26 24 24 22 21 19 17 15 13 12 10 9 7 6 5 3 1 2 3 5 6 5 7 7 7 4 4
4 4 6 5 3 3 7 9 10 5 11 1 7 14 29 29 25 23 22 22 24 24 27 26 25 24 22 21 19 17 15 13 12 11 9 7 4 3 1 2 2 3 2 1 4 3 5 4 3
6 6 5 4 5 8 7 6 4 11 7 6 17 21 23 27 23 21 21 24 27 29 29 28 27 26 24 23 21 19 17 15 14 12 10 8 6 5 3 3 1 2 0 1 2 2 3 5 7
3 9 8 5 4 7 10 8 6 14 6 8 16 26 22 21 20 24 23 25 26 26 32 31 29 28 27 25 22 20 19 17 16 15 12 10 7 4 4 3 2 3 2 1 1 3 4 3 4
7 9 7 13 7 9 9 13 8 14 4 15 18 21 22 20 22 25 25 23 26 28 32 32 31 30 29 27 23 22 21 19 17 16 14 11 9 6 6 6 4 3 3 3 1 4 4 1 2
5 12 15 6 6 6 12 12 8 8 10 17 20 19 18 20 25 24 24 24 27 31 33 33 32 31 30 28 26 24 22 20 18 17 16 14 10 7 7 8 6 5 4 3 1 2 3 3 4
6 7 6 8 6 8 9 3 17 10 18 18 19 18 17 17 24 25 29 27 30 31 33 34 34 33 32 30 28 25 23 21 19 19 17 16 13 10 8 9 8 6 6 6 3 3 2 2 3
2 1 2 2 7 6 15 18 19 16 20 18 19 17 18 17 23 26 29 30 29 31 33 33 34 34 33 32 30 27 24 21 20 19 19 18 16 14 12 13 10 8 6 8 6 4 3 4 1
3 5 6 4 9 3 8 9 13 18 19 18 18 18 18 16 20 26 28 30 32 35 34 32 33 34 35 34 32 28 25 23 21 20 20 19 17 16 13 14 11 11 9 7 6 4 2 2 2
5 4 4 4 3 6 12 6 8 20 20 20 20 18 18 18 22 27 29 29 31 36 36 35 34 33 33 34 32 29 25 22 21 23 23 22 21 20 19 16 13 11 9 7 5 4 3 0 3
6 4 3 3 2 4 13 8 9 17 16 18 19 19 19 21 20 25 26 30 29 32 34 37 37 36 32 33 32 31 28 24 20 18 17 16 17 20 22 18 14 12 10 8 6 4 4 1 1
6 6 7 4 7 2 3 9 7 16 23 23 22 21 21 17 16 21 28 29 30 35 39 39 42 40 38 36 35 30 31 29 22 19 20 18 18 20 23 21 17 14 12 10 8 7 3 1 3
6 11 5 4 2 1 3 6 5 14 7 14 16 19 19 20 19 19 23 32 33 34 38 42 45 44 43 40 35 30 24 28 28 25 23 22 20 23 25 23 19 15 13 12 11 9 7 5 4
8 8 7 7 4 4 5 5 5 6 19 18 17 20 19 19 18 17 21 26 33 37 40 41 40 40 42 43 36 34 28 25 31 33 29 24 21 23 25 24 20 17 15 13 13 12 9 8 7
10 7 8 5 6 2 4 1 6 8 10 16 18 20 21 22 20 20 20 34 38 36 37 41 44 45 43 45 43 41 32 31 31 34 32 29 25 24 23 23 22 21 18 14 16 15 12 10 10
7 4 5 5 4 5 9 8 5 7 15 18 17 20 19 20 21 21 30 31 31 33 34 36 38 43 44 45 46 42 37 32 32 30 30 31 30 27 25 25 25 23 19 16 15 17 14 11 12
5 8 2 2 3 10 9 8 15 8 15 18 25 25 21 21 20 21 19 20 30 33 36 35 37 38 40 45 45 44 42 39 39 37 32 30 30 28 27 25 23 25 23 18 17 18 17 15 14
8 9 6 8 5 6 7 9 6 13 10 17 20 22 21 21 21 23 22 24 33 36 36 37 38 39 40 42 45 47 45 40 41 41 37 34 33 31 27 24 24 25 24 20 19 20 18 16 15
6 11 9 4 1 2 5 8 5 7 10 10 18 12 15 20 21 24 24 28 31 35 38 41 39 40 40 43 44 43 44 41 38 40 41 39 35 34 32 27 26 28 27 24 22 22 21 19 17
10 8 4 2 6 6 4 5 6 8 14 13 9 13 17 19 20 22 21 27 35 36 40 39 42 43 43 43 42 43 47 47 44 43 43 43 39 35 33 31 28 29 30 28 26 25 23 21 20
3 6 3 6 6 6 0 7 8 10 11 13 16 17 18 18 19 21 20 29 36 35 33 40 40 38 39 40 40 40 39 40 41 43 47 44 41 40 35 33 31 28 32 31 30 29 26 24 23
21 11 8 6 11 4 4 9 5 10 12 11 11 12 11 13 16 19 21 21 27 32 34 36 39 39 43 43 41 43 43 40 41 44 47 45 42 40 37 34 34 31 32 34 33 32 30 28 27

GFSSGP_925_spd_027.txt.gz
Wind_Speed
17 15 10 2 2 2 2 2 0 8 7 2 8 2 4 6 2 3 16 14 23 22 26 21 24 24 24 24 24 25 24 20 19 18 15 14 13 12 12 11 11 11 10 9 8 7 7 7 6
16 14 3 1 3 1 2 2 5 4 6 13 11 9 4 3 3 11 13 25 25 22 23 19 23 24 24 24 25 23 20 20 19 16 14 13 12 11 10 10 11 10 10 9 8 7 6 6 5
17 6 2 2 2 3 2 2 6 11 9 6 5 6 3 4 9 17 20 28 24 21 21 21 23 24 24 24 23 21 19 19 17 15 12 12 11 10 9 10 12 10 9 9 8 7 6 4 3
8 1 2 2 4 1 1 6 12 11 3 5 11 8 5 1 17 12 29 28 24 23 21 23 23 23 22 21 20 18 18 16 15 13 11 11 10 9 9 9 10 9 9 8 8 8 7 5 4
4 3 2 2 4 2 2 10 11 6 5 7 3 6 6 6 12 28 26 26 25 23 21 22 23 23 21 20 18 17 16 15 14 12 10 10 8 8 8 7 9 9 8 8 9 9 8 7 7
2 2 2 4 3 4 6 11 7 4 5 7 10 11 4 11 23 27 25 25 23 24 23 22 22 21 20 18 17 17 15 14 13 11 10 9 9 8 7 7 8 8 7 9 9 9 10 8 8
3 2 2 3 1 4 6 9 5 6 8 6 14 8 6 14 25 24 24 24 22 22 23 22 21 19 18 17 17 16 14 13 11 10 9 8 8 7 7 7 7 8 8 9 8 8 7 8 8
1 2 2 2 1 3 8 6 7 6 5 13 11 7 10 17 27 23 24 23 22 21 22 22 21 19 17 16 15 13 12 11 10 9 7 6 6 4 4 5 5 7 7 8 7 6 6 6 6
1 3 2 0 2 3 10 5 6 6 13 5 6 7 16 31 28 26 25 24 22 22 22 22 22 20 18 15 13 12 10 9 8 7 6 4 2 1 2 3 5 6 6 5 7 5 6 5 6
5 3 3 2 2 2 11 9 11 5 12 6 7 14 28 28 30 30 28 27 26 25 24 23 22 20 18 15 13 11 10 8 7 6 5 3 2 1 1 2 3 4 2 2 4 3 2 4 6
5 5 5 3 6 4 12 9 8 10 10 12 15 20 27 28 27 27 27 27 28 26 24 23 21 19 18 16 14 12 11 10 8 9 7 5 4 2 0 1 1 2 1 2 2 4 2 4 6
5 10 9 2 3 5 9 11 8 11 2 10 15 25 27 25 26 28 28 28 27 26 25 23 22 20 18 15 15 13 13 11 10 9 10 7 4 2 1 1 0 1 1 2 2 3 3 3 4
15 9 7 10 12 11 8 15 9 16 6 11 19 25 24 21 25 26 25 24 25 26 25 23 22 21 19 18 15 15 14 13 11 11 12 9 6 5 2 2 2 1 1 0 1 2 1 0 3
4 9 11 9 13 9 14 11 9 11 13 18 22 26 24 23 27 24 26 26 27 25 25 24 23 22 20 19 18 16 14 13 12 11 12 11 8 5 3 4 4 4 4 4 2 3 3 2 2
9 12 11 12 8 8 13 9 16 11 18 20 23 22 22 22 26 27 28 27 28 27 25 25 24 23 21 21 20 17 15 13 13 12 14 14 11 8 6 5 6 5 5 6 3 2 4 4 5
5 4 5 1 9 5 14 16 15 19 20 21 23 22 21 23 29 28 28 27 26 25 26 24 23 23 23 21 20 18 15 14 14 13 15 15 13 11 9 8 8 6 5 5 3 3 3 2 4
6 10 8 7 9 3 11 12 6 21 21 21 22 22 21 21 25 30 28 28 27 26 25 25 24 24 24 22 19 19 17 17 15 14 15 17 14 13 13 10 8 8 6 4 4 1 2 2 2
10 10 9 12 3 8 13 15 2 19 21 22 22 21 22 23 26 31 29 28 27 26 25 24 24 24 23 20 20 17 16 17 16 16 16 17 16 16 16 13 11 8 6 5 3 2 1 1 2
8 16 10 5 7 9 14 16 9 17 20 19 20 21 23 25 25 29 30 28 28 27 27 26 25 26 24 23 22 20 20 18 17 17 20 21 20 20 19 15 14 11 8 6 5 3 3 2 0
16 18 16 8 9 4 6 10 9 17 22 23 24 24 25 22 21 25 29 31 31 31 32 30 30 28 29 25 24 20 20 18 18 17 19 19 17 17 17 18 14 11 8 9 7 5 3 0 3
22 23 19 13 2 4 7 12 6 13 17 19 22 22 19 24 24 23 28 32 33 32 33 33 34 33 32 29 22 18 13 14 16 17 15 18 17 16 17 18 16 13 10 9 7 7 6 2 3
22 17 15 15 9 14 6 13 7 13 18 18 20 22 23 23 23 21 26 31 34 36 33 33 32 32 30 31 25 26 24 23 24 22 19 18 20 19 19 19 18 17 11 11 8 8 7 4 6
17 12 16 15 14 10 14 9 13 4 12 19 22 24 24 24 24 25 25 35 39 33 34 34 34 33 33 34 33 30 27 25 21 20 22 26 22 22 20 20 20 19 16 13 11 9 9 7 6
13 12 7 4 9 15 19 13 17 14 15 15 17 22 24 24 25 24 33 32 31 32 32 31 32 35 34 35 35 31 28 26 22 21 20 23 23 21 24 21 21 19 17 16 12 11 11 9 7
20 15 7 10 11 15 12 14 21 10 18 20 19 23 24 25 24 25 24 25 31 33 36 35 34 35 36 36 35 36 35 32 30 27 24 21 21 22 23 24 22 18 19 18 15 12 12 12 10
25 21 9 13 13 11 7 14 13 16 18 20 19 18 19 22 24 25 25 29 32 36 38 38 36 36 36 37 39 39 38 34 35 32 27 25 22 22 22 25 23 21 20 19 18 13 13 14 12
14 23 22 6 1 4 14 15 11 9 19 18 19 16 18 22 24 27 26 31 33 36 38 39 39 39 39 41 39 39 38 37 34 33 34 28 26 21 22 25 25 22 21 21 21 16 17 16 16
15 17 10 13 12 12 8 9 13 19 19 18 19 18 19 19 21 23 23 29 34 38 39 41 40 40 40 39 39 39 40 41 40 35 35 33 30 30 22 25 25 24 22 22 24 19 19 20 17
10 17 10 11 9 7 6 9 8 16 19 22 22 21 20 19 20 21 22 30 36 34 33 37 40 39 38 40 40 39 38 38 37 35 36 38 36 35 30 28 28 26 24 23 26 24 21 23 20
24 19 21 11 11 12 9 6 4 11 8 13 16 14 13 14 17 18 20 23 28 32 33 37 38 40 43 43 41 41 39 39 39 41 40 40 38 37 39 35 31 27 27 25 28 27 23 25 22

GFSSGP_925_spd_030.txt.gz
Wind_Speed
16 14 9 6 2 5 1 3 3 9 7 5 6 2 9 12 4 7 23 23 25 31 22 19 21 21 21 20 21 20 19 16 15 14 13 13 12 11 11 11 11 12 11 10 8 7 7 7 6
17 12 5 3 4 2 6 3 7 8 10 12 10 7 7 5 3 14 17 28 25 23 21 20 23 22 21 20 20 20 17 16 14 13 12 12 11 11 10 11 11 11 10 9 8 7 7 6 5
15 10 3 4 1 6 8 4 10 10 10 6 5 8 5 5 9 23 22 29 26 26 20 20 22 22 21 20 20 18 16 15 13 12 11 10 10 10 11 11 10 9 9 9 8 8 7 6 6
11 6 4 5 7 8 8 7 11 10 5 3 6 9 7 6 20 17 32 27 28 23 23 22 22 22 21 20 18 17 15 14 12 11 11 10 10 9 10 9 9 9 9 9 9 9 9 8 6
4 4 4 3 10 7 6 9 8 6 6 7 5 7 7 10 14 32 31 27 27 25 24 22 23 22 20 19 17 16 15 13 12 11 10 10 9 8 9 9 9 8 9 10 10 10 10 9 8
5 4 6 7 9 8 7 8 5 4 6 7 10 13 5 16 29 31 30 26 25 26 25 23 23 21 19 18 16 15 14 13 12 11 10 9 9 8 8 7 7 8 8 9 10 10 10 10 9
9 6 5 3 6 6 6 6 2 5 7 6 15 11 12 21 28 30 29 26 25 25 25 23 22 19 19 16 15 14 13 12 11 11 10 9 9 8 7 7 7 7 7 8 8 8 8 8 8
6 5 1 1 4 11 7 5 5 3 7 14 15 8 14 23 29 30 28 25 24 25 24 24 22 19 17 15 14 13 12 11 10 9 9 8 7 7 6 7 6 7 6 7 8 7 7 6 7
4 6 5 8 0 7 10 7 5 6 12 7 3 10 24 31 29 29 27 25 24 24 24 24 23 19 17 15 13 12 11 10 9 7 7 5 5 4 4 4 6 6 5 6 6 6 6 4 8
8 8 5 5 5 6 9 6 9 7 12 12 9 17 30 31 29 29 27 26 25 25 26 25 23 20 18 16 14 11 10 8 7 6 5 4 4 4 4 4 6 5 3 4 3 4 5 6 7
10 10 7 6 6 4 8 8 9 7 11 14 14 22 26 30 28 28 27 27 27 27 26 25 22 20 18 16 14 12 11 9 8 7 5 3 2 2 2 4 4 3 2 3 2 0 3 6 8
9 12 7 2 3 2 3 8 9 10 7 13 17 23 25 25 25 29 28 28 28 27 26 25 23 21 19 16 15 12 11 10 8 7 6 4 3 2 1 2 2 2 2 2 1 7 4 2 4
17 9 6 9 8 7 5 7 4 10 10 16 19 23 25 22 25 27 26 26 26 27 26 24 23 21 19 16 14 13 12 11 9 8 7 5 3 1 1 2 1 1 1 2 1 3 3 1 1
7 15 10 10 11 10 10 9 10 11 12 17 21 24 24 24 27 26 26 27 27 26 26 24 23 21 19 18 14 13 12 11 10 9 8 7 5 3 1 2 1 1 1 1 3 2 3 2 2
11 11 12 14 12 9 9 11 14 8 15 18 21 22 23 24 27 27 28 28 28 27 25 25 23 22 21 19 16 14 13 12 11 11 10 8 7 5 3 0 1 1 1 3 1 1 3 3 4
15 17 14 17 17 13 13 10 18 15 18 19 21 21 23 25 28 28 28 27 27 26 26 25 24 23 22 19 17 16 14 13 12 12 11 10 9 8 5 2 2 1 0 1 1 2 2 3 3
13 14 19 13 12 9 15 13 8 16 19 19 20 22 22 22 25 29 29 28 27 26 26 25 24 24 23 20 18 17 15 15 14 13 13 11 10 9 8 5 3 1 1 1 1 1 1 3 2
18 18 17 17 13 14 14 16 4 13 18 18 19 20 21 22 25 31 31 29 27 26 25 25 25 24 23 20 19 17 17 16 15 15 14 12 11 10 8 8 5 3 2 1 2 1 1 0 1
18 19 19 17 15 12 14 13 13 14 17 18 19 20 22 23 23 29 31 30 28 27 27 27 27 26 25 24 23 21 20 18 17 16 15 14 12 10 11 10 7 6 4 1 3 2 2 2 2
21 19 20 15 10 8 13 12 11 10 16 18 20 22 23 21 21 25 30 31 31 30 29 28 28 28 28 25 23 21 20 19 18 17 16 15 14 13 12 12 8 6 4 3 3 3 1 1 3
23 24 21 17 12 15 15 18 16 10 13 17 19 19 21 23 23 23 28 32 32 32 32 32 30 28 26 24 22 19 18 17 18 20 18 16 14 13 12 10 9 8 6 5 4 4 3 1 5
24 24 20 19 16 15 15 15 18 20 17 19 19 21 21 23 22 22 25 31 34 35 33 32 31 29 26 26 24 24 23 22 21 21 19 16 15 14 12 11 11 11 7 5 4 5 4 4 6
21 18 17 20 17 18 22 14 16 13 18 20 21 21 22 23 25 25 25 35 36 33 33 32 31 31 29 28 26 25 23 22 20 20 19 20 16 16 14 13 13 12 10 8 6 6 7 7 6
15 16 13 16 17 20 24 20 19 19 19 19 18 19 22 24 25 26 33 32 32 32 31 31 31 32 32 31 31 28 26 24 22 20 20 21 21 19 18 16 15 14 12 11 9 9 10 9 7
22 17 9 11 15 19 21 19 19 11 21 20 18 19 20 23 23 24 25 26 32 35 35 33 32 32 34 34 32 33 31 27 24 22 22 18 20 21 21 20 18 16 16 14 12 11 11 12 11
27 23 10 16 14 16 16 16 22 24 22 11 20 18 20 21 23 24 26 30 35 38 39 37 35 33 34 35 35 33 33 31 29 27 24 22 21 19 19 21 21 20 18 16 14 13 13 13 13
24 25 27 4 3 8 16 19 16 10 18 25 22 18 17 20 22 25 26 32 35 37 38 38 37 38 38 38 36 36 35 35 32 30 28 27 22 20 20 22 23 22 20 18 17 16 15 15 14
21 25 21 14 15 18 11 19 12 21 21 19 22 21 18 20 22 22 23 30 36 39 41 42 42 41 41 39 37 38 38 37 37 32 32 29 27 25 21 22 23 23 22 20 20 18 17 17 16
22 16 22 18 17 11 9 11 15 16 16 22 21 20 20 19 21 21 22 29 34 34 35 40 40 40 39 40 40 39 38 38 36 36 36 34 30 28 28 26 24 25 24 23 22 22 20 19 18
28 24 27 14 23 18 14 6 4 7 14 17 17 18 17 17 17 17 18 21 27 33 36 39 41 41 43 43 42 42 39 38 38 37 37 35 34 33 32 30 28 27 27 26 25 24 24 23 22

GFSSGP_925_spd_033.txt.gz
Wind_Speed
17 14 11 4 3 5 5 6 6 9 8 9 8 11 18 17 9 11 28 27 36 23 17 15 16 15 15 16 17 17 15 14 14 13 13 14 14 13 13 13 11 11 10 10 9 8 8 7 7
17 13 9 4 3 3 4 5 8 8 17 12 11 11 13 9 12 21 26 34 26 28 19 19 18 17 16 17 17 16 14 14 13 12 13 12 12 11 12 11 11 10 10 9 8 7 6 6 6
16 13 3 3 4 1 6 9 12 13 12 7 11 10 8 6 20 24 36 34 28 25 21 20 20 17 17 17 16 15 14 13 12 12 12 12 12 13 11 10 10 10 10 9 8 7 7 6 6
14 6 5 2 15 15 14 4 13 10 6 7 13 12 10 15 26 24 36 37 30 23 24 22 20 18 18 17 16 14 14 12 11 11 11 11 11 10 10 9 10 10 9 9 9 9 8 7 7
18 7 6 5 7 11 12 11 9 6 7 8 14 10 14 20 20 37 34 31 32 25 24 22 21 20 19 17 15 14 13 12 11 10 10 10 9 9 9 10 9 9 9 9 9 9 9 8 7
5 4 5 6 13 13 11 9 11 8 7 7 18 16 10 18 31 34 31 32 26 25 26 23 22 21 18 16 14 13 12 11 11 10 9 9 9 8 8 9 8 8 8 9 9 9 9 9 9
19 4 14 4 13 13 10 4 3 12 8 10 12 13 13 22 32 31 28 26 25 27 27 24 22 19 17 15 14 12 12 11 10 9 9 8 8 8 8 8 8 7 7 7 8 8 8 8 8
12 5 13 16 2 19 7 10 6 10 15 13 18 10 20 27 31 31 28 28 26 28 26 25 23 20 16 14 13 12 11 10 9 8 8 9 9 10 10 9 7 7 6 6 6 5 5 6 7
13 9 6 4 9 13 9 13 10 11 13 9 3 21 28 32 32 31 27 24 24 25 26 25 24 20 17 15 13 12 10 9 8 7 8 9 8 7 9 7 6 6 5 5 4 4 5 6 7
14 6 8 7 5 11 9 16 10 12 12 11 17 28 32 33 30 28 25 24 23 26 28 26 24 21 18 16 13 11 10 9 8 9 8 5 6 7 7 7 6 5 4 4 5 2 4 9 10
17 8 25 6 9 2 12 16 9 14 11 13 19 26 27 30 30 29 26 25 25 27 26 25 24 21 19 18 14 12 11 11 7 4 6 7 5 3 5 7 7 7 5 7 3 7 7 9 10
16 10 16 9 6 1 7 15 12 4 13 17 20 25 26 25 22 31 29 29 27 23 24 24 23 21 19 15 15 14 12 9 9 8 4 1 1 2 5 6 7 4 3 3 4 7 9 6 7
18 17 10 4 4 5 3 7 5 9 13 19 21 24 25 23 27 28 30 30 29 27 25 24 22 21 18 13 15 12 11 10 9 7 7 5 3 3 3 2 2 2 3 1 4 6 4 4 1
15 17 11 10 11 9 10 8 8 12 14 20 22 24 24 24 26 28 28 28 29 28 27 25 23 21 18 17 12 12 12 11 9 9 8 6 4 3 3 3 6 2 3 4 3 1 3 6 3
19 8 16 14 13 9 9 12 15 17 17 19 21 22 23 24 28 27 28 28 28 27 26 26 24 23 22 19 16 14 13 12 11 9 8 8 6 4 2 1 2 1 2 1 1 2 7 6 9
19 19 17 20 19 15 12 16 17 16 18 20 21 21 23 25 27 28 28 27 28 27 27 25 25 24 23 21 18 16 14 14 12 11 9 10 9 5 5 3 3 3 2 0 2 2 1 7 1
17 18 23 20 22 16 16 16 20 19 19 19 19 20 21 23 26 30 30 29 29 28 28 27 26 25 24 21 19 17 16 14 13 12 12 12 10 8 7 7 0 0 4 3 1 5 3 3 5
22 23 21 22 17 18 19 19 15 19 19 18 19 20 21 23 26 31 30 30 28 29 28 27 26 24 24 22 20 18 18 16 15 14 14 13 12 10 8 6 3 2 2 2 2 5 2 3 3
22 21 23 22 17 22 19 20 18 16 14 17 20 21 22 23 23 30 31 31 30 30 29 29 28 26 25 24 23 21 20 18 17 16 14 14 13 11 10 8 5 5 3 3 3 5 5 4 1
27 25 23 21 14 13 17 18 16 15 18 17 21 21 23 22 23 25 31 33 33 32 31 30 29 27 27 25 22 21 19 18 17 16 15 16 15 13 11 10 7 7 6 7 4 4 6 2 5
28 27 23 19 21 17 16 18 17 16 14 15 20 21 22 24 25 25 28 34 34 33 32 32 31 29 29 26 23 19 18 16 18 18 17 17 16 14 14 10 10 7 7 11 7 5 6 3 5
26 26 23 20 19 18 23 16 20 18 17 18 20 21 21 23 24 25 25 32 36 35 34 32 32 30 30 29 25 24 23 22 21 19 19 19 18 16 15 13 11 11 10 9 6 7 5 3 8
25 20 25 23 22 20 24 17 18 25 26 22 21 22 22 24 24 25 26 35 37 35 35 34 33 32 30 31 28 26 24 23 20 20 20 20 18 17 17 15 15 14 12 9 8 7 7 6 6
21 16 19 22 19 21 25 21 20 19 18 24 24 23 24 22 25 25 32 33 33 35 35 33 32 32 32 31 35 26 27 24 22 22 20 20 21 18 20 19 17 17 14 10 9 10 8 9 7
18 19 12 16 18 20 24 25 20 20 21 20 21 24 23 21 23 24 25 26 32 33 35 34 35 35 36 33 32 31 27 28 21 20 23 21 21 22 24 25 19 18 17 14 14 13 10 11 10
26 25 15 21 18 17 25 27 24 26 17 18 22 21 22 22 22 25 25 27 32 34 36 35 35 35 35 36 35 34 30 29 30 25 23 24 21 21 17 28 23 21 19 18 16 14 13 13 12
23 25 27 22 23 14 19 27 24 21 26 20 15 23 22 23 22 24 26 32 33 35 37 39 38 40 39 39 37 36 36 34 31 30 31 23 24 21 19 21 22 23 22 20 19 18 17 14 15
27 26 23 17 18 16 15 15 18 20 15 27 25 18 23 21 23 23 24 29 36 39 40 40 41 42 45 42 42 40 38 37 35 31 29 30 25 25 17 24 22 23 24 23 22 20 18 17 17
26 22 24 20 18 13 11 12 15 19 20 19 20 26 21 20 22 21 23 31 36 36 37 40 40 38 39 42 41 41 40 38 36 36 33 33 30 26 30 23 26 25 26 26 25 24 19 22 20
27 28 27 17 24 17 12 3 9 6 7 19 20 18 23 21 19 20 22 23 31 36 38 40 40 42 42 41 42 41 39 39 39 38 37 34 34 32 29 29 27 27 28 28 27 27 25 23 23

GFSSGP_925_spd_036.txt.gz
Wind_Speed
15 14 11 2 3 5 4 6 6 5 6 17 14 17 14 14 3 4 21 30 30 21 16 16 16 15 16 16 16 16 16 15 16 16 16 14 15 15 15 14 13 12 11 11 10 10 10 10 10
17 16 6 2 3 2 6 10 9 11 14 20 21 20 13 9 11 16 22 24 29 20 20 17 17 15 16 16 16 15 15 15 15 15 14 12 14 14 13 14 12 12 11 10 9 8 8 8 8
15 16 2 3 3 4 4 12 15 16 15 12 15 15 9 7 17 22 28 30 25 21 22 19 18 16 17 16 15 15 14 14 14 13 12 13 13 12 12 12 12 12 11 11 10 9 7 6 6
11 7 5 2 6 8 9 8 14 18 15 17 19 15 10 17 20 22 36 26 24 19 19 21 19 17 17 16 15 14 13 12 12 11 12 12 11 11 11 12 12 12 12 11 10 9 8 8 6
6 3 3 6 6 5 6 16 11 11 12 13 18 13 16 15 28 37 32 28 23 18 18 22 19 18 17 15 14 13 12 11 11 10 10 10 9 10 11 11 12 12 12 12 11 10 10 8 7
2 3 4 5 16 13 11 13 18 11 19 21 22 23 7 25 35 33 34 28 24 20 21 20 19 18 17 15 13 12 11 10 10 9 9 9 9 9 10 11 11 12 12 11 10 9 9 9 8
11 3 6 14 9 14 10 4 6 15 18 18 23 17 14 22 34 34 29 27 25 25 24 21 18 16 16 14 13 11 10 9 8 8 8 8 8 9 10 11 11 11 10 8 8 7 5 6 9
13 7 5 13 12 11 12 13 7 18 16 24 23 11 22 27 33 34 30 27 25 29 23 23 20 17 15 13 12 11 9 8 8 7 5 5 5 5 9 10 10 9 8 7 6 4 1 0 5
22 5 9 9 12 4 15 15 19 18 15 11 13 26 30 36 32 31 27 28 27 30 26 24 21 19 17 15 12 11 9 9 8 6 5 7 7 5 6 7 6 8 7 6 4 2 0 3 2
14 3 6 12 7 8 12 15 18 13 15 25 27 30 37 34 29 26 21 22 23 29 29 26 24 21 18 15 14 11 9 9 8 7 1 8 8 9 5 5 6 7 7 4 2 2 3 8 8
8 6 19 22 15 4 11 16 16 15 17 25 27 30 29 32 30 31 24 29 26 27 29 28 26 23 19 20 15 13 13 14 11 9 5 9 9 12 10 3 6 6 9 5 7 2 6 14 8
11 3 18 14 23 16 5 10 16 10 20 26 26 29 29 26 22 25 25 27 28 30 30 30 29 23 19 21 15 18 17 15 16 11 6 13 3 9 7 9 8 5 12 7 5 6 9 4 9
19 19 20 11 19 24 24 10 4 21 22 24 28 27 28 26 29 27 27 26 26 25 29 31 31 26 20 17 16 18 15 10 11 9 1 1 6 8 2 8 6 7 10 3 4 6 5 4 5
17 19 19 26 16 6 11 18 24 17 23 24 26 27 26 27 31 32 31 29 24 24 27 30 30 28 16 14 11 9 12 11 5 11 10 5 3 7 1 4 3 8 7 6 5 4 2 4 4
19 17 17 16 12 10 12 12 16 4 26 24 24 24 24 24 35 31 35 34 34 25 27 30 29 26 18 19 10 8 7 9 10 3 11 9 6 6 3 4 6 5 3 6 6 4 4 5 8
20 18 17 17 17 12 10 14 15 31 24 24 23 22 23 24 28 30 33 35 37 32 29 31 26 25 25 18 15 11 11 11 9 11 9 9 8 3 3 1 6 4 1 6 3 9 9 4 9
21 17 22 19 19 17 15 16 12 15 22 25 22 21 21 20 22 28 30 30 31 31 31 29 27 29 28 21 18 18 15 12 12 9 10 11 11 7 3 2 4 4 2 1 5 2 3 8 6
19 21 18 21 22 23 20 18 14 20 21 25 24 22 21 23 22 27 28 28 28 28 30 27 26 25 29 24 22 19 17 15 13 10 10 15 13 9 7 7 5 1 4 2 2 4 3 6 6
21 21 24 19 22 26 22 18 19 17 18 20 22 23 22 22 22 29 29 29 27 29 30 31 27 25 29 26 23 19 20 17 16 13 12 13 10 10 11 5 5 7 4 5 6 2 2 3 2
27 25 24 21 23 17 23 21 22 22 25 22 22 23 23 23 23 24 31 33 31 33 32 33 31 30 29 27 25 23 19 19 19 17 14 14 12 12 11 10 7 6 6 6 6 4 4 5 5
28 27 24 22 21 17 15 19 19 20 20 20 20 23 24 23 23 22 26 33 33 33 34 35 34 30 29 26 24 22 19 19 21 20 18 19 16 16 15 10 10 7 6 9 5 5 2 4 6
27 28 26 25 21 17 28 15 18 18 18 22 18 22 24 24 23 23 22 27 33 33 36 36 35 33 30 30 26 23 20 19 18 20 19 20 20 20 18 15 11 10 8 13 9 6 2 4 6
25 24 24 26 22 18 23 16 15 20 20 20 23 23 23 24 25 25 24 32 33 34 37 37 37 35 31 34 26 29 24 22 23 19 21 23 25 22 19 17 16 14 14 12 10 8 8 4 4
24 23 23 23 18 18 23 20 19 19 23 21 21 21 23 24 24 25 32 33 31 33 35 35 36 36 33 33 38 26 29 24 22 24 20 20 20 23 21 19 20 18 16 12 11 12 8 9 7
23 21 13 16 17 16 22 22 16 16 19 26 24 22 23 21 24 23 26 25 33 34 37 36 37 36 38 35 37 39 25 34 25 24 28 22 23 24 26 25 20 20 19 15 12 12 12 12 10
27 25 15 21 18 16 22 24 22 22 22 18 20 24 24 24 22 25 27 25 34 34 38 39 40 40 40 38 36 37 30 28 35 23 23 27 23 26 25 28 28 25 20 20 17 15 15 13 15
23 26 24 20 20 16 19 28 25 24 25 23 16 21 25 25 23 26 26 29 35 36 38 40 41 40 40 41 36 34 40 31 30 30 27 23 27 20 23 29 31 29 25 23 22 21 19 16 18
31 22 21 17 21 20 19 21 19 24 23 24 19 17 21 23 22 23 24 26 36 40 40 40 40 42 44 42 41 40 39 38 33 33 31 30 23 28 17 29 33 28 27 24 25 22 21 21 20
22 21 24 19 17 15 13 13 13 25 22 19 21 18 17 20 22 21 24 30 38 38 37 40 39 39 39 43 43 41 39 39 38 32 33 30 33 22 30 23 31 31 28 28 27 27 23 24 25
28 28 25 13 22 15 14 4 11 5 20 16 15 21 15 16 20 21 23 24 30 36 37 40 40 38 40 39 38 38 37 37 38 39 35 33 30 35 27 31 29 29 31 30 32 30 29 26 31

GFSSGP_925_spd_039.txt.gz
Wind_Speed
11 13 8 3 2 2 2 5 2 7 4 12 18 7 8 4 2 3 28 23 32 24 25 22 21 20 20 19 19 18 17 17 19 19 16 17 17 16 15 15 15 15 14 14 13 12 12 13 13
15 12 4 2 2 2 5 8 10 11 8 17 18 15 6 4 7 15 20 33 33 27 24 24 21 20 21 19 18 17 16 18 17 16 14 17 16 15 14 14 14 14 13 12 12 11 10 10 12
15 11 1 1 3 3 1 13 9 22 21 16 10 9 6 4 16 22 26 35 30 26 23 24 22 21 21 18 17 17 15 16 14 13 15 15 15 13 13 13 13 13 13 12 11 10 9 8 9
8 1 3 2 6 4 4 5 13 17 17 12 15 9 7 18 18 22 36 34 31 28 23 22 22 21 19 17 18 15 14 14 13 14 13 14 13 12 12 13 13 13 13 12 12 10 10 8 8
7 2 2 5 8 6 11 16 10 15 17 15 11 8 9 9 28 42 40 31 26 29 25 22 21 21 19 16 16 15 13 13 13 13 11 11 12 11 11 12 13 13 12 12 12 11 10 9 10
3 2 3 3 12 9 16 15 14 20 22 20 17 12 6 32 36 33 36 28 23 23 26 23 21 20 18 16 16 14 12 12 12 12 11 10 10 11 11 11 12 12 11 10 10 11 9 8 10
5 3 5 9 12 12 14 7 13 20 17 16 17 11 13 20 30 32 32 27 23 26 26 25 22 19 17 15 14 14 12 11 11 10 10 9 9 9 10 10 10 10 10 9 8 8 8 8 9
5 3 8 7 5 6 13 9 14 17 16 22 17 9 21 19 35 33 29 26 28 30 26 26 23 21 18 16 14 13 12 11 11 10 9 8 7 7 8 9 8 8 9 8 8 8 5 5 8
10 5 5 6 11 5 3 21 17 18 22 9 10 22 26 34 34 29 27 28 23 30 26 25 22 20 16 15 14 13 12 12 11 10 8 6 5 3 4 5 5 7 6 7 6 5 4 2 2
6 2 9 9 10 9 9 19 19 21 20 20 25 24 32 33 29 23 23 21 29 31 28 26 23 22 17 14 15 13 12 12 12 8 6 10 6 5 4 4 4 4 4 4 5 4 7 2 3
13 9 11 17 16 13 18 4 15 23 17 28 30 29 25 29 26 23 22 20 32 33 32 29 25 24 20 18 15 13 13 13 12 13 9 10 4 6 5 5 5 4 1 3 4 3 4 7 4
11 13 9 9 7 6 8 10 12 24 15 27 29 28 24 24 20 23 21 26 32 33 33 33 30 25 26 21 16 16 15 16 15 9 7 6 6 8 8 8 7 5 3 2 6 4 6 6 7
18 12 16 11 11 19 29 22 17 23 26 26 25 26 24 20 23 27 24 24 32 34 35 38 34 29 26 24 15 16 16 19 20 12 8 3 7 7 7 10 8 8 7 3 3 3 4 6 9
15 15 14 13 18 10 16 6 11 25 29 28 27 26 24 22 25 26 24 28 31 32 35 40 38 34 26 24 19 16 16 15 22 20 15 9 7 8 6 6 9 9 2 8 4 5 4 3 8
18 11 14 18 18 11 10 6 11 27 27 26 27 25 23 24 30 28 29 25 31 27 36 43 39 34 29 21 14 14 7 13 19 19 17 14 9 7 7 6 8 6 4 5 4 3 7 4 5
17 16 15 22 20 19 15 8 18 25 31 27 25 23 25 26 31 31 34 30 27 28 41 45 38 35 29 24 16 15 11 7 7 16 17 12 13 8 7 7 10 8 5 7 5 1 5 7 7
10 12 9 13 15 9 7 8 18 21 23 20 23 24 23 26 28 36 37 36 36 33 42 41 37 38 31 29 22 18 14 9 7 18 16 9 14 11 8 6 7 7 4 6 5 3 3 7 4
10 7 11 12 16 12 7 8 27 25 29 27 15 21 21 23 27 39 40 40 38 34 46 43 39 38 34 28 24 21 18 13 11 7 18 13 12 14 11 6 9 4 4 6 6 6 5 7 10
11 17 11 12 15 11 15 10 26 24 24 22 15 17 22 21 23 37 42 40 41 32 43 43 38 38 34 32 27 22 23 19 16 14 12 17 17 14 12 8 8 6 7 5 4 5 5 6 7
18 21 17 15 17 10 16 14 16 25 30 26 24 12 17 20 18 24 29 37 39 39 41 43 37 39 37 35 33 29 25 22 19 17 12 17 18 14 12 11 8 8 10 7 6 6 3 2 6
22 18 17 14 13 17 16 18 9 24 24 22 26 24 24 25 23 21 23 26 31 36 40 43 42 38 39 36 32 28 23 22 23 23 20 23 20 17 14 13 12 11 10 11 8 9 7 7 8
19 18 21 20 14 7 11 6 10 16 22 28 29 26 30 25 25 21 22 26 29 36 41 43 42 39 37 36 32 30 26 22 22 28 24 22 21 18 16 17 14 12 12 11 9 10 8 8 9
15 17 21 22 15 8 11 11 12 12 20 27 25 29 32 28 25 24 24 33 36 35 38 42 45 41 37 38 36 34 30 27 23 23 27 25 24 22 21 20 15 15 13 13 11 12 10 9 7
16 10 10 16 14 13 14 9 9 15 18 16 27 31 27 28 26 26 37 37 36 36 37 38 41 40 39 40 36 37 32 30 23 26 27 27 27 26 24 22 21 19 18 17 14 13 13 11 9
18 12 7 9 13 13 8 7 8 6 16 14 22 26 27 29 26 24 25 25 32 36 39 39 41 37 40 43 44 36 37 34 33 27 29 29 26 30 27 24 24 23 19 18 17 17 16 16 13
22 21 6 8 8 10 7 15 9 11 7 10 13 21 26 29 24 27 28 30 35 38 41 39 40 40 43 43 44 43 34 35 34 30 29 30 28 28 29 29 27 26 23 22 19 18 16 15 17
17 19 11 3 7 3 4 8 12 20 15 14 9 12 28 26 28 29 28 33 38 37 41 44 41 41 41 40 38 40 42 34 38 40 29 26 28 29 29 29 33 30 28 24 24 22 21 19 17
20 11 12 9 9 9 11 14 16 16 21 17 12 10 27 27 28 27 27 30 39 40 42 44 42 42 42 41 37 40 47 47 34 37 38 28 28 30 23 33 35 36 33 27 28 25 24 22 22
11 12 15 5 6 6 4 8 18 22 23 21 16 11 19 25 26 26 26 34 41 43 39 42 41 40 38 40 41 38 36 36 37 33 37 37 31 25 31 24 33 39 37 32 30 29 27 25 24
18 19 13 11 13 7 6 11 9 8 27 23 18 11 13 23 22 27 27 29 34 38 37 40 41 41 43 41 37 35 32 32 35 36 35 38 35 36 26 28 26 34 36 34 31 30 30 29 28

GFSSGP_925_spd_045.txt.gz
Wind_Speed
16 16 13 3 2 2 3 3 2 7 4 6 20 4 6 4 2 3 17 21 27 28 25 23 22 21 21 22 21 21 20 20 21 19 18 18 19 19 18 16 15 14 13 13 13 13 12 12 12
18 16 4 1 2 2 3 1 6 9 3 8 12 9 4 3 4 11 14 31 30 31 26 24 23 21 21 21 21 20 18 20 19 19 18 18 17 17 16 15 14 12 11 11 12 13 12 13 14
20 7 1 1 2 2 2 3 6 3 2 7 5 6 4 5 11 18 24 34 33 30 27 24 23 21 20 19 19 18 18 17 18 18 18 16 17 16 15 15 13 11 9 9 11 11 11 11 14
11 3 1 2 3 4 4 6 12 10 5 6 10 8 5 2 20 14 36 35 33 30 27 24 22 20 20 18 18 17 17 17 18 16 17 16 16 16 15 14 14 12 10 9 9 10 10 12 13
4 2 2 1 3 3 1 9 8 8 8 9 4 4 6 7 16 33 34 34 34 29 27 24 22 20 19 17 17 16 16 16 16 16 15 16 15 15 15 15 14 12 11 10 10 11 11 12 12
1 1 1 1 3 6 3 2 5 4 5 7 9 9 4 17 30 28 31 33 32 30 27 25 21 20 18 16 16 16 16 15 15 16 15 14 13 13 14 14 13 12 12 12 13 13 11 13 12
3 2 3 1 5 2 5 9 7 4 7 5 13 5 4 16 28 27 31 33 30 29 27 25 21 18 17 15 15 15 15 14 14 14 15 13 13 12 12 12 11 11 11 11 13 13 13 12 9
3 2 3 2 3 4 1 4 4 7 2 6 12 6 9 21 29 28 29 30 28 28 27 25 22 20 19 16 14 14 14 14 13 13 14 12 12 10 12 12 11 10 10 10 11 13 10 11 9
4 2 3 5 6 2 4 4 6 3 8 4 4 7 18 37 31 28 27 25 26 26 27 25 23 21 19 17 14 13 14 13 13 12 12 13 12 12 10 9 10 9 8 8 8 11 9 10 11
3 2 5 6 8 1 2 8 11 6 12 4 11 21 32 34 30 25 25 24 23 22 27 25 23 21 19 17 15 15 14 14 13 13 12 11 10 9 9 8 7 7 7 8 7 7 8 9 11
5 4 3 2 9 3 5 12 9 12 3 5 22 26 28 30 26 23 23 25 25 25 27 27 24 22 20 19 17 16 15 14 12 11 10 10 9 8 7 7 7 5 5 5 6 7 6 7 10
3 9 10 3 9 5 7 9 6 10 6 13 23 31 29 24 20 24 23 24 25 28 30 28 25 23 20 18 18 17 16 14 12 11 12 12 10 8 6 6 6 4 4 5 5 7 6 5 9
12 11 8 15 15 10 4 12 6 12 10 21 21 24 26 22 23 24 24 24 27 27 30 30 27 24 22 20 19 18 17 14 12 11 10 12 10 9 7 6 5 4 3 4 4 6 6 5 4
6 14 17 15 12 6 8 5 7 6 18 22 22 24 22 23 26 24 26 27 28 29 32 31 29 26 23 22 21 20 18 15 13 11 9 9 10 9 6 6 4 5 3 4 3 5 6 8 4
11 9 9 14 10 2 9 3 4 17 18 23 21 19 19 19 26 25 30 30 32 32 34 33 30 27 26 24 22 20 17 15 13 12 11 11 12 10 7 6 6 6 4 2 3 3 8 6 9
5 5 3 9 7 6 7 3 13 17 21 21 21 19 20 20 23 24 26 30 33 33 34 35 32 30 28 25 22 20 17 17 18 17 15 14 13 11 9 6 6 6 4 2 3 2 4 10 9
3 4 7 8 10 4 8 4 14 18 19 19 20 20 19 17 21 26 25 30 33 34 36 37 35 33 32 27 23 19 17 16 16 20 20 17 14 10 8 7 8 6 3 2 3 2 2 3 3
6 4 4 6 4 11 11 6 18 19 19 21 19 19 20 20 22 27 30 27 31 35 37 38 37 34 33 29 24 20 18 12 15 18 21 19 16 14 10 6 6 7 5 5 5 4 5 7 4
4 4 6 6 6 8 15 9 20 22 16 18 19 18 20 20 20 28 29 29 30 34 36 38 39 37 36 34 29 27 23 17 13 15 20 20 18 16 12 8 10 8 6 4 6 4 5 5 8
8 5 6 10 5 6 6 17 18 22 26 25 25 22 22 19 18 25 30 32 29 35 38 39 42 42 40 38 36 33 29 22 16 13 17 21 19 17 14 11 11 10 8 7 8 6 6 4 7
13 13 9 9 5 3 4 7 14 19 6 12 16 18 19 23 22 22 28 34 33 35 39 39 43 43 45 42 38 30 28 25 20 17 16 19 20 18 16 13 13 12 11 8 8 8 8 6 6
12 12 14 14 3 4 5 4 11 16 22 20 20 21 21 22 21 20 25 32 35 33 39 42 42 41 45 43 40 35 30 26 30 25 19 17 19 22 20 16 14 13 12 11 9 9 8 7 10
14 6 9 8 3 3 9 3 7 15 19 22 23 24 24 24 24 23 24 37 39 34 36 42 43 41 40 45 40 41 32 32 27 30 23 19 20 23 23 19 15 16 13 12 10 10 11 9 12
4 4 3 1 3 10 17 8 5 13 25 22 22 24 25 25 26 25 34 33 35 36 35 37 40 42 42 44 44 41 37 35 32 28 27 23 23 25 26 23 20 17 16 14 14 11 13 10 10
11 7 4 4 5 13 7 7 13 22 25 28 28 29 26 23 22 21 24 26 33 37 37 38 40 40 42 45 44 45 43 38 34 31 30 29 27 28 29 27 25 21 19 16 15 16 15 14 13
12 15 6 8 4 8 6 8 6 14 18 26 25 29 22 22 22 23 22 31 35 38 37 40 40 41 41 44 46 47 44 41 36 35 33 30 29 31 30 30 28 24 21 18 18 17 16 16 17
8 19 12 5 3 2 4 5 6 7 13 17 21 22 20 18 19 20 22 32 35 39 41 43 41 42 42 45 44 42 43 41 39 36 35 35 31 29 31 30 30 27 24 22 21 21 21 19 18
15 8 7 4 10 5 4 5 7 12 12 14 19 21 21 22 20 18 20 28 34 40 43 41 43 44 45 44 43 41 44 46 43 39 36 37 32 31 29 30 30 31 28 25 25 24 24 23 20
8 11 4 6 5 13 2 8 8 9 14 19 19 23 22 23 24 23 23 33 37 34 38 41 40 40 39 40 39 39 40 41 38 38 38 37 36 33 29 29 28 29 31 30 29 29 28 28 26
9 11 8 10 13 1 3 16 5 11 13 14 16 19 19 23 25 24 25 31 34 33 34 38 38 38 40 41 40 39 38 39 39 41 40 38 38 35 33 30 30 30 30 33 32 33 32 31 31

GFSSGP_925_spd_048.txt.gz
Wind_Speed
15 15 13 3 1 1 2 3 1 3 2 1 10 3 4 4 2 3 15 20 30 26 23 23 20 21 20 21 20 19 19 18 17 17 16 16 16 16 15 14 13 12 12 11 10 10 11 12 11
19 15 5 2 1 2 1 1 3 5 3 10 9 7 5 3 3 10 12 28 33 27 24 23 21 22 20 20 19 18 18 16 17 15 17 16 15 16 14 12 12 11 12 11 11 11 12 12 13
19 9 2 1 1 2 1 2 5 3 6 11 5 8 3 3 9 17 18 33 33 28 25 23 21 21 20 20 18 19 17 17 17 15 15 15 15 15 13 12 10 11 12 11 11 11 11 12 12
9 3 2 2 3 2 3 4 5 3 2 4 8 8 3 3 14 12 34 35 34 27 26 23 21 19 19 17 19 16 17 16 15 15 15 15 15 14 13 11 10 11 11 11 10 11 11 11 10
2 2 2 2 1 1 5 4 7 5 5 5 4 5 5 5 9 31 29 34 34 28 25 23 20 20 18 16 17 16 16 15 15 16 16 15 15 14 13 13 12 12 12 11 11 11 11 10 10
1 1 0 1 2 2 2 1 3 5 6 4 7 8 3 15 28 24 28 32 32 29 24 22 19 18 17 16 16 16 15 15 15 15 16 16 14 14 12 11 12 11 13 12 12 13 11 11 9
2 2 2 1 1 4 2 3 1 2 6 4 14 4 4 17 27 27 30 32 30 27 25 22 20 17 16 15 15 15 14 14 15 15 15 15 13 13 11 10 11 12 12 12 13 13 11 10 9
2 2 1 2 1 4 4 4 3 5 4 12 12 7 9 16 26 29 29 30 28 26 26 22 20 18 16 15 14 14 14 13 13 14 13 13 11 10 11 10 10 10 13 13 13 11 10 7 8
2 1 3 5 1 6 9 8 3 1 10 5 7 7 17 30 29 27 26 25 27 26 25 22 21 19 18 16 15 14 13 13 12 12 12 13 12 11 10 9 7 10 11 10 10 12 9 7 9
3 2 5 4 6 5 6 11 11 6 10 3 7 19 31 29 29 28 26 24 23 25 26 23 21 20 19 17 16 15 14 13 12 12 11 11 10 8 7 8 6 6 8 10 10 9 10 8 8
5 4 3 5 7 6 7 6 7 8 8 7 17 24 26 29 27 27 25 25 25 25 24 25 22 21 20 18 16 16 15 13 12 12 11 10 8 6 6 7 6 3 5 7 8 8 7 8 7
4 8 6 4 7 3 3 6 4 10 3 14 23 29 27 24 23 28 27 26 25 25 24 28 24 22 20 17 17 16 16 14 12 10 9 10 8 6 5 5 4 4 6 6 7 7 6 7 8
9 7 5 9 9 7 4 7 5 10 9 16 21 23 25 21 24 26 25 24 27 24 27 30 26 24 21 18 17 17 15 14 12 11 11 9 8 6 6 6 5 4 4 6 7 6 4 5 7
5 12 13 9 9 5 6 4 8 5 17 19 24 24 20 19 24 23 23 24 27 28 31 31 28 25 22 20 18 17 15 13 11 10 9 11 9 7 6 5 4 4 4 5 5 5 4 4 4
3 5 5 7 4 6 8 4 4 15 17 22 21 21 19 18 24 24 27 26 29 31 32 32 30 26 24 21 19 18 16 14 12 10 9 9 9 8 5 4 4 6 6 5 6 8 6 4 6
4 3 1 4 6 6 7 3 5 16 19 21 22 19 18 19 24 24 27 27 31 30 32 32 31 28 25 23 21 19 17 14 12 11 11 9 9 9 7 6 5 6 6 6 5 7 6 6 4
4 4 7 3 7 3 6 1 9 14 15 17 19 20 18 17 19 24 27 30 34 35 33 33 32 30 27 25 22 19 16 15 14 14 14 12 11 10 8 7 7 5 4 5 6 5 6 7 5
7 4 4 5 3 7 6 1 13 16 17 18 18 18 19 19 21 26 27 28 32 35 34 34 34 31 29 26 22 19 16 16 16 14 16 16 14 12 9 7 9 7 4 2 2 3 4 6 6
4 5 6 4 6 5 8 7 16 16 13 17 18 18 20 21 22 26 26 29 30 33 35 35 36 34 30 30 26 22 20 16 13 15 14 17 15 14 12 9 8 8 5 4 5 2 3 7 8
7 3 4 5 2 4 5 10 12 18 22 23 22 19 20 18 18 23 27 27 30 33 37 38 38 37 33 33 29 25 24 20 14 13 15 18 17 15 14 11 10 9 7 5 6 3 2 5 8
12 8 5 1 4 2 4 5 6 13 10 14 14 16 16 20 20 19 24 30 29 32 36 39 39 39 36 34 30 23 22 20 18 15 15 18 18 16 16 14 10 10 8 7 6 6 6 5 6
9 14 14 5 1 3 2 5 6 8 17 19 15 19 18 20 19 18 24 29 31 32 35 39 41 40 39 37 34 31 27 23 26 23 17 16 18 19 17 16 12 10 9 8 7 6 6 6 9
12 8 11 11 5 1 5 1 7 10 11 16 19 19 20 20 21 21 24 33 33 29 33 38 40 41 41 40 38 36 33 27 25 25 21 18 17 18 19 17 13 11 11 10 8 8 8 9 11
4 1 3 3 4 8 11 10 6 7 12 18 16 18 19 19 21 20 26 28 31 32 33 36 40 42 42 42 42 41 37 34 28 24 26 24 21 19 19 19 17 14 13 11 9 9 8 10 9
10 10 2 3 5 12 8 12 9 8 9 14 23 24 24 21 20 21 20 25 30 33 31 34 39 39 43 43 42 44 43 41 38 35 33 29 26 24 22 22 21 19 15 14 12 11 10 12 11
14 11 6 8 4 14 6 7 6 20 8 17 18 24 19 17 18 20 20 27 33 34 35 35 36 37 41 44 44 44 44 42 41 37 33 33 31 28 23 22 23 22 19 16 14 14 14 14 15
6 14 11 4 1 1 9 4 8 3 13 10 16 15 17 20 20 22 22 31 32 35 39 40 38 39 40 43 44 42 42 42 40 40 34 32 29 28 25 23 23 24 22 19 18 17 17 17 16
11 9 9 3 6 5 4 6 8 8 9 10 8 13 15 20 19 20 21 30 36 39 37 38 41 41 42 44 42 42 42 45 43 41 37 33 31 27 25 23 25 26 25 24 22 22 20 20 21
6 11 4 7 7 6 1 6 8 11 14 14 14 14 16 18 20 21 23 35 37 34 37 37 39 39 38 38 39 36 38 40 40 41 40 36 32 31 28 26 23 26 27 27 27 25 23 23 23
3 4 5 9 12 4 4 6 4 10 11 10 15 14 18 19 21 22 23 27 31 37 38 39 37 37 40 41 40 41 40 38 38 40 42 38 35 31 32 28 26 27 28 28 27 29 27 26 26

GFSSGP_925_spd_051.txt.gz
Wind_Speed
16 15 11 3 2 1 3 1 1 5 5 3 13 4 8 6 2 3 20 19 25 22 20 17 19 18 18 18 17 17 17 16 15 14 13 13 12 11 10 10 9 10 10 10 9 11 11 11 12
16 15 3 1 2 3 2 2 3 4 6 15 11 10 5 4 4 10 17 25 26 23 20 18 20 17 18 18 18 17 16 15 15 13 14 12 12 11 10 10 10 10 10 10 10 11 11 12 12
16 9 2 2 2 3 3 3 1 5 13 14 5 7 4 4 7 25 20 28 25 21 20 19 19 19 16 17 18 16 16 15 14 14 13 12 13 12 10 11 10 10 9 11 10 11 11 11 11
9 4 2 3 5 3 1 4 5 6 9 8 9 8 5 2 20 13 29 29 26 22 21 21 19 18 17 16 18 16 16 15 14 14 14 14 13 12 11 10 10 10 9 9 10 10 12 10 9
4 2 2 2 3 2 5 3 3 9 10 8 4 6 4 5 9 26 29 27 26 24 21 19 19 17 17 17 16 16 15 14 15 15 16 15 15 13 12 12 11 10 9 9 10 11 10 11 10
3 1 2 2 3 3 5 5 1 8 6 8 7 8 3 10 23 29 29 26 24 24 22 19 19 18 16 16 16 15 15 14 15 16 17 16 14 13 12 12 11 10 9 9 11 12 10 11 10
2 1 2 1 2 3 4 6 4 7 9 6 13 6 6 15 25 27 28 25 23 22 21 19 17 16 15 15 16 14 15 15 15 16 15 14 14 13 12 11 11 11 11 10 11 12 11 11 10
2 1 3 3 3 3 5 7 6 5 4 14 9 6 8 19 24 27 27 25 23 22 20 19 16 16 15 14 14 13 14 14 15 15 14 13 13 13 13 12 11 11 10 10 10 11 10 10 10
2 2 3 4 3 2 4 5 4 7 12 4 8 7 21 32 27 27 27 24 22 21 19 19 16 16 15 15 14 13 13 14 14 13 13 13 11 11 11 12 10 9 10 10 10 10 10 11 11
4 3 3 4 7 4 6 5 7 5 12 5 8 16 31 32 30 30 28 26 24 23 20 19 18 17 15 14 14 13 12 12 11 10 13 11 10 10 9 8 9 9 8 8 9 9 8 10 9
5 4 2 6 6 6 1 6 7 6 10 9 18 24 28 32 31 28 27 25 26 24 21 20 18 17 15 14 14 12 11 10 11 12 12 11 9 7 6 6 7 6 6 5 6 6 5 6 6
4 10 5 1 6 3 5 3 4 11 1 12 21 27 30 28 29 30 28 26 25 24 22 21 18 17 15 14 14 12 11 10 10 12 11 10 8 7 5 5 5 6 5 5 6 5 5 5 5
14 5 5 6 7 8 8 9 6 11 3 14 21 27 27 25 30 29 27 25 24 24 23 21 19 18 16 15 13 12 11 10 9 10 10 9 8 6 6 4 4 5 5 5 5 5 5 3 4
5 13 10 8 8 8 9 8 8 4 13 18 23 27 27 27 31 29 28 28 27 24 23 22 21 19 18 15 15 13 11 9 8 8 9 8 7 6 5 4 4 5 6 5 4 3 4 3 3
7 5 8 9 9 7 4 4 9 14 16 20 22 24 25 25 32 30 30 29 29 26 23 24 21 19 19 17 16 13 11 9 8 7 6 7 7 6 5 4 5 6 8 6 5 4 4 5 6
5 5 5 4 10 6 8 1 6 16 18 19 22 23 24 24 30 29 28 27 27 24 24 24 21 20 20 18 18 14 12 10 8 6 6 5 5 6 5 5 6 8 8 8 6 6 6 6 6
5 8 13 4 8 5 12 1 7 14 15 18 20 23 23 23 26 28 28 28 27 26 25 25 23 21 21 20 17 16 14 12 10 8 7 7 5 4 5 5 7 8 8 7 6 5 6 5 5
12 13 7 13 8 11 13 6 11 15 15 18 20 22 22 23 25 30 29 27 25 25 24 24 24 22 22 18 18 15 14 13 11 10 11 10 8 7 6 6 7 7 6 5 5 7 7 4 5
5 6 12 10 7 10 13 10 13 16 15 16 19 22 23 24 27 29 28 28 26 25 24 25 25 25 22 19 18 15 15 12 10 11 11 12 11 9 8 5 6 7 8 8 7 7 6 7 8
17 7 12 10 2 9 9 14 11 18 21 22 22 23 24 23 23 28 30 30 31 29 28 25 27 26 28 22 20 14 15 11 8 10 12 13 13 10 10 8 7 6 5 5 6 6 6 6 8
19 19 11 6 5 10 7 13 12 14 14 16 18 18 20 23 25 24 31 33 32 32 30 28 28 29 30 24 21 18 14 11 10 8 11 14 15 13 11 9 7 7 7 5 6 5 4 5 4
19 17 18 12 5 11 10 13 14 14 19 20 20 21 21 23 24 24 31 34 35 33 30 30 31 29 29 31 23 23 20 18 16 13 11 13 16 15 13 12 11 9 8 7 6 6 5 6 5
15 8 18 19 14 11 12 8 16 10 15 20 23 23 23 24 25 27 30 35 34 32 32 31 31 35 31 31 28 27 23 20 15 15 16 15 16 17 16 14 13 11 9 8 8 7 8 7 6
9 4 13 14 14 16 21 13 16 12 18 18 20 22 23 24 25 25 33 33 34 32 32 31 32 36 37 34 35 33 27 22 19 18 18 17 15 16 17 16 16 13 9 9 9 8 8 8 8
20 15 6 7 10 19 19 16 17 13 13 15 20 23 26 25 25 25 25 31 33 35 34 33 33 35 37 35 37 36 33 31 28 25 22 21 18 17 18 18 17 15 13 11 10 9 9 9 9
22 19 9 12 12 16 16 13 14 24 21 12 15 20 19 23 22 24 24 32 33 36 35 35 35 35 37 39 37 39 39 30 29 27 24 22 21 20 19 21 19 18 16 13 12 10 10 10 10
15 22 21 13 3 10 15 19 11 13 16 21 18 14 18 21 24 26 27 34 34 36 39 38 36 36 36 36 36 36 38 36 29 30 29 24 23 19 20 23 21 20 19 18 14 12 12 12 11
19 12 18 13 19 14 8 19 14 21 15 17 18 17 18 20 22 22 24 34 37 39 39 37 38 38 38 37 37 35 35 36 36 31 32 29 24 22 18 23 22 19 19 19 18 14 14 13 12
14 13 14 18 16 14 15 8 13 19 20 19 16 20 19 20 22 23 24 35 38 37 38 40 39 37 37 37 38 36 34 31 30 29 32 32 31 26 24 25 24 22 20 19 20 19 16 15 14
9 13 25 13 22 19 11 11 5 13 19 22 23 18 20 21 22 23 24 29 32 36 38 41 40 40 39 38 37 37 35 34 31 34 31 32 33 30 27 28 27 24 21 19 19 18 18 18 17

GFSSGP_925_spd_054.txt.gz
Wind_Speed
15 12 8 5 3 5 3 4 2 9 10 7 14 6 8 12 8 8 29 21 25 24 19 18 18 18 17 15 14 12 13 13 13 12 10 10 10 9 9 10 11 11 12 10 11 10 9 13 12
15 11 2 2 4 4 4 6 4 5 9 15 11 11 7 9 11 19 23 26 26 24 20 19 17 18 17 16 15 14 13 12 12 12 11 10 11 9 10 10 10 11 11 11 12 11 11 12 12
15 10 2 2 3 4 3 7 6 10 14 14 6 7 4 5 13 29 27 29 26 23 21 19 18 18 17 16 15 14 13 13 13 13 11 11 11 11 11 10 10 10 12 11 11 11 11 12 13
11 5 1 4 8 2 2 9 7 14 15 6 13 10 8 4 24 20 31 29 26 23 21 18 20 16 17 16 15 14 13 13 13 13 11 12 11 11 10 10 10 10 10 11 10 11 11 10 10
7 4 4 5 6 3 7 5 5 12 12 7 5 9 5 11 13 31 30 27 26 24 22 18 19 17 16 16 15 14 13 13 14 13 13 13 13 11 11 11 10 9 10 10 10 10 12 11 10
4 3 5 3 2 4 9 5 2 8 6 6 7 10 6 12 23 32 29 26 24 23 22 19 16 16 16 16 15 15 13 14 15 15 13 14 14 13 12 11 11 10 10 11 10 11 12 12 12
9 5 3 3 2 6 12 9 6 11 9 11 10 6 9 20 30 31 28 25 24 23 22 19 16 14 14 15 14 15 14 15 16 15 14 14 15 13 12 11 10 10 10 10 10 11 11 12 11
5 4 4 4 3 7 8 6 5 8 7 7 7 7 12 26 30 30 27 25 23 22 21 20 17 15 14 14 13 15 14 15 15 15 13 14 15 13 14 13 11 9 10 10 10 10 10 12 13
6 5 4 1 7 7 10 7 11 10 10 6 9 7 26 35 31 31 27 25 23 21 21 19 18 16 14 14 11 12 13 14 14 13 14 12 12 12 12 12 10 9 9 9 10 9 11 13 12
6 5 3 2 8 9 8 11 10 8 12 9 8 13 36 36 30 32 29 27 25 23 22 20 18 16 15 15 13 12 12 13 12 11 10 10 11 9 10 8 8 9 9 9 9 9 11 9 11
9 5 3 4 4 6 5 5 8 5 9 11 15 25 30 35 32 30 29 27 27 24 22 19 18 16 15 14 14 13 12 12 11 10 9 9 10 9 7 7 7 7 7 7 8 7 6 6 7
9 11 7 7 9 7 8 4 6 5 6 10 18 25 29 29 29 31 29 28 27 25 22 20 18 16 14 14 14 13 12 12 11 10 9 8 8 8 6 5 5 6 6 6 6 6 6 5 4
16 9 9 6 7 4 3 5 2 6 6 14 21 25 28 26 30 30 29 27 26 25 23 21 19 17 15 14 13 13 11 12 10 10 8 7 6 6 7 5 4 4 5 6 6 7 6 5 5
1 15 6 5 10 6 9 5 4 7 11 17 22 25 27 27 31 30 29 28 26 25 24 22 19 17 16 14 13 12 11 10 10 9 8 6 6 6 6 5 5 5 5 6 5 5 6 6 6
10 8 11 12 12 12 6 11 10 13 14 17 20 22 26 25 31 30 29 28 26 25 24 23 20 18 16 14 14 12 11 11 10 9 7 6 5 5 5 5 4 5 4 5 5 5 5 8 7
14 14 13 17 13 9 10 8 12 14 15 17 19 20 24 25 30 29 28 27 25 24 24 23 21 20 17 15 14 13 12 11 9 9 8 7 6 5 4 4 6 6 5 5 6 7 7 7 5
14 14 18 14 17 11 16 7 13 13 14 15 18 21 23 23 26 29 29 27 26 24 24 24 22 21 19 15 13 12 12 10 10 9 8 7 5 6 6 5 5 6 6 6 9 7 6 7 7
15 18 14 17 13 18 16 8 12 14 14 15 17 19 22 24 24 30 29 28 27 25 23 23 22 21 19 16 14 13 13 11 10 9 7 6 6 6 6 6 6 5 7 7 6 6 3 5 5
10 13 19 13 6 14 16 15 13 13 14 15 17 20 22 24 28 30 30 29 27 26 25 24 24 22 21 19 19 17 15 13 11 9 9 8 7 6 6 5 7 6 6 4 6 6 5 6 6
14 10 14 8 5 11 16 16 14 15 15 16 17 19 22 22 24 29 31 31 30 29 28 26 25 23 22 21 19 17 16 13 11 10 10 10 9 8 7 6 8 8 7 6 6 6 7 6 8
19 19 14 13 4 14 15 18 17 16 14 15 16 18 20 23 25 24 30 33 32 31 31 29 28 26 24 21 19 15 14 10 11 11 11 11 11 10 8 7 5 8 7 9 9 8 7 10 7
19 18 15 15 11 14 19 14 22 18 19 18 19 20 21 23 24 25 30 33 35 34 31 30 29 28 26 24 23 22 21 18 16 14 12 11 12 12 10 9 8 7 5 4 7 6 7 6 9
16 14 16 17 16 15 14 13 13 23 19 19 20 21 21 23 25 26 30 35 35 34 34 32 30 28 28 28 25 25 22 19 16 15 12 11 11 12 12 10 7 6 6 7 5 5 6 7 5
9 14 14 15 16 18 23 18 19 18 20 21 21 21 21 23 24 24 33 34 34 34 34 34 33 31 30 30 29 26 24 21 19 18 16 15 14 13 13 12 10 8 7 7 8 7 6 7 6
16 16 10 12 15 22 22 21 19 16 18 20 20 21 22 23 23 24 25 31 35 37 37 36 34 33 33 31 30 30 28 25 21 19 20 16 15 14 14 14 12 11 10 8 8 8 7 7 7
23 19 13 21 14 19 24 27 23 25 17 15 15 19 20 21 22 24 26 33 36 38 39 38 37 35 35 34 32 31 30 28 26 22 19 19 17 15 13 14 15 14 12 11 9 9 9 8 8
21 23 24 23 17 13 18 22 21 19 26 21 15 15 18 20 22 25 26 35 37 39 41 40 37 38 37 37 33 32 31 31 28 25 22 21 18 16 15 16 17 16 15 14 12 11 10 9 9
21 16 21 17 23 24 15 20 19 20 21 24 25 20 16 19 20 21 23 33 37 39 40 41 40 40 40 38 35 34 33 32 31 26 25 22 21 19 17 18 19 18 17 17 15 13 12 11 11
17 21 19 19 20 19 19 15 14 21 25 21 23 24 22 18 19 20 23 34 38 36 38 42 40 39 39 40 38 35 35 33 30 29 27 25 22 21 20 19 18 19 18 18 17 16 14 13 13
13 15 29 15 26 22 18 11 9 9 17 23 20 20 21 21 19 20 21 27 32 36 37 41 42 41 40 40 38 38 36 34 32 30 29 25 24 24 23 21 19 21 21 19 20 19 18 17 16

GFSSGP_925_spd_057.txt.gz
Wind_Speed
14 12 12 6 2 7 5 2 7 9 12 11 10 10 16 16 5 11 29 20 23 23 18 16 17 14 12 10 10 10 11 12 12 11 10 10 10 10 10 11 11 12 11 13 12 11 11 11 11
13 5 3 2 4 8 3 5 7 6 14 16 9 12 11 17 14 23 26 23 26 24 21 17 17 15 13 12 10 11 11 11 11 10 10 11 10 10 10 9 10 12 13 13 13 13 13 13 13
12 11 2 3 6 4 1 7 9 11 17 13 10 11 9 9 23 29 28 30 26 23 22 18 18 16 14 13 13 13 12 11 11 11 11 11 11 11 10 10 11 12 12 13 13 13 13 13 12
13 7 2 4 10 4 5 6 10 13 16 10 11 14 10 12 26 29 32 28 26 24 21 19 17 16 14 14 13 13 12 12 12 11 12 11 11 10 10 10 10 10 11 13 13 12 11 10 12
4 3 4 6 7 3 9 7 4 12 11 11 11 10 13 13 22 31 30 27 24 26 20 19 17 17 14 14 13 13 12 12 13 12 12 11 10 11 11 10 10 9 10 12 12 12 11 9 10
3 6 8 5 4 6 11 5 4 8 9 5 19 16 9 12 27 30 28 26 24 23 22 18 17 16 15 14 14 12 13 13 13 13 14 13 12 11 11 10 10 10 10 11 12 13 12 12 11
12 5 11 1 2 7 10 7 3 13 11 7 12 11 11 17 29 29 27 25 24 24 22 19 16 15 15 14 14 13 13 13 14 14 14 13 12 11 11 11 11 10 10 11 11 11 11 12 12
9 5 11 5 4 15 16 13 10 9 7 8 15 6 13 21 31 29 26 25 24 24 21 19 17 15 15 13 14 14 13 13 13 14 14 13 12 14 13 14 12 10 10 10 10 10 10 12 12
10 6 2 3 4 8 13 7 6 3 7 7 7 11 26 35 34 30 27 25 23 23 21 20 20 16 15 13 13 14 14 14 14 12 13 16 11 11 11 11 10 9 10 9 8 10 13 15 15
8 8 5 12 9 8 14 16 15 10 11 10 9 25 33 38 34 30 28 26 24 24 22 21 18 17 16 16 14 13 12 12 13 13 6 8 11 9 10 9 10 10 11 10 10 11 10 14 10
12 12 12 8 7 11 5 6 12 10 12 15 15 24 28 34 34 31 29 27 24 24 20 21 18 16 16 19 15 13 15 13 12 9 6 10 7 8 8 7 8 8 9 10 8 4 7 2 4
14 11 5 4 11 11 7 13 9 10 2 14 21 25 28 28 26 29 28 28 25 24 20 22 19 16 15 14 16 13 15 14 10 10 6 8 8 6 8 6 10 5 13 8 4 8 6 10 9
16 11 3 9 10 10 12 4 3 19 11 19 24 24 27 24 28 29 27 27 25 23 22 21 19 17 10 13 10 14 11 11 13 10 8 8 6 5 3 2 3 7 5 7 8 7 7 3 7
6 15 5 8 12 11 14 9 12 12 16 21 24 25 26 26 28 28 26 27 26 23 23 21 19 17 14 12 7 10 9 9 10 11 9 5 1 6 5 2 3 1 4 7 5 6 6 5 7
16 10 15 19 12 12 10 15 13 12 19 21 22 23 25 25 30 28 28 27 26 23 23 23 20 19 16 11 11 12 12 11 9 11 9 7 2 3 4 5 4 5 2 5 6 4 4 6 10
16 16 15 18 14 16 13 9 17 19 20 21 22 21 23 25 28 29 28 27 26 24 24 23 21 20 18 15 14 12 12 14 12 9 9 7 4 3 2 6 5 7 5 9 8 5 4 4 8
15 14 20 12 20 14 14 3 16 20 19 19 20 21 22 23 25 29 29 28 26 24 24 23 21 21 19 15 15 12 12 10 10 11 11 10 6 5 4 0 5 5 3 4 5 7 2 5 4
17 18 17 15 22 20 15 13 22 19 19 18 19 21 23 24 25 30 29 29 26 25 25 23 22 21 19 17 14 14 14 10 10 12 13 11 9 6 5 5 3 3 2 8 5 3 3 2 4
20 14 19 18 15 15 15 13 30 17 17 19 19 20 23 24 26 31 31 30 28 27 26 25 23 22 21 19 18 16 17 14 14 12 8 8 9 7 6 9 5 5 7 3 8 5 1 2 4
19 14 16 18 15 12 9 16 11 20 16 19 19 21 22 23 25 28 31 31 30 29 28 27 25 22 23 20 19 16 15 15 12 11 11 9 9 9 8 7 7 6 3 5 5 5 8 4 4
18 18 16 14 14 15 10 12 17 16 18 18 18 19 22 25 26 25 30 32 32 32 31 29 28 25 24 21 19 15 14 11 12 13 11 12 11 10 8 7 6 7 4 9 7 5 10 3 7
18 17 18 17 16 12 19 12 17 14 20 20 19 20 22 24 24 24 28 33 35 34 32 30 29 27 26 24 22 20 18 17 16 14 15 16 13 11 10 9 7 9 6 7 8 9 11 8 9
17 16 16 17 18 16 19 18 17 21 16 23 22 22 22 24 26 27 29 36 36 35 34 32 31 29 27 28 23 24 21 19 17 16 16 11 15 13 12 11 9 8 7 6 5 4 8 7 10
16 17 15 14 15 18 24 18 21 15 16 24 24 24 23 24 25 26 35 34 35 36 35 34 33 32 30 30 30 24 25 21 19 17 16 15 15 14 13 12 11 10 8 8 8 6 6 8 6
17 16 13 14 14 19 24 24 18 23 27 14 23 25 25 24 24 24 26 32 36 37 37 35 34 34 34 31 30 26 25 27 16 17 17 17 17 17 20 15 12 11 10 9 8 8 5 7 7
24 22 15 22 15 20 24 26 23 25 16 7 9 26 25 24 24 25 27 34 35 37 37 36 37 36 34 34 33 33 28 26 25 20 19 19 17 15 17 16 14 12 12 11 10 9 9 11 9
22 24 25 25 24 17 19 26 24 26 26 23 27 17 24 26 24 26 25 34 36 37 39 40 38 39 38 38 35 33 33 32 27 25 26 19 20 14 14 14 14 15 14 13 12 11 11 6 9
21 18 21 18 24 27 20 22 19 27 24 26 20 15 15 18 24 23 23 32 37 39 40 38 38 39 39 38 37 35 34 33 30 27 24 25 19 20 11 18 17 17 17 16 16 14 13 11 12
16 20 18 18 23 21 19 17 15 21 25 24 24 21 18 20 18 19 22 32 36 35 37 40 39 36 38 39 38 37 36 34 35 28 29 24 22 18 21 17 17 18 19 18 18 18 12 15 14
24 22 26 18 22 21 21 16 14 13 21 22 20 21 25 22 19 21 21 29 32 36 37 39 40 41 41 40 38 39 36 36 35 36 30 27 26 24 22 21 20 19 20 20 20 20 18 17 16

GFSSGP_925_spd_060.txt.gz
Wind_Speed
13 10 9 5 4 6 7 2 12 9 10 13 16 16 11 9 4 6 28 22 24 21 18 17 16 13 12 12 12 13 14 14 14 13 13 13 13 12 14 13 13 12 13 13 11 13 12 13 13
12 11 10 2 3 6 4 5 5 9 15 20 19 19 13 17 16 22 23 27 26 22 20 17 16 13 13 11 12 13 14 13 13 13 13 13 12 11 12 13 13 13 13 14 14 14 14 14 13
7 8 2 3 4 2 4 4 5 14 15 22 13 11 8 15 27 25 32 30 26 24 20 17 15 15 14 12 13 12 13 13 13 13 13 12 12 12 12 13 13 13 14 14 14 15 14 13 12
12 5 4 3 11 3 8 1 12 16 15 15 18 15 21 31 26 32 32 32 26 25 20 19 16 15 15 14 13 14 13 14 12 13 13 13 12 11 11 12 12 13 13 13 13 12 13 13 12
8 3 4 7 10 7 8 9 11 9 13 18 17 20 21 22 30 33 31 30 31 26 22 17 16 15 16 15 14 14 14 13 13 14 13 12 12 12 10 12 12 12 13 12 13 11 11 11 12
4 3 6 8 4 8 9 7 17 4 16 10 20 21 10 28 28 30 30 29 30 25 22 18 17 15 15 14 15 14 14 15 15 14 13 13 13 12 11 11 12 12 12 12 12 12 12 12 13
10 6 9 9 5 6 8 7 11 14 18 15 21 20 14 19 29 27 30 33 30 28 21 17 16 15 14 14 14 15 15 15 15 14 14 14 13 12 12 12 13 13 13 12 12 12 12 13 14
3 3 6 5 6 3 6 6 3 8 9 21 20 10 19 19 31 27 32 28 34 27 22 22 18 15 14 13 14 15 14 15 15 14 14 16 16 14 13 14 13 12 12 12 12 13 15 18 18
3 4 4 5 1 9 14 13 11 9 10 14 10 18 28 36 32 26 30 29 31 26 25 21 21 17 16 13 14 15 14 14 13 13 14 14 12 12 11 12 14 13 12 11 10 10 11 14 17
8 3 6 10 4 13 19 15 16 13 13 10 13 23 35 36 30 27 25 26 23 25 26 25 25 20 19 15 16 13 13 12 12 12 10 7 8 12 10 11 12 12 11 10 9 8 5 4 3
14 15 16 11 16 7 6 6 7 2 12 17 21 25 29 34 26 27 30 33 26 25 25 27 28 20 22 16 19 14 14 14 10 9 5 10 11 12 8 6 9 11 13 9 6 10 8 6 5
18 11 4 3 3 9 9 7 7 12 9 13 24 26 26 25 20 29 28 34 26 22 27 26 21 15 23 17 18 13 15 18 12 8 4 9 9 8 4 1 6 7 11 8 6 4 7 5 8
17 15 9 7 4 6 8 18 13 18 9 10 24 25 26 23 28 28 29 27 27 22 28 26 23 16 18 17 17 15 21 18 16 9 4 5 2 6 6 7 8 4 8 9 9 6 16 7 10
16 13 12 7 13 9 9 14 10 2 14 20 23 25 26 24 30 26 28 25 26 24 25 26 22 14 14 14 6 17 18 21 12 9 8 4 3 4 6 2 4 7 6 10 8 7 11 12 11
15 17 11 11 8 10 14 5 7 19 23 23 23 24 24 24 30 25 27 26 23 24 22 25 22 16 12 10 9 7 7 7 9 14 10 6 2 4 2 4 2 3 9 6 5 1 7 10 10
12 17 15 15 16 13 17 5 17 22 15 24 24 23 20 20 28 26 29 29 26 25 24 25 21 20 14 10 9 8 13 5 10 8 6 7 4 4 2 0 4 7 7 3 6 1 5 11 16
14 14 19 15 20 13 14 3 7 2 20 21 22 23 22 19 23 27 27 27 28 24 26 25 20 21 18 16 14 9 10 10 13 12 10 8 6 6 9 6 6 6 1 9 3 2 2 8 9
16 17 16 17 17 14 15 11 8 8 13 22 20 22 21 23 22 28 28 27 31 26 27 26 21 23 20 17 15 14 8 10 6 13 13 10 6 4 1 7 5 4 4 1 9 6 4 3 10
20 19 17 17 17 18 17 14 12 16 12 14 21 20 22 24 21 29 29 29 30 30 29 24 22 28 24 18 16 15 15 10 9 14 7 11 9 6 4 4 6 2 3 8 4 5 2 5 8
19 20 19 12 15 18 17 12 17 9 11 18 22 22 23 24 24 26 28 31 28 30 31 25 23 29 26 21 19 16 19 19 16 16 16 12 10 6 6 7 5 6 7 7 2 4 5 4 1
18 17 16 17 9 19 13 15 10 6 8 17 18 21 24 24 25 23 26 30 30 32 33 30 27 29 28 20 20 16 15 17 20 24 16 12 11 6 8 6 6 5 5 9 7 6 4 7 4
18 15 18 19 17 12 18 10 20 23 21 25 10 23 24 24 24 23 25 28 31 33 33 33 28 28 31 25 22 17 13 12 16 20 17 18 15 12 9 8 5 5 4 5 5 5 4 4 3
17 16 14 16 18 19 21 12 12 29 21 8 21 18 24 24 25 25 26 32 34 35 35 34 33 28 28 31 23 23 18 17 16 18 22 22 18 14 14 12 10 8 7 7 8 6 3 6 13
16 15 17 17 14 16 21 18 14 13 13 17 22 22 24 25 25 25 33 34 32 34 36 35 36 34 31 36 28 25 26 18 14 16 25 22 21 18 14 14 12 10 8 8 8 6 7 4 2
15 14 12 13 13 17 18 19 15 14 26 30 26 25 25 25 24 24 25 28 33 35 38 38 39 36 35 34 35 25 29 29 20 15 21 20 21 23 22 18 16 14 12 8 9 9 5 6 4
21 18 13 16 14 17 20 20 19 23 15 35 33 29 11 29 24 24 26 31 36 37 39 39 41 39 39 33 36 32 28 31 27 16 19 15 20 24 26 25 18 14 13 11 11 9 10 8 8
20 19 22 23 22 16 17 18 23 21 22 17 14 13 15 7 7 23 23 32 35 36 40 42 42 41 40 42 36 36 31 29 25 21 21 20 20 10 25 26 21 16 14 13 13 10 13 9 11
20 19 18 15 22 24 18 21 13 20 18 17 19 15 11 8 17 22 22 30 34 38 37 38 38 41 40 39 36 36 40 34 30 31 21 24 21 20 20 23 21 20 17 16 15 14 13 12 12
13 15 20 19 17 18 16 16 18 14 22 18 20 21 21 20 13 14 14 28 35 35 36 38 38 38 39 39 39 36 35 36 38 29 34 26 29 19 23 16 19 20 20 18 18 18 15 18 15
17 21 20 14 18 16 15 17 21 10 9 21 19 17 23 19 22 16 22 43 34 36 37 38 39 38 41 40 37 38 36 37 35 37 30 32 30 30 21 23 18 20 20 21 21 21 19 16 19

GFSSGP_925_spd_063.txt.gz
Wind_Speed
9 8 7 2 1 2 2 2 3 9 8 8 11 11 5 4 2 5 29 27 27 22 20 18 18 16 15 16 17 18 17 16 16 16 14 14 14 15 16 15 16 15 14 15 14 14 14 14 15
13 9 6 2 1 2 2 4 9 12 18 20 15 13 9 5 9 16 21 31 27 24 24 22 18 16 15 16 16 17 16 15 15 14 14 15 14 15 15 15 16 16 16 16 15 15 15 14 15
11 12 1 2 4 2 1 5 19 21 17 12 6 6 5 7 16 22 31 35 26 28 24 21 19 17 15 16 16 15 15 15 15 14 14 14 14 14 15 15 16 16 16 16 16 15 14 14 16
6 2 2 2 8 7 5 9 17 20 16 19 12 9 10 15 16 27 38 33 34 31 24 22 20 18 16 17 16 16 16 15 15 14 14 14 14 14 14 14 14 15 15 14 14 15 13 16 19
9 2 3 4 6 8 10 12 7 13 8 15 20 15 15 19 32 36 40 38 35 28 26 22 19 18 17 16 17 16 16 16 15 14 13 13 13 13 14 14 14 14 13 13 11 11 13 15 17
1 2 3 4 8 3 7 13 7 18 17 10 20 15 8 30 30 32 36 39 31 31 26 21 20 18 18 17 17 16 16 16 16 14 13 14 13 14 14 14 14 14 14 13 12 12 14 16 17
4 0 4 10 4 3 5 9 9 8 15 15 16 14 9 20 29 31 41 36 35 30 27 23 21 19 17 17 16 17 17 17 16 14 15 14 14 14 14 14 14 13 12 11 12 14 15 17 17
4 2 4 5 2 1 8 4 3 6 11 4 16 8 15 18 29 40 40 38 32 29 27 22 21 20 19 18 17 17 17 16 16 15 14 15 15 14 14 15 14 12 11 10 9 10 11 11 10
9 2 4 3 3 3 8 6 3 7 7 14 4 16 28 30 27 35 36 34 33 30 27 23 22 20 19 19 17 17 16 16 17 17 17 15 16 14 10 13 13 11 10 10 11 12 12 10 8
4 3 4 4 2 4 15 15 13 5 11 7 14 23 29 28 27 28 32 29 29 32 30 27 24 24 19 17 18 18 18 18 17 17 14 12 12 11 11 12 11 10 11 11 12 14 12 6 4
8 8 7 10 15 4 8 4 3 4 7 15 25 24 23 25 23 29 28 31 33 35 32 31 28 24 24 21 18 18 17 15 14 10 12 15 19 12 12 13 9 9 10 12 11 12 8 18 2
16 16 11 7 12 10 16 4 5 2 6 15 25 28 23 18 17 27 29 28 30 32 37 31 29 29 22 23 20 18 16 16 14 10 7 9 11 8 9 9 9 6 8 8 10 10 7 9 9
17 20 13 8 7 8 15 11 6 10 1 10 17 23 21 15 23 32 34 32 28 32 36 32 33 30 24 22 18 17 18 18 15 14 10 11 5 7 13 11 6 7 8 7 10 10 8 9 10
15 14 12 13 11 15 11 7 9 3 4 5 17 22 18 14 20 31 28 25 27 36 37 32 30 27 22 22 18 15 18 20 20 15 11 11 6 7 9 9 7 7 9 8 10 9 8 10 8
10 11 12 15 16 7 8 8 3 10 10 17 17 19 16 16 21 22 32 28 32 34 38 31 28 23 19 21 17 12 12 17 22 16 12 9 7 9 7 10 10 11 8 6 5 3 11 10 15
10 7 5 6 15 15 15 11 13 14 14 12 17 21 20 18 22 20 34 30 32 37 36 30 26 22 18 16 10 12 17 19 21 20 15 13 8 7 8 6 10 7 7 5 5 8 13 12 14
7 5 8 14 19 12 12 11 18 17 14 15 19 21 21 20 22 25 31 33 36 41 37 30 27 25 21 19 12 10 13 14 17 12 15 13 8 7 9 12 10 6 6 5 5 4 10 15 15
9 6 9 11 11 16 16 16 20 19 10 6 19 18 22 21 17 23 30 35 37 41 35 28 30 24 22 17 14 10 10 10 14 11 13 11 8 7 8 11 10 7 10 3 7 3 6 11 15
16 15 13 12 9 15 13 24 22 18 14 13 20 20 17 14 18 26 30 33 38 39 35 30 33 27 23 20 19 14 13 14 15 20 14 13 9 9 7 9 8 5 7 9 5 6 5 7 20
18 14 14 13 11 11 17 17 22 18 16 16 8 22 25 21 17 23 28 33 36 38 37 33 33 32 29 25 22 17 16 14 14 18 8 13 13 10 9 10 8 5 9 6 5 3 4 5 7
13 9 11 11 10 6 16 3 12 9 13 16 10 3 11 25 18 20 22 31 32 35 40 37 34 36 32 27 25 16 19 18 16 17 16 16 16 8 9 8 7 7 8 7 4 5 4 4 1
7 10 12 11 7 2 7 5 9 9 8 10 8 11 12 23 19 20 20 26 34 35 40 39 33 38 34 28 29 21 18 18 19 23 20 20 17 11 10 10 10 10 7 11 7 4 2 3 2
9 10 8 9 7 5 11 2 6 12 6 10 18 22 17 13 23 23 23 31 32 38 37 41 36 37 36 31 28 25 19 20 25 25 27 24 19 14 12 11 11 9 8 11 9 5 8 3 3
6 8 9 7 5 6 8 4 1 9 12 9 21 24 16 16 24 23 33 29 28 36 36 39 40 41 39 36 30 28 24 20 16 31 27 24 21 19 17 15 11 10 9 9 9 8 7 6 4
6 2 3 4 5 6 7 5 8 12 17 20 22 21 17 9 21 21 22 26 28 35 38 39 40 40 42 40 35 31 28 26 18 26 26 29 26 24 22 20 17 14 13 10 10 10 7 9 9
7 8 5 6 6 5 8 5 7 16 24 25 16 14 8 3 4 20 23 31 32 38 40 40 41 39 41 43 43 35 33 31 28 16 26 31 31 29 28 25 21 17 16 13 11 9 11 9 10
8 5 9 7 9 4 6 8 13 11 19 24 22 14 10 8 7 5 25 34 36 32 39 41 40 40 40 43 45 42 35 36 34 27 21 29 29 27 28 29 25 20 19 15 14 12 10 10 9
9 4 3 3 7 7 6 8 6 6 13 25 22 16 13 8 12 8 13 20 33 38 38 38 39 40 39 39 41 43 43 40 38 32 28 19 26 20 20 33 29 24 20 18 17 14 12 13 11
7 4 4 1 2 6 6 7 9 9 6 15 23 22 25 21 24 16 14 15 14 22 32 39 37 39 38 41 37 38 39 42 40 35 33 25 23 19 16 31 30 26 24 20 21 18 15 18 15
13 9 4 4 8 3 4 8 13 10 14 22 18 25 27 27 22 20 21 15 12 22 31 39 39 42 43 41 39 38 39 41 41 41 36 34 29 26 19 26 29 28 27 24 22 22 20 19 19

GFSSGP_925_spd_066.txt.gz
Wind_Speed
9 10 6 1 1 2 2 2 3 3 4 6 15 5 7 5 1 3 26 21 29 27 23 19 19 17 17 17 18 18 17 18 16 15 16 15 15 14 13 13 14 13 13 13 15 15 15 16 17
13 11 1 1 0 2 1 3 7 11 8 15 9 12 5 5 6 13 17 30 31 29 25 23 19 19 18 18 19 18 17 17 16 15 16 15 14 14 14 14 14 14 13 14 14 14 15 15 17
14 8 1 2 2 2 2 4 9 4 13 9 5 8 5 6 16 17 27 33 31 28 27 23 21 19 19 18 18 17 17 16 16 16 15 14 14 16 15 15 15 15 15 14 15 14 14 14 15
7 4 2 1 4 5 3 9 11 8 6 8 14 9 5 8 20 21 34 31 32 29 26 23 21 19 19 19 18 17 17 16 14 15 15 14 13 14 15 14 14 14 14 15 14 14 14 15 16
2 1 2 3 2 4 5 4 13 8 6 7 4 8 12 14 28 38 35 34 34 29 26 22 21 19 19 18 17 16 16 17 16 15 14 14 13 13 13 14 13 13 13 12 13 14 15 16 16
0 1 2 3 4 6 4 7 6 13 12 12 13 12 5 30 36 33 38 35 32 30 26 22 21 20 19 18 17 17 17 17 16 15 14 13 14 13 13 12 12 12 12 11 11 13 16 18 16
2 2 3 5 5 1 6 4 3 10 13 11 12 14 12 22 31 36 39 34 33 29 27 24 21 19 19 19 17 17 17 17 16 15 14 13 13 14 13 12 12 11 11 11 11 13 14 14 15
3 1 3 3 1 2 9 7 1 12 9 14 14 9 19 20 36 35 35 34 34 29 26 24 22 20 20 19 18 17 17 17 16 16 15 14 14 14 13 13 12 11 10 10 11 14 14 14 13
2 2 3 2 1 4 9 5 4 5 8 6 3 11 25 30 36 33 30 27 29 28 26 23 21 21 20 20 18 18 17 17 18 17 17 17 16 15 14 14 12 11 11 11 11 12 13 13 12
6 3 4 3 3 4 8 9 9 7 11 9 5 17 24 39 36 31 27 25 25 28 26 24 22 21 21 20 20 19 19 20 19 17 16 13 13 13 15 14 12 12 12 13 13 11 10 11 10
8 7 5 5 8 5 3 6 3 8 9 5 7 20 20 31 31 30 29 34 35 34 30 27 24 21 23 23 22 21 21 20 18 15 10 10 12 13 14 14 13 12 12 12 10 9 10 10 6
6 13 10 2 10 8 9 7 5 3 3 7 18 23 20 22 24 28 26 26 29 32 31 29 24 24 24 24 25 24 21 18 16 18 13 14 14 13 15 13 13 11 9 8 8 10 11 11 10
12 13 9 8 16 14 11 4 4 9 5 5 13 15 17 14 26 28 32 31 30 29 32 31 28 25 26 27 25 22 19 16 14 16 16 13 11 13 11 12 10 10 8 8 12 10 9 10 10
5 9 16 14 14 12 13 7 3 3 12 5 16 18 14 13 28 26 25 29 31 32 32 34 31 26 27 25 21 19 17 17 15 18 16 12 12 13 11 12 10 11 9 8 6 6 6 8 12
9 5 8 16 15 9 15 7 3 8 10 16 15 17 15 11 31 26 26 30 35 36 36 36 33 28 25 20 17 19 20 17 19 16 14 12 14 11 10 12 13 10 9 8 7 6 7 5 16
6 2 0 8 12 9 5 5 15 11 9 7 17 16 15 8 25 25 24 32 37 35 37 36 31 28 24 20 17 17 21 20 19 17 15 10 12 12 11 13 12 10 7 9 7 8 12 10 17
6 4 5 3 18 10 4 5 9 13 12 6 14 18 15 8 10 26 25 36 37 44 39 37 33 28 24 17 15 15 16 22 24 18 16 13 11 9 12 12 13 9 8 5 9 9 14 13 13
4 3 6 5 7 8 8 7 15 13 11 10 9 17 15 13 12 20 25 38 40 45 42 37 32 28 24 18 14 16 18 21 24 19 16 14 12 10 13 14 9 8 9 7 11 11 13 15 14
3 5 11 15 7 6 17 10 19 14 12 14 11 13 16 17 20 23 29 37 42 41 39 36 33 29 26 22 17 18 18 21 21 18 16 15 14 13 13 13 9 8 8 10 10 10 8 15 13
7 8 15 13 7 8 14 13 16 17 17 12 14 16 15 17 14 22 27 31 35 39 41 39 36 31 29 27 21 19 14 15 17 21 18 15 14 14 14 14 12 8 11 8 9 8 8 8 14
9 8 15 11 6 11 8 9 16 13 3 4 7 7 6 18 13 18 27 33 34 36 40 41 37 32 30 26 21 17 13 17 21 21 17 16 14 13 13 14 12 8 12 11 8 7 9 7 7
7 8 11 5 5 2 6 3 7 6 8 10 13 12 7 12 16 17 26 29 35 36 42 40 39 35 30 28 26 24 20 18 21 24 17 18 16 13 15 14 13 12 12 11 8 7 7 5 4
11 13 6 2 2 5 4 6 5 16 9 16 17 23 22 15 14 20 25 34 36 37 39 41 41 38 34 31 30 27 17 23 22 22 22 20 20 17 17 15 14 13 11 10 8 9 7 4 4
9 2 6 4 3 3 4 5 4 10 25 20 18 23 25 23 20 22 30 34 34 35 36 40 41 41 38 34 31 32 26 21 22 25 25 23 22 21 18 17 16 14 13 14 11 9 7 7 4
4 7 3 4 4 5 4 4 8 20 15 26 30 28 26 14 16 20 21 28 33 36 36 38 42 40 42 38 34 34 31 25 20 28 29 28 27 26 22 20 18 16 17 15 14 12 10 10 8
1 8 5 5 2 3 5 3 5 9 16 23 29 28 17 11 13 22 24 31 38 39 39 39 40 39 44 43 38 35 33 31 26 23 31 32 32 28 25 25 22 17 16 16 14 14 13 11 11
5 1 6 5 1 4 3 8 7 1 4 11 17 18 21 18 14 26 28 32 35 40 41 42 40 40 44 46 43 40 36 35 32 24 28 33 34 30 28 27 26 22 19 18 16 16 14 14 11
7 4 3 3 3 3 4 4 5 12 16 8 10 13 17 15 12 22 22 33 34 37 40 42 41 42 44 43 45 44 42 39 37 32 25 27 33 31 30 29 28 25 22 20 19 17 14 14 13
7 6 6 2 5 5 2 5 1 7 9 10 5 11 12 10 12 18 16 25 28 33 36 40 41 40 38 40 41 41 43 43 40 37 34 28 26 30 31 28 32 30 26 23 21 18 15 15 15
4 5 6 4 7 1 4 4 6 4 3 6 11 10 17 14 15 15 18 27 28 31 38 39 38 39 42 43 39 40 44 46 43 42 40 36 32 25 32 26 28 34 30 25 25 22 20 18 17

GFSSGP_925_spd_069.txt.gz
Wind_Speed
9 10 8 2 2 2 3 3 4 3 3 4 18 5 5 4 1 3 18 20 32 27 22 19 17 16 17 16 15 14 14 14 12 13 12 13 13 12 12 12 11 13 12 12 13 14 14 16 16
13 12 2 1 1 2 1 1 7 4 4 18 8 12 3 3 4 12 13 29 32 27 22 20 18 16 17 17 16 14 13 13 12 13 12 12 11 11 11 12 11 11 12 13 13 13 13 14 14
15 5 1 2 3 4 3 5 4 5 6 8 5 9 4 4 12 19 23 35 31 27 23 20 19 17 18 18 16 14 13 12 12 12 12 12 12 12 11 12 12 12 12 13 14 13 13 14 14
8 1 2 1 8 5 4 6 7 4 2 8 10 8 3 12 20 15 32 34 31 26 24 20 18 18 18 17 16 15 14 13 13 12 11 11 12 12 12 12 11 12 12 13 12 12 13 13 15
2 1 2 3 5 2 5 9 6 3 3 8 1 5 8 7 21 32 34 34 31 27 22 20 18 18 18 17 16 15 14 13 13 12 12 11 11 12 12 12 11 11 11 12 12 11 14 16 15
0 0 2 3 5 2 4 5 7 4 4 7 11 11 3 26 30 26 30 32 29 27 23 19 17 17 18 17 16 15 14 13 13 12 11 11 11 11 12 11 11 11 11 11 12 11 14 13 12
1 1 3 3 4 2 3 1 6 9 7 7 8 5 9 21 25 27 32 31 29 26 23 20 18 16 16 16 15 15 14 13 12 12 10 11 11 12 12 12 12 12 12 11 11 14 14 15 13
2 2 3 2 1 2 8 5 9 8 6 11 8 5 12 20 26 29 31 31 28 26 23 21 18 17 15 15 14 14 14 13 12 11 10 11 12 12 12 13 12 12 11 12 13 14 13 13 12
2 2 3 1 2 2 9 4 2 3 11 7 5 16 23 30 28 26 24 21 23 24 23 22 20 19 18 17 15 14 13 13 12 11 11 12 13 12 12 12 11 11 11 12 14 14 12 12 12
4 2 4 3 4 7 12 7 9 5 6 4 17 20 31 31 28 26 23 21 20 24 24 22 21 20 19 18 16 16 16 15 15 14 13 13 11 12 11 10 9 10 12 13 13 12 11 11 8
5 4 2 3 6 10 12 10 4 13 5 8 20 21 24 29 26 24 24 28 29 30 26 23 22 21 21 20 19 19 19 17 16 14 12 12 11 11 11 12 11 10 12 14 12 11 10 8 5
3 7 11 4 7 7 11 7 7 8 5 12 10 21 21 22 21 23 21 23 27 30 27 25 23 23 21 21 20 21 19 17 16 13 10 12 12 11 11 10 11 10 9 9 8 10 11 5 5
6 11 7 8 9 8 11 6 6 7 9 8 15 21 19 17 23 24 28 23 26 27 28 28 25 24 22 22 22 21 18 15 14 13 11 12 11 12 11 11 9 8 6 7 8 8 7 5 6
3 6 10 10 10 10 9 5 5 8 10 7 16 20 19 18 22 21 21 23 25 27 29 28 26 24 24 24 24 21 16 13 13 13 14 12 7 12 12 11 9 7 7 6 4 2 3 4 4
10 10 6 4 8 5 14 5 5 10 13 14 16 19 18 20 22 23 26 28 34 30 30 29 28 25 25 24 21 18 16 13 12 14 14 14 11 13 10 11 9 8 6 6 5 3 5 3 6
3 3 3 3 8 7 4 4 7 10 14 11 17 16 16 19 26 24 28 29 31 30 32 30 27 26 25 23 19 18 17 16 14 15 14 12 14 11 12 11 10 7 6 5 4 6 7 5 9
6 1 2 2 5 6 5 2 8 11 10 13 16 16 16 16 21 25 29 32 33 37 34 32 29 28 27 22 17 18 21 19 15 16 14 12 12 13 12 12 9 7 6 6 5 8 10 9 9
2 2 2 1 6 4 6 2 8 9 11 10 14 17 17 14 18 24 30 33 35 38 38 37 33 29 27 22 17 16 20 23 19 19 15 12 11 10 14 12 11 8 8 7 7 8 11 8 10
3 3 3 3 4 5 15 7 12 11 9 12 13 18 17 16 19 24 30 32 33 33 37 38 35 32 30 23 21 15 14 19 22 19 14 14 12 9 11 14 10 9 10 9 9 6 7 7 7
3 1 5 7 3 7 7 6 6 7 6 7 10 15 18 15 12 19 28 30 32 38 40 40 37 36 34 27 21 18 16 18 20 20 17 13 12 12 12 13 11 10 11 12 11 8 8 8 11
4 3 4 6 5 3 7 4 5 4 2 1 5 5 10 17 15 15 24 30 31 32 35 42 41 37 33 28 22 17 17 18 21 20 18 15 13 13 13 12 11 7 10 10 9 6 7 7 13
6 8 8 5 2 2 0 2 5 6 11 7 9 9 10 13 15 14 25 30 34 36 41 44 42 39 34 31 27 22 20 18 16 19 20 16 14 13 13 12 12 9 12 10 8 7 7 6 8
9 6 7 6 3 4 3 5 3 10 16 19 14 14 16 16 17 19 24 35 39 39 39 43 43 40 36 34 31 27 22 20 18 21 21 16 17 14 14 14 14 12 11 12 10 9 8 6 6
6 3 5 5 3 2 5 4 5 5 16 14 15 18 19 19 14 15 29 33 35 37 38 40 43 43 37 37 33 30 27 22 21 19 22 20 18 18 16 15 15 15 14 12 12 11 9 8 6
5 6 2 2 3 5 3 4 7 16 13 16 22 21 21 19 13 10 19 27 31 34 34 36 42 41 42 38 35 32 31 26 21 22 21 24 21 21 20 19 18 17 15 14 14 13 11 10 9
2 7 5 5 5 3 2 5 1 5 10 12 16 17 17 18 16 16 22 31 34 36 36 36 37 38 43 41 37 33 31 31 26 21 21 26 26 25 23 21 20 17 15 16 14 14 13 11 12
2 4 1 7 4 3 3 5 5 11 13 4 12 11 16 18 17 19 20 31 34 36 38 39 38 38 42 45 40 36 32 34 32 26 20 23 28 28 26 24 23 21 17 16 16 15 15 14 13
7 2 3 4 4 3 3 2 3 10 12 11 3 9 11 12 9 11 16 28 34 37 40 41 43 43 48 47 44 41 37 36 35 32 28 21 24 29 28 25 23 22 21 18 17 17 15 15 15
7 5 5 3 4 5 3 1 5 7 8 8 10 7 9 15 13 10 13 28 32 35 37 38 37 38 36 40 43 41 41 38 37 35 33 29 20 27 28 28 25 24 24 23 20 19 17 17 15
10 5 4 4 5 2 2 2 8 10 8 11 14 14 12 15 10 6 4 15 14 21 26 32 35 34 35 40 39 41 42 42 40 39 37 33 30 25 24 25 26 26 29 28 25 23 21 20 18

GFSSGP_925_spd_072.txt.gz
Wind_Speed
9 9 6 2 2 2 3 2 2 2 3 3 14 4 8 4 1 3 13 19 31 26 20 16 15 14 12 13 13 12 12 11 12 11 11 12 11 12 11 11 11 11 12 11 11 12 14 13 13
12 10 2 1 1 1 1 2 3 3 3 18 6 8 3 3 4 10 13 29 31 26 20 17 15 15 13 11 11 11 11 9 12 10 11 11 11 12 11 10 11 11 12 12 12 11 12 12 12
13 2 1 1 2 2 1 2 5 8 11 10 4 8 3 2 9 17 17 35 30 25 20 16 15 14 14 13 11 10 9 8 10 9 10 10 11 11 12 12 11 11 11 11 11 11 12 12 11
6 1 2 1 6 2 2 1 1 5 6 10 4 7 4 4 17 9 30 34 29 24 21 17 15 14 14 13 11 10 9 8 8 8 8 10 10 11 11 12 11 10 11 11 11 12 11 11 13
1 1 1 3 4 3 3 2 5 3 5 5 2 3 7 3 12 29 31 32 29 24 20 18 15 15 13 13 11 10 9 9 8 8 8 8 9 9 11 11 11 12 12 11 11 12 12 12 11
0 1 1 3 7 5 2 6 6 0 4 6 7 6 3 19 26 24 30 30 27 26 21 18 16 14 13 12 11 9 9 9 8 8 8 8 9 9 10 10 11 11 12 12 12 13 11 10 10
1 1 2 3 3 4 3 2 5 5 6 7 9 5 6 14 22 24 28 28 26 23 21 17 16 14 12 12 11 10 10 9 8 7 7 8 7 10 10 10 12 11 11 12 12 12 11 12 11
2 1 3 1 4 5 4 7 5 5 9 12 12 7 8 16 24 27 26 27 25 21 19 17 16 15 14 11 11 11 10 9 9 8 8 7 8 8 9 11 11 11 11 12 12 12 11 11 11
2 1 2 3 0 5 11 6 2 8 8 4 2 7 19 27 27 26 22 21 20 20 19 18 16 15 15 13 12 11 9 9 8 8 10 10 9 9 10 10 10 10 11 11 12 11 10 10 9
2 1 3 1 3 5 7 8 7 5 6 11 15 21 27 27 26 25 21 19 18 19 20 19 19 17 16 15 14 12 12 11 10 9 9 11 10 9 9 9 9 10 10 10 10 8 9 7 5
2 3 1 1 5 12 10 11 5 10 5 9 18 19 21 24 22 22 20 22 21 20 22 21 19 18 18 17 15 15 13 13 11 11 10 10 10 10 9 9 10 11 11 10 8 6 6 4 1
3 8 6 2 7 8 6 9 5 3 5 14 15 19 19 17 18 18 18 20 21 20 22 22 20 20 19 17 17 17 15 13 11 10 8 7 9 8 9 8 10 11 9 8 5 5 5 2 3
7 5 6 5 8 8 9 5 10 8 10 13 17 19 16 15 18 17 16 18 24 20 25 24 22 21 20 19 19 17 15 12 9 7 6 7 8 8 7 8 7 7 6 3 5 4 1 2 3
1 5 9 4 9 8 8 6 10 10 16 12 17 17 16 16 18 16 17 20 25 25 25 25 23 22 20 20 20 18 15 11 9 8 7 8 5 6 7 6 5 3 3 5 3 1 2 3 3
5 3 4 6 5 5 14 5 5 13 15 18 15 16 18 18 21 21 24 26 30 29 27 26 24 23 21 21 20 17 14 11 9 8 8 9 6 8 9 7 4 3 3 3 2 1 1 3 3
4 4 4 2 1 6 1 1 6 13 13 16 20 18 17 17 25 23 24 24 28 29 28 26 25 24 22 22 20 15 14 11 8 7 8 9 9 9 8 6 6 4 3 2 1 2 1 3 2
6 2 3 2 4 5 3 1 6 9 10 12 17 19 16 17 19 23 24 29 33 32 31 28 27 26 24 22 19 16 14 13 10 10 9 11 10 10 7 8 7 5 4 2 2 1 3 2 1
3 4 2 2 5 1 4 1 7 9 11 10 18 20 17 17 19 26 26 31 31 33 33 32 29 27 25 22 18 16 16 15 12 11 10 8 10 10 9 9 7 6 5 4 3 1 3 2 3
3 4 0 3 3 2 7 4 9 8 6 10 15 14 16 16 22 26 29 31 29 28 32 33 32 29 28 25 21 17 17 19 19 14 12 10 9 9 10 11 9 8 7 6 3 1 6 3 2
2 3 3 5 3 5 2 2 4 6 5 7 10 13 13 14 14 21 25 27 29 37 37 34 34 31 31 29 25 19 15 14 19 17 15 11 9 11 7 11 9 7 8 8 7 4 4 5 4
2 3 3 5 2 3 6 1 2 3 1 1 2 6 9 16 14 16 22 29 31 30 36 39 37 35 33 31 26 20 15 12 12 16 17 14 10 10 9 10 9 8 8 7 7 5 4 5 8
1 7 6 3 2 1 0 2 3 4 7 6 6 6 7 13 14 15 24 26 30 37 41 41 39 37 35 33 28 26 22 17 17 18 17 15 12 11 10 11 12 11 10 9 6 6 5 5 5
7 6 6 3 2 3 1 4 5 3 4 10 12 13 11 10 15 16 24 31 34 32 38 44 42 39 38 37 32 27 23 21 18 19 19 17 13 12 11 12 10 10 9 10 8 7 6 4 5
5 5 7 5 3 2 2 4 4 3 5 5 13 16 15 14 12 14 28 30 31 32 30 35 41 42 41 39 35 31 26 24 20 19 18 17 15 15 13 12 11 11 10 10 10 10 8 6 5
5 6 2 3 2 4 2 4 6 8 12 8 13 19 18 16 15 12 17 25 27 29 31 33 38 39 42 40 38 34 31 27 25 21 18 18 17 18 17 15 14 13 12 11 9 10 9 9 7
5 7 5 5 5 4 3 5 1 6 10 15 4 12 13 14 14 16 16 24 28 32 34 36 36 37 41 41 39 37 33 30 28 24 21 18 19 19 16 16 16 15 12 11 11 12 12 11 10
4 5 3 7 2 3 2 4 6 18 19 20 18 2 5 9 13 13 15 24 26 29 32 36 37 39 40 44 41 40 36 32 31 26 20 20 18 20 20 17 17 16 15 12 12 12 12 12 11
7 1 3 4 3 2 2 3 4 16 19 19 19 16 11 7 7 10 11 23 26 30 34 37 37 39 45 46 44 41 38 34 33 31 26 22 17 17 21 20 20 19 18 16 13 13 13 12 12
6 5 5 5 3 5 4 2 7 7 11 17 18 17 16 9 9 9 7 18 26 26 27 31 31 33 33 35 36 40 38 36 33 34 32 27 22 17 18 21 20 20 18 18 16 14 14 14 13
5 3 3 4 3 2 3 2 6 10 13 16 17 18 20 17 6 5 6 9 18 22 24 26 26 27 33 37 41 40 40 37 36 36 36 32 28 24 19 18 21 21 21 22 21 20 18 17 16

GFSSGP_925_spd_075.txt.gz
Wind_Speed
11 9 5 1 2 1 1 2 3 4 8 3 19 7 10 5 1 1 12 13 24 21 17 16 15 14 14 13 14 15 12 14 11 12 13 13 11 12 10 11 11 10 11 11 12 12 13 12 13
11 7 1 1 2 1 1 2 4 5 8 20 9 14 4 4 3 9 16 21 24 20 17 15 16 13 13 13 13 13 11 12 11 12 11 11 11 10 11 10 11 11 11 11 10 12 10 12 14
10 1 1 2 1 2 2 3 5 5 20 10 5 5 3 3 4 22 15 26 22 18 16 15 16 13 12 12 12 12 10 11 10 10 11 11 10 12 13 11 11 11 11 11 11 10 10 12 14
4 2 1 2 7 5 5 5 3 18 10 6 9 6 4 2 18 10 26 25 22 17 15 15 14 13 11 11 11 10 9 9 9 9 12 11 12 12 13 13 11 12 11 11 11 10 10 10 12
1 1 2 4 6 5 4 6 4 10 5 6 2 5 7 6 7 25 26 22 22 18 15 14 14 13 11 10 9 9 9 9 9 9 10 11 12 13 12 13 12 12 12 12 12 10 13 14 15
1 1 2 4 5 3 6 7 5 4 4 4 9 9 5 10 21 24 23 20 18 18 16 14 14 13 12 11 9 9 8 8 9 11 10 10 11 12 12 12 12 12 12 12 12 12 11 13 14
1 2 3 5 3 3 5 9 4 5 7 2 9 6 7 15 23 21 21 19 17 15 15 14 12 11 12 9 9 9 9 9 8 9 11 10 12 12 11 12 13 11 12 12 12 12 14 13 13
2 2 3 1 1 4 5 4 2 5 2 12 10 5 10 18 24 21 20 18 16 14 13 13 12 10 10 9 10 9 9 9 8 10 11 11 13 12 12 13 13 12 12 11 11 12 13 13 10
3 2 2 6 1 4 13 7 1 5 10 4 7 8 19 28 25 23 20 17 16 14 13 13 12 11 10 10 10 9 9 9 10 10 11 11 11 11 11 13 12 11 11 11 11 11 11 10 11
2 2 2 5 4 10 11 7 9 6 8 7 12 19 29 25 26 23 20 18 17 16 15 13 12 12 12 10 11 9 9 8 9 9 10 10 11 11 11 11 11 10 10 10 9 8 7 8 6
2 2 2 5 5 14 16 12 6 11 6 8 20 25 26 26 25 22 21 20 18 16 15 14 14 12 12 11 11 10 10 9 9 10 10 10 10 10 9 9 10 9 9 7 5 5 4 5 4
3 6 6 1 7 10 13 13 8 2 4 11 20 24 25 21 23 23 21 20 19 17 15 15 14 14 12 11 11 11 11 10 9 8 9 10 8 9 8 8 8 8 6 5 3 3 3 5 5
7 6 4 6 10 6 13 9 9 6 12 18 22 21 21 20 21 18 18 17 18 17 16 16 15 15 13 12 11 11 10 9 8 7 6 7 7 9 8 8 7 6 5 4 4 4 4 6 5
2 8 9 2 9 10 11 9 9 8 16 18 20 19 18 20 22 18 18 19 19 18 17 17 16 15 14 13 14 11 9 8 6 5 6 7 7 7 8 7 5 4 4 5 3 4 5 6 5
5 6 3 8 10 5 11 11 8 18 17 20 20 17 17 18 20 21 22 20 20 18 18 18 17 16 16 17 15 11 9 7 5 4 4 4 3 5 4 4 3 2 2 2 2 3 4 5 7
3 1 2 3 8 5 4 4 8 19 18 17 17 17 17 18 23 20 18 18 19 18 19 18 17 17 16 17 16 12 10 6 4 3 3 3 3 4 3 2 3 3 3 2 2 2 3 5 6
1 5 4 4 4 6 4 5 8 13 17 16 16 18 18 18 20 20 19 20 21 20 20 20 19 19 18 19 16 12 10 8 5 4 3 3 3 5 4 3 4 4 3 2 3 4 4 5 5
7 5 4 5 8 5 8 4 9 11 12 17 18 18 18 18 19 23 21 20 21 20 19 19 19 18 19 18 16 11 9 9 8 5 5 3 2 5 4 4 5 3 2 1 2 2 4 3 2
5 6 4 3 5 3 4 4 9 12 12 14 17 18 18 19 22 23 23 21 19 18 20 21 20 20 20 18 15 11 11 11 10 9 7 5 2 4 5 6 6 5 4 2 2 3 3 2 2
4 4 3 2 4 3 2 2 6 10 11 14 17 19 19 18 17 22 23 22 23 25 23 21 21 23 23 18 16 10 11 10 11 13 10 7 5 6 5 9 7 6 5 5 4 2 2 2 3
5 6 3 2 1 3 4 4 5 6 7 9 16 17 19 19 19 17 23 26 26 24 25 26 27 23 25 19 14 13 10 7 9 11 11 11 7 5 5 6 7 6 5 4 6 3 3 3 4
10 7 4 3 2 1 2 2 2 8 12 11 14 20 18 21 20 17 24 27 27 29 27 25 27 28 25 25 18 15 14 12 10 11 13 10 10 7 7 7 8 6 5 5 5 5 2 3 3
5 4 5 2 4 3 4 2 5 4 8 11 12 16 21 21 22 22 25 29 32 29 27 28 28 29 28 26 24 20 17 13 10 10 12 11 10 9 8 9 9 9 8 8 6 5 4 3 3
9 6 4 4 3 5 5 3 8 5 7 8 12 17 20 23 22 23 29 28 28 28 26 24 25 28 31 29 26 25 20 16 13 11 11 11 10 8 10 9 9 10 8 9 7 7 6 5 3
7 9 5 6 5 5 2 3 7 9 11 11 14 13 21 21 20 20 22 25 26 26 25 24 24 26 26 30 28 28 23 22 20 16 13 12 12 10 11 12 9 9 10 8 7 8 8 7 4
14 11 6 10 8 7 2 8 7 11 13 14 18 15 9 19 19 20 24 28 27 27 27 27 27 29 27 26 32 33 28 22 21 20 16 14 13 12 12 13 11 11 8 8 8 8 8 7 6
6 8 2 5 1 8 4 3 6 16 19 21 20 18 13 6 17 20 23 27 28 28 28 29 29 29 29 31 29 32 32 29 23 21 21 16 15 12 14 14 13 12 11 10 9 9 9 8 7
2 4 6 3 9 9 4 3 4 17 19 18 20 18 16 8 10 16 21 25 27 28 29 28 29 30 36 33 30 28 27 29 27 25 23 20 18 17 13 15 15 13 13 13 12 9 10 10 9
1 3 3 2 2 6 7 4 6 8 11 14 17 17 17 16 1 8 14 19 22 23 24 26 26 26 27 28 30 29 27 27 25 24 25 24 21 19 16 15 15 15 15 15 15 14 11 11 10
7 3 1 7 5 2 1 5 5 8 10 12 14 16 17 18 17 13 7 6 16 18 19 23 24 24 26 28 27 31 28 27 25 28 27 27 27 23 21 16 14 15 15 16 16 17 14 14 12

GFSSGP_925_spd_078.txt.gz
Wind_Speed
11 10 6 6 5 3 3 2 3 6 11 4 15 7 9 7 5 6 24 20 24 22 19 16 17 16 15 16 15 14 13 12 13 13 12 10 12 11 11 12 11 11 12 12 12 13 15 15 16
11 9 6 2 6 4 1 1 6 5 10 17 12 12 7 7 9 18 23 25 24 22 19 17 16 16 15 15 14 13 12 13 13 12 12 12 10 12 11 11 11 11 11 12 13 13 14 16 16
10 5 3 3 0 2 2 6 5 11 19 15 7 9 4 5 11 24 26 27 23 20 19 17 16 15 14 14 13 12 12 12 13 13 12 11 13 12 11 12 12 11 12 13 12 12 15 15 16
8 6 4 4 3 3 2 5 13 21 11 3 15 9 7 2 22 16 28 25 22 19 18 18 15 14 13 13 12 12 11 12 12 14 13 14 14 13 13 13 12 12 13 14 13 12 13 14 15
8 4 4 3 5 7 7 7 16 14 10 11 7 8 9 13 12 26 25 23 21 18 16 15 15 14 13 12 11 12 11 12 12 13 13 14 14 14 14 14 13 13 13 13 15 15 17 15 14
4 3 3 9 5 7 7 8 8 10 10 9 13 12 7 12 24 25 23 20 18 17 17 14 14 13 11 11 10 11 11 11 12 12 13 13 14 13 13 14 14 14 13 14 16 15 16 15 14
6 2 6 8 6 4 7 6 3 7 8 6 6 6 10 19 24 23 22 19 16 16 16 14 12 11 11 11 10 11 11 11 12 13 13 14 14 13 13 13 14 14 14 15 16 17 17 15 14
3 3 2 4 8 5 8 5 3 4 5 3 8 7 16 25 24 22 19 19 15 14 14 12 12 11 10 9 11 11 11 12 12 13 14 14 15 15 15 14 14 13 15 14 15 16 16 15 14
3 2 7 7 7 8 10 5 1 1 5 6 5 10 26 29 25 22 20 18 16 13 12 12 11 11 10 11 10 10 10 12 12 13 14 11 12 13 14 13 14 13 14 13 13 16 13 12 14
3 1 6 5 8 15 11 11 9 4 11 7 11 20 29 28 25 23 20 19 17 14 13 12 11 11 11 10 10 10 9 9 10 12 12 12 11 12 14 13 13 13 12 12 13 11 12 7 10
1 2 6 12 15 16 15 9 10 13 11 12 17 24 27 27 25 21 19 18 17 15 13 12 11 12 11 11 10 10 10 10 11 11 11 12 11 10 12 12 12 11 8 9 9 8 8 8 8
3 0 4 7 11 14 16 14 7 6 2 11 17 26 27 23 22 21 19 17 17 15 13 13 12 11 9 11 10 10 11 11 11 10 10 10 11 11 11 11 10 9 9 7 6 7 6 6 7
10 3 1 2 11 8 13 13 10 4 4 14 20 26 24 22 23 21 18 16 15 16 14 14 13 12 11 11 12 11 11 11 11 9 9 9 10 11 10 10 9 8 7 7 7 7 7 6 7
2 4 3 2 13 10 11 13 9 7 13 19 21 22 21 21 22 20 18 17 16 15 15 14 13 12 12 10 12 12 11 11 10 10 9 9 9 9 8 7 6 5 6 6 5 6 6 7 7
6 7 7 3 11 9 9 12 5 16 17 20 22 19 19 20 21 20 19 17 16 16 15 15 14 13 13 12 11 9 10 9 10 9 8 7 6 6 5 4 4 5 5 4 4 4 5 7 7
10 8 10 9 11 7 9 11 14 18 20 19 20 19 18 18 21 19 19 17 16 15 17 16 15 15 14 12 11 9 9 8 6 6 6 5 4 5 4 2 3 4 4 4 4 4 7 6 8
10 12 7 9 5 10 8 11 14 18 17 19 18 18 18 18 19 18 18 17 18 16 16 16 15 16 14 12 10 9 8 7 6 5 5 5 4 4 3 2 4 4 4 4 4 5 4 6 7
15 9 7 10 9 11 8 12 15 14 15 16 14 13 19 19 18 19 17 16 16 16 16 16 15 16 15 13 10 9 7 7 6 5 5 4 4 5 3 4 4 4 4 4 4 4 4 3 3
8 11 10 6 11 7 8 9 11 19 17 13 15 19 19 20 22 21 18 17 16 17 17 17 16 15 16 15 13 11 9 8 7 6 5 4 3 3 4 5 5 3 2 3 3 4 3 5 2
11 12 12 7 6 5 6 6 11 14 13 18 20 18 20 21 19 20 20 18 18 20 19 19 18 18 17 15 13 10 9 8 7 7 6 5 4 4 3 5 5 3 3 3 3 1 3 3 1
13 14 12 8 6 3 6 7 9 12 9 13 14 17 19 20 21 19 21 21 20 20 21 20 19 18 18 15 14 9 8 6 8 8 8 6 5 4 4 5 6 4 4 6 4 2 3 5 2
15 7 4 9 8 8 10 6 7 11 11 7 8 14 17 19 18 20 23 23 22 22 21 19 19 18 18 17 15 12 11 9 9 9 8 8 6 4 5 6 6 5 5 4 4 2 1 3 5
8 10 9 8 9 4 11 7 7 8 11 11 10 11 12 17 20 20 24 25 25 23 22 21 20 19 19 19 16 14 13 10 7 7 8 8 8 6 6 6 6 6 6 4 3 3 2 2 3
7 10 9 8 9 10 9 12 7 6 4 5 2 15 18 17 18 20 26 27 26 25 24 22 21 21 20 19 19 17 14 13 9 10 9 9 9 7 8 8 8 7 7 6 6 5 4 4 3
13 16 11 10 8 8 11 7 10 8 7 8 5 8 17 19 19 19 20 26 26 26 24 23 23 23 22 21 20 20 18 16 14 10 12 9 9 9 9 10 9 9 8 6 7 6 6 6 5
20 19 11 13 12 12 7 8 8 11 10 11 11 11 4 20 18 19 22 25 26 24 25 24 24 24 25 25 23 21 19 18 17 15 13 12 11 10 8 11 10 9 9 7 7 7 6 6 7
20 16 7 7 8 9 13 14 15 10 12 14 14 13 13 5 18 18 21 24 25 26 26 26 24 24 24 26 23 23 21 21 17 16 13 14 12 9 10 10 11 11 11 10 9 8 8 7 8
7 13 10 9 14 13 10 17 10 8 12 14 17 17 15 2 6 14 18 21 23 25 26 25 24 24 24 24 24 24 23 21 20 18 17 15 14 13 10 12 12 12 12 11 10 8 9 9 9
7 11 10 9 5 14 9 7 8 6 7 11 12 13 15 18 12 10 7 17 19 20 22 24 24 23 21 22 23 24 24 24 21 20 19 18 17 16 15 14 15 13 13 13 13 12 8 9 10
2 5 9 10 12 6 6 7 9 10 7 9 12 13 14 16 15 15 24 16 12 17 17 20 20 20 20 19 20 24 23 21 21 20 20 18 18 18 16 16 13 14 15 15 15 13 11 11 11

GFSSGP_925_spd_081.txt.gz
Wind_Speed
10 9 9 9 4 2 4 5 5 7 14 8 12 12 13 19 11 10 30 24 28 24 20 17 16 16 16 13 13 12 14 14 12 12 11 11 11 12 13 13 13 14 14 14 16 16 17 17 17
12 8 7 3 6 3 1 5 6 5 12 17 11 14 14 15 13 22 24 26 26 24 22 18 16 16 16 13 12 13 14 13 12 11 13 11 12 12 12 13 13 13 14 16 15 16 16 16 17
8 11 3 2 3 3 3 3 7 15 18 14 15 15 11 11 24 22 30 26 26 24 22 19 17 16 16 13 13 13 13 13 13 13 12 14 14 13 13 13 13 14 14 14 16 16 16 16 17
10 4 5 6 5 1 2 7 11 17 16 11 15 15 9 19 18 28 28 25 24 23 22 18 17 15 14 13 13 13 13 14 14 14 15 15 15 14 13 13 13 13 13 14 13 14 16 16 15
12 4 5 2 4 4 6 8 17 12 11 15 15 16 20 15 26 27 25 23 22 25 19 16 16 14 13 12 12 12 13 14 14 14 15 14 15 14 14 13 13 13 14 16 16 17 16 15 15
2 4 1 4 8 7 8 9 9 9 12 15 22 19 10 13 28 25 23 21 23 21 21 15 13 13 13 11 13 12 13 13 13 14 14 13 13 14 14 13 14 14 14 16 17 16 15 15 15
5 6 3 11 13 9 12 6 4 14 15 10 12 17 14 22 25 24 22 19 14 26 19 15 13 13 13 12 12 12 13 13 13 13 14 13 12 13 13 14 14 15 15 16 17 16 16 15 15
8 3 4 7 11 7 11 5 2 7 9 6 14 11 21 26 26 23 22 22 9 18 17 21 15 13 14 12 13 12 12 12 13 12 13 16 16 14 14 15 15 15 17 16 15 15 15 17 16
7 3 3 2 13 10 10 7 2 3 9 9 2 21 27 30 26 24 19 26 9 13 15 19 17 18 15 14 11 12 11 13 15 13 12 13 14 14 13 16 15 14 17 16 14 13 13 20 22
4 2 8 5 6 15 12 9 8 6 6 9 11 25 31 28 24 23 22 24 21 16 14 14 18 13 15 15 10 13 9 12 11 7 6 10 15 16 15 14 15 14 16 15 13 7 8 9 10
4 2 7 12 13 16 16 8 7 11 10 13 19 25 26 27 22 22 20 19 18 16 19 20 16 12 15 12 14 15 13 16 13 6 11 11 15 17 15 14 12 10 10 8 6 7 6 5 7
4 11 12 10 16 11 13 14 9 12 4 16 17 24 25 23 21 20 20 18 19 14 14 21 13 9 14 13 13 11 15 12 13 12 9 8 12 10 6 12 11 9 10 7 5 10 8 8 8
8 4 7 16 8 9 13 10 10 7 5 14 18 23 22 20 21 19 19 17 16 15 14 16 14 10 11 6 11 12 12 14 11 11 5 9 13 11 11 6 9 5 9 8 8 7 7 7 8
6 12 9 11 7 16 11 14 10 8 5 16 21 23 22 20 22 19 19 17 17 14 15 16 15 13 11 9 11 10 12 12 12 11 9 6 11 11 9 6 5 7 8 8 5 8 5 11 8
8 8 9 8 17 14 14 15 9 14 13 17 22 22 20 19 22 19 19 18 17 16 15 16 16 15 12 13 12 9 12 11 13 11 10 8 8 3 5 5 7 8 6 5 4 3 4 6 7
13 14 12 10 13 12 10 11 17 19 19 19 22 20 18 19 21 19 17 18 19 16 16 15 16 16 15 13 9 8 10 9 8 13 9 7 6 5 2 2 5 7 4 5 6 4 6 4 9
14 14 12 12 12 12 12 14 10 14 17 20 18 20 18 17 18 19 18 17 19 17 17 16 15 15 14 13 10 9 7 9 7 7 10 7 5 4 1 2 5 4 3 5 9 6 4 3 3
18 18 13 16 12 12 17 11 20 14 14 18 17 20 19 18 18 20 20 19 19 18 17 17 16 16 13 13 9 10 8 5 8 4 12 7 7 4 3 5 3 2 1 7 8 6 7 5 2
12 17 22 17 15 21 13 14 17 14 8 7 16 16 19 20 20 23 22 19 19 18 18 17 17 17 16 14 13 10 10 9 7 10 7 5 4 4 5 8 5 5 4 5 5 6 2 2 1
16 18 9 14 13 12 19 17 20 19 16 10 5 12 16 20 19 21 20 21 20 20 19 18 17 17 16 14 11 8 5 9 10 11 7 4 5 4 5 1 6 4 3 5 1 2 6 6 6
18 13 14 12 7 13 12 10 22 17 17 18 17 18 19 17 20 17 19 19 20 20 20 20 18 17 16 12 10 6 3 2 6 9 8 7 5 4 2 5 0 2 3 8 4 2 7 12 5
20 18 12 10 14 13 16 3 15 17 15 12 21 20 18 19 15 18 23 22 22 22 21 20 19 18 18 14 14 13 11 13 11 10 10 11 6 5 4 5 4 4 1 6 6 3 4 5 7
16 16 11 12 14 11 19 5 6 12 16 11 11 19 17 19 18 19 23 23 24 23 22 20 19 18 19 18 12 14 14 8 11 8 11 7 9 6 7 6 6 5 6 5 4 2 4 1 8
17 17 13 12 13 13 14 13 7 7 16 19 11 10 7 8 20 18 25 27 24 26 23 22 21 19 18 18 15 12 9 12 9 11 10 12 11 8 8 8 8 8 7 4 5 5 3 5 6
16 13 11 12 14 11 17 10 5 9 12 9 10 8 15 15 9 17 18 23 25 28 25 24 23 22 20 19 18 17 13 10 8 3 9 4 9 13 15 10 9 9 8 4 6 5 5 5 5
19 20 13 14 14 15 13 11 10 12 14 12 10 4 11 22 16 16 23 26 24 28 28 24 24 22 22 22 20 18 16 14 14 12 11 10 11 7 14 7 8 9 9 8 8 7 7 10 7
19 20 24 15 16 15 13 15 15 10 14 9 9 8 5 14 20 16 25 24 30 25 28 25 23 23 23 23 22 21 19 18 15 13 13 12 7 8 11 9 9 10 10 9 8 9 9 6 6
12 17 20 9 17 17 15 18 13 11 9 9 9 10 12 9 19 13 8 30 24 26 27 26 25 23 23 22 21 21 20 19 17 14 14 11 10 10 5 10 11 10 10 10 10 11 10 9 9
11 13 18 14 15 13 12 8 13 14 9 8 8 10 11 15 16 14 16 16 8 33 30 28 26 25 22 21 21 21 21 20 18 17 16 16 14 12 10 8 12 10 12 11 12 13 5 9 9
10 13 17 12 19 13 6 7 12 13 14 11 9 10 11 14 14 15 20 25 27 25 12 28 26 25 23 20 19 20 19 18 19 19 18 16 17 16 16 15 13 14 14 14 14 15 13 12 11

GFSSGP_925_spd_084.txt.gz
Wind_Speed
11 10 10 10 3 2 0 5 2 10 7 15 18 19 17 18 10 15 32 28 26 23 20 17 18 16 16 15 14 13 13 12 13 13 13 14 13 13 13 12 14 15 16 17 17 17 17 17 17
12 10 13 2 4 3 3 4 6 1 15 22 22 20 17 24 26 27 26 30 27 24 21 18 19 17 16 16 16 14 13 13 13 14 12 12 12 13 13 13 14 15 17 16 16 16 17 15 16
12 13 1 2 3 1 2 1 9 8 15 20 20 17 15 23 26 28 33 33 27 26 22 19 20 17 17 16 16 13 13 14 14 13 14 13 13 13 13 14 16 15 17 17 17 16 16 15 17
7 4 3 3 6 3 3 8 11 18 19 21 21 18 22 24 31 36 35 36 31 28 22 19 20 16 17 15 15 14 14 14 14 15 15 15 14 13 14 15 16 16 15 15 16 16 15 13 17
6 2 4 1 6 4 6 11 7 13 18 16 24 24 19 29 30 30 31 35 33 25 23 18 19 16 17 15 15 14 14 14 15 14 15 14 15 14 14 16 16 16 15 18 16 16 14 15 16
1 2 2 6 8 5 3 10 5 16 21 20 25 23 22 29 27 31 30 34 30 27 23 18 16 16 16 15 15 15 14 14 14 15 14 15 15 14 15 16 16 17 15 15 17 14 15 15 16
3 5 3 12 11 5 6 8 7 12 18 18 18 21 20 23 27 29 30 25 28 27 24 17 15 15 15 14 14 15 14 13 13 14 15 16 15 14 15 16 17 16 16 15 15 15 15 16 17
5 3 2 6 11 4 9 5 9 2 7 13 17 18 21 25 30 25 23 17 25 29 24 24 19 15 15 13 13 13 13 13 13 14 14 17 16 15 16 18 17 17 17 15 15 16 17 21 21
4 4 3 1 17 10 11 6 4 8 9 2 11 22 25 29 34 22 26 26 20 21 25 24 22 20 18 15 13 12 10 12 16 16 14 14 17 14 13 15 16 17 16 15 14 14 12 12 13
2 3 6 4 16 17 14 10 4 3 12 6 23 26 30 28 40 28 14 14 18 29 25 22 20 22 19 14 19 16 13 8 7 10 10 15 18 15 14 15 16 15 13 12 12 14 11 7 4
7 2 4 14 17 19 16 11 4 9 10 18 25 26 24 26 30 28 23 22 20 35 29 20 23 18 16 15 20 14 18 11 7 6 11 11 15 18 16 17 15 12 7 4 3 8 4 7 12
4 4 8 13 19 16 15 10 8 0 2 14 24 24 21 20 19 30 26 26 33 26 23 20 17 12 17 17 21 21 20 16 12 11 13 16 13 8 11 8 12 14 13 6 4 8 7 9 13
8 2 12 18 17 16 20 15 12 3 10 10 23 22 21 18 21 23 26 24 36 29 23 22 19 17 13 10 17 19 17 16 16 9 7 13 10 13 13 9 8 9 13 6 11 9 6 3 11
3 5 13 12 11 15 14 16 17 12 10 7 21 22 21 19 19 20 22 22 19 31 24 21 15 13 8 11 17 16 14 14 16 13 9 13 13 10 10 3 7 6 13 6 8 11 8 6 10
10 9 16 16 16 15 13 13 13 11 25 16 23 21 20 18 22 19 20 21 19 22 25 22 15 11 9 14 15 6 10 8 17 13 8 11 11 9 12 6 8 6 3 5 4 5 3 0 7
19 9 9 16 21 14 12 13 15 13 17 19 23 19 19 19 23 20 20 21 21 19 24 20 20 16 12 12 7 18 8 13 13 16 10 5 7 7 4 5 7 9 3 5 5 4 5 8 11
15 15 17 8 20 22 12 11 2 15 17 21 17 18 19 18 21 19 23 23 20 22 23 16 23 20 17 11 10 11 17 7 12 16 12 9 5 3 5 5 4 5 2 7 7 4 3 4 6
18 20 16 18 15 14 15 19 18 14 16 19 16 15 19 19 19 21 22 24 23 22 22 15 21 19 19 13 10 12 14 10 13 12 12 10 7 4 5 2 3 5 8 10 8 3 5 3 8
21 20 13 6 11 22 17 19 19 19 18 17 15 15 18 19 22 22 23 24 23 22 23 16 23 20 16 13 16 13 14 13 12 13 11 7 9 5 6 5 8 5 1 7 4 3 5 3 4
24 9 10 11 5 9 12 17 5 17 14 8 16 14 16 18 17 21 22 26 25 25 22 19 23 24 16 16 13 8 9 18 14 13 9 9 7 5 3 5 9 6 7 3 2 2 10 3 9
24 17 14 13 16 12 21 12 10 18 16 6 1 10 10 18 18 16 18 25 27 27 24 22 23 24 20 17 11 4 5 14 19 10 11 9 8 6 2 5 4 5 5 4 4 1 5 9 3
22 18 16 27 23 11 30 8 24 21 20 15 13 12 13 11 15 19 20 20 27 28 26 24 22 24 22 12 13 11 9 10 16 17 16 9 9 8 6 5 6 11 5 9 5 0 4 3 7
19 18 22 18 13 13 19 8 9 13 18 17 15 11 13 17 19 13 22 25 25 29 28 27 23 24 21 17 10 15 11 2 2 16 13 13 8 7 8 8 6 7 6 8 5 3 1 6 7
17 21 9 11 11 13 15 13 7 7 5 19 17 15 13 19 12 20 26 27 20 31 30 28 26 24 22 21 14 17 9 7 2 11 14 13 12 10 12 10 8 5 6 11 4 3 1 4 4
18 19 11 10 12 11 16 16 8 6 11 6 21 15 27 22 7 12 21 23 24 32 30 29 27 24 22 22 18 14 10 9 5 10 10 15 10 15 14 14 13 8 8 6 7 7 5 5 5
19 21 11 16 14 13 19 3 9 14 20 6 10 25 18 13 8 18 24 18 21 33 32 31 29 26 24 23 21 19 16 10 9 9 10 8 8 7 13 11 11 11 11 9 8 6 6 10 6
17 20 19 15 17 15 9 14 17 19 11 9 5 9 11 11 27 21 15 29 25 30 33 32 32 27 25 24 22 19 18 17 12 13 14 10 10 11 5 7 10 7 9 9 10 9 10 5 7
12 19 16 15 16 14 12 16 13 17 13 9 6 10 12 15 13 13 15 21 30 24 33 32 34 30 28 25 24 22 21 21 20 12 11 11 6 16 5 7 11 10 11 11 10 11 9 11 10
13 12 17 19 15 13 8 7 14 14 10 7 9 13 13 10 11 9 15 28 21 5 13 27 33 30 26 26 25 24 24 22 19 16 13 17 11 10 13 12 16 14 12 13 13 10 6 11 10
17 17 16 13 19 12 6 6 11 13 10 9 9 13 14 11 11 11 13 27 18 26 22 12 6 29 27 27 27 27 23 23 22 21 19 18 17 15 13 11 12 13 14 12 14 13 11 11 11

GFSSGP_925_spd_087.txt.gz
Wind_Speed
8 8 5 3 1 3 4 5 7 11 16 18 17 17 10 9 11 8 31 27 25 24 22 19 16 15 14 13 12 13 14 14 15 14 15 15 16 16 16 17 17 18 19 19 18 19 18 19 21
10 9 7 3 1 2 4 6 9 3 18 18 26 25 25 19 18 21 28 33 29 26 22 20 18 17 14 15 14 15 14 14 14 13 14 14 15 15 15 16 16 17 18 18 18 18 18 20 20
12 12 1 1 2 3 3 6 4 6 16 16 15 18 10 19 19 22 39 34 31 25 24 22 20 17 17 16 14 15 15 14 13 15 14 15 15 15 15 14 16 16 18 17 17 16 17 19 18
7 2 3 1 1 2 3 12 6 20 23 25 22 15 14 27 25 40 40 37 35 26 25 22 19 17 17 16 16 15 15 15 15 15 15 14 15 14 15 14 16 15 16 15 16 16 17 19 17
15 4 1 2 3 5 6 7 14 16 16 20 25 24 23 27 39 39 40 41 34 28 26 21 19 18 16 16 15 15 14 15 16 15 15 15 14 14 14 14 15 15 15 14 13 16 18 20 19
1 3 1 3 5 4 6 6 18 15 21 19 25 24 19 36 40 39 38 37 32 31 26 21 19 18 15 15 15 14 15 14 15 15 16 15 15 15 13 14 16 15 16 14 14 17 18 19 19
2 1 3 10 10 6 6 1 6 17 21 16 20 24 13 30 38 40 35 31 35 29 27 22 20 18 17 15 15 14 14 13 14 14 15 16 15 15 13 14 14 14 13 13 14 16 17 19 17
3 2 2 7 10 4 5 3 4 12 18 18 21 15 18 28 31 35 35 35 31 28 26 24 21 20 18 16 15 14 14 14 14 14 14 17 16 15 16 15 14 13 12 11 13 14 14 17 16
4 3 4 5 15 7 7 4 3 4 14 11 7 13 28 40 38 36 27 28 29 27 28 23 22 20 18 18 15 15 16 15 15 17 18 20 18 18 14 16 16 14 13 11 12 15 16 16 17
4 4 3 7 11 12 9 5 2 4 8 9 20 18 35 34 35 25 21 28 26 28 27 26 24 21 20 17 18 20 20 19 13 14 15 16 14 16 16 15 14 15 11 5 4 9 11 6 7
2 3 1 12 14 15 12 5 2 4 11 22 23 21 25 24 26 27 27 24 32 36 30 26 23 23 21 20 20 19 17 14 10 12 17 14 16 13 15 15 14 16 15 8 6 8 4 4 3
8 2 3 11 15 12 12 10 4 9 3 10 21 19 23 21 20 20 22 34 31 24 30 26 23 23 20 18 17 19 19 16 12 13 13 18 17 11 15 10 6 10 10 10 5 2 4 6 4
4 1 4 17 15 13 11 8 5 5 3 4 19 16 20 19 24 24 28 32 34 30 29 27 23 22 18 21 16 20 19 16 16 14 18 13 9 15 11 11 9 4 5 6 9 4 8 10 13
4 8 14 18 12 18 13 13 6 6 7 7 18 9 9 11 24 25 33 30 29 32 30 24 22 15 16 22 18 17 15 20 17 14 14 20 15 13 15 8 8 4 8 6 5 7 6 7 9
15 6 10 13 13 20 21 5 11 14 13 13 18 12 9 8 28 27 34 28 34 33 34 25 21 17 16 20 21 14 17 19 18 13 16 14 14 10 11 10 13 7 8 5 6 3 3 7 9
6 7 5 12 20 18 8 4 15 19 17 15 17 15 12 7 19 24 34 37 30 36 30 25 24 19 16 16 10 18 19 22 20 19 12 9 9 9 8 10 10 6 6 8 9 2 2 4 6
7 7 13 16 18 17 5 11 9 10 13 14 16 16 12 12 11 25 30 34 33 33 28 27 21 19 15 12 11 17 19 16 19 15 14 11 10 6 5 9 8 3 6 6 5 3 8 7 6
8 10 5 2 13 19 9 13 16 12 11 19 15 14 13 15 9 22 31 28 36 29 25 30 23 18 18 15 15 16 15 11 15 17 12 9 8 6 5 6 8 4 9 5 3 2 3 3 7
15 9 10 17 7 14 11 14 13 12 11 14 17 12 15 15 17 26 29 31 34 26 27 29 29 19 19 16 18 16 15 16 15 15 13 8 11 7 7 6 8 6 9 3 0 0 4 5 3
20 8 6 12 10 5 22 11 17 13 8 16 15 11 11 16 15 20 29 28 31 27 23 23 28 25 21 17 19 19 14 19 18 18 14 10 9 9 9 8 6 3 8 2 3 2 6 4 3
18 14 15 8 10 16 20 14 7 12 9 7 3 3 4 8 18 11 23 28 32 31 26 25 29 26 23 20 13 9 11 18 19 18 14 11 9 11 9 8 7 6 6 5 2 2 4 6 4
12 11 14 20 11 7 18 10 12 7 10 13 12 5 2 5 16 12 18 25 31 34 31 26 28 26 22 18 13 11 16 24 18 19 16 15 10 8 8 6 7 9 9 6 3 2 5 5 9
13 5 6 12 9 5 16 4 6 8 10 9 7 9 4 8 8 17 15 27 32 37 36 30 29 26 26 19 12 14 11 12 8 16 17 15 12 10 9 10 8 7 4 8 5 1 3 5 6
13 11 4 2 4 4 17 7 6 13 12 13 5 5 14 10 6 7 17 22 31 32 32 32 29 27 28 21 14 12 9 9 6 18 19 17 12 10 10 11 11 7 8 8 5 2 1 2 3
11 5 3 4 4 7 8 7 2 11 18 14 13 13 8 5 1 6 9 9 29 29 30 32 30 29 28 23 19 14 8 8 9 14 14 15 14 13 11 10 10 11 11 13 8 6 6 4 6
9 7 5 7 7 6 4 5 6 6 13 15 17 21 13 7 7 8 13 17 15 28 31 31 32 31 29 27 24 19 14 12 10 11 13 16 14 14 12 13 11 11 9 7 7 6 5 6 9
8 8 9 6 7 3 6 4 9 7 9 14 12 13 12 12 15 13 24 12 13 29 32 34 35 33 31 29 28 25 21 17 16 14 12 14 13 11 10 15 12 13 12 10 9 10 8 7 7
10 3 8 2 2 4 5 6 10 12 11 12 11 9 6 3 18 18 24 2 4 9 32 36 38 36 33 31 27 25 23 21 19 13 12 16 14 15 9 15 14 14 13 13 10 8 7 9 11
3 1 3 2 3 4 5 2 4 12 12 11 8 7 5 5 5 7 13 16 12 10 7 23 27 34 35 33 28 25 24 20 19 18 12 14 11 17 13 15 16 15 15 14 13 11 11 8 14
4 7 4 4 8 1 4 2 10 11 12 11 7 7 7 7 9 7 11 12 14 11 19 16 10 2 12 34 31 29 25 24 22 21 20 15 16 15 13 9 13 19 16 15 17 14 13 13 12

GFSSGP_925_spd_090.txt.gz
Wind_Speed
9 9 7 1 3 2 1 3 3 4 6 11 16 6 12 6 4 3 23 21 25 24 21 18 15 15 14 14 13 14 15 16 18 17 16 16 16 16 16 16 17 18 18 17 17 19 19 21 20
13 12 3 1 3 1 1 2 7 7 12 22 12 13 12 4 7 14 17 25 26 24 22 18 17 17 15 16 15 15 14 14 16 16 16 16 16 16 16 17 17 17 17 16 17 18 18 18 16
13 6 2 1 2 3 3 5 2 15 16 13 8 10 6 8 17 16 26 28 28 24 21 18 17 17 16 15 14 14 15 14 15 15 15 15 15 17 16 16 17 17 16 15 15 17 16 16 15
8 3 0 2 3 4 4 3 2 15 14 11 17 12 9 13 13 21 32 31 28 25 21 19 18 16 15 14 14 14 15 15 15 15 15 15 15 16 16 15 16 15 15 14 15 17 16 17 17
3 2 2 2 2 3 2 4 9 4 8 15 20 11 8 14 27 36 34 30 30 27 22 20 17 16 15 15 16 15 15 15 15 15 15 15 15 15 16 15 13 14 13 14 15 19 17 16 17
1 1 3 4 3 2 4 4 12 11 16 18 22 17 5 30 35 31 35 32 30 29 22 21 17 16 16 15 15 15 15 15 15 15 14 15 15 15 15 15 14 12 12 12 14 17 15 16 18
2 0 4 8 7 3 4 2 17 17 23 12 20 17 11 25 31 32 33 32 30 27 22 21 18 15 15 15 15 15 14 14 14 14 14 14 15 14 15 15 13 12 10 11 14 16 16 13 14
3 1 1 2 10 3 7 2 11 17 15 21 24 10 18 25 31 32 32 30 28 25 23 20 18 16 15 15 14 15 14 14 13 14 13 14 14 14 14 15 13 11 10 11 14 15 16 13 12
3 1 2 6 8 6 7 8 3 10 20 16 4 18 28 32 35 31 27 26 24 22 21 21 18 16 15 16 15 15 15 15 14 13 13 14 15 15 16 15 12 11 12 12 12 13 14 13 12
3 1 4 2 13 11 9 7 5 13 18 17 21 22 31 35 31 30 24 22 23 24 22 21 19 17 16 17 17 18 18 17 17 17 17 14 13 14 16 14 13 11 11 12 11 10 9 7 5
5 4 6 6 12 12 8 7 3 13 7 22 28 24 27 33 29 27 27 26 28 26 24 21 18 17 16 18 21 20 18 16 14 15 13 12 11 13 15 14 11 13 13 10 8 8 2 1 3
4 6 6 6 13 11 12 7 5 6 9 20 25 26 25 20 23 26 25 26 24 26 24 24 20 16 14 19 18 17 15 14 13 14 12 14 10 11 12 11 7 4 2 2 3 3 4 3 3
2 7 8 11 9 11 12 7 6 10 9 22 25 24 21 19 22 26 26 30 32 27 26 26 23 16 15 15 14 15 13 10 14 12 14 15 11 13 9 7 5 6 3 3 4 5 3 4 7
8 9 10 10 10 7 12 7 3 4 5 19 23 20 18 18 19 23 26 27 27 29 27 27 24 15 17 15 15 15 11 14 16 19 16 13 12 11 7 6 4 5 2 5 2 3 1 4 9
11 7 7 9 9 6 12 5 9 8 2 19 19 15 14 14 23 30 31 28 30 29 29 25 23 19 18 16 16 13 9 16 15 15 14 11 13 11 12 9 8 6 3 2 2 2 3 3 5
5 4 9 9 9 10 5 2 4 3 5 7 16 16 13 18 26 29 31 29 31 32 28 28 22 15 17 22 18 12 16 14 15 17 13 11 9 11 6 10 7 7 4 3 4 2 2 1 3
2 4 4 9 16 10 3 8 14 9 7 10 12 12 9 20 25 31 29 29 34 35 31 26 23 19 20 19 17 18 19 17 15 17 12 11 9 8 5 9 8 2 5 5 4 1 0 4 5
3 2 4 8 11 4 4 5 15 15 12 15 14 12 11 16 18 30 32 31 37 34 30 27 25 19 17 19 20 19 19 16 16 14 11 12 9 6 3 7 7 0 8 5 3 1 1 3 1
2 5 10 4 12 7 3 8 7 14 12 12 11 13 10 18 24 32 34 35 31 34 33 29 25 21 17 16 21 18 18 16 18 15 12 12 12 9 7 8 6 3 5 5 1 1 4 1 3
3 5 2 15 12 8 10 3 1 8 16 15 16 10 13 12 19 28 31 30 33 35 33 29 26 23 18 14 17 15 14 17 17 14 13 10 12 9 9 7 8 6 6 4 2 1 2 0 4
5 6 6 6 9 8 11 10 8 4 4 6 5 4 12 18 19 17 29 30 32 35 37 33 27 24 22 17 15 12 11 14 13 15 13 10 10 10 11 9 8 6 7 4 1 3 3 4 5
5 12 8 17 7 5 11 5 4 7 11 12 11 7 4 10 15 19 26 28 31 37 36 32 31 27 23 19 16 11 16 19 18 19 13 11 9 12 8 10 8 8 9 6 3 1 3 3 11
11 12 10 17 5 6 10 3 4 7 8 12 10 10 7 5 6 10 25 31 34 36 36 34 33 30 26 21 17 12 13 21 21 16 16 14 12 11 10 10 12 8 10 9 5 2 1 4 7
14 4 2 7 5 1 8 5 4 12 18 12 8 9 12 7 3 5 6 22 28 30 33 35 34 30 25 22 16 10 12 18 15 21 18 15 13 11 11 10 11 8 8 7 7 4 1 2 3
5 6 1 2 2 6 7 8 8 17 17 21 25 19 16 15 9 8 4 16 22 25 28 33 34 31 26 24 18 12 11 12 9 16 20 18 16 14 12 13 13 9 8 8 8 7 5 4 4
6 8 6 5 3 2 6 6 2 7 8 7 12 11 7 13 11 8 11 8 13 22 32 31 35 32 27 27 23 17 15 12 11 15 17 17 16 15 15 15 14 11 9 9 10 9 7 6 6
7 3 9 6 2 4 3 4 4 8 4 6 7 6 6 10 8 9 14 8 3 11 22 33 36 34 30 30 27 21 18 17 13 15 12 16 17 14 19 17 16 13 12 12 10 9 7 6 5
8 6 2 3 6 4 3 5 4 3 6 6 6 7 5 3 2 2 12 11 4 2 14 24 33 35 33 30 31 27 23 21 19 16 14 16 18 15 15 13 17 14 15 13 12 11 9 8 10
1 3 4 4 5 6 4 1 3 9 10 9 8 6 6 5 4 6 8 12 12 10 5 11 20 20 25 29 30 29 27 25 22 20 16 16 20 19 18 14 15 16 15 15 15 12 10 9 9
5 8 7 5 5 3 4 2 5 8 10 10 7 7 6 5 6 5 18 19 18 17 12 13 3 20 14 21 26 29 29 26 25 26 24 17 19 17 18 15 16 18 16 16 17 16 13 11 13

GFSSGP_925_spd_093.txt.gz
Wind_Speed
5 7 5 2 1 2 1 2 2 1 6 8 14 4 9 6 2 3 15 15 22 22 18 15 14 13 12 12 12 13 12 13 14 14 13 13 14 14 15 15 16 18 18 19 20 20 20 19 18
11 9 1 1 2 3 3 1 4 5 6 22 6 7 5 4 4 11 12 22 25 23 18 16 14 13 12 12 13 12 12 14 13 14 13 13 14 14 14 15 16 16 17 18 18 18 17 15 15
13 2 1 2 1 2 2 1 4 6 14 13 5 8 4 3 12 11 19 27 25 22 18 15 16 14 15 14 12 14 12 13 12 13 12 13 13 14 14 14 14 15 15 16 16 16 14 12 13
6 1 2 2 5 4 3 5 7 12 11 5 11 10 5 11 7 14 28 27 25 21 17 15 15 14 13 14 13 14 13 13 13 13 13 14 14 14 13 14 13 13 13 14 15 14 13 13 12
2 2 1 3 5 2 3 5 5 10 4 10 8 6 8 4 19 31 30 27 25 21 18 16 14 13 13 13 12 14 14 14 14 14 14 14 14 14 14 13 12 13 12 13 14 13 13 13 14
2 1 1 3 3 3 2 6 4 6 8 11 12 11 4 23 28 26 28 26 24 22 18 15 12 12 12 12 12 12 12 13 13 13 13 14 14 13 12 12 12 12 11 12 15 12 12 15 11
2 0 2 5 8 4 6 5 4 12 11 6 13 6 5 14 22 26 26 26 23 20 19 16 13 11 11 11 11 11 11 11 12 13 14 13 12 13 12 12 11 10 11 12 14 13 11 9 8
3 2 2 3 7 4 3 3 8 17 6 14 9 5 10 15 23 25 24 24 21 18 18 16 14 12 10 10 10 10 10 10 11 12 12 12 12 12 12 12 11 9 9 10 11 12 9 9 8
3 2 0 4 5 6 2 11 4 5 14 6 1 9 19 27 27 25 23 21 19 16 16 15 14 13 13 11 9 9 10 10 10 11 13 12 13 13 13 13 11 9 9 9 9 9 7 6 7
3 1 1 5 9 5 5 11 10 8 10 14 17 19 27 27 26 22 20 19 21 18 16 15 14 13 13 13 10 12 11 12 11 12 12 13 12 13 11 11 9 9 10 11 10 7 6 5 5
4 2 2 3 14 11 8 5 10 18 10 20 25 21 22 24 20 21 18 21 25 21 17 16 15 14 13 13 13 12 12 12 12 12 12 11 11 12 10 10 9 9 8 8 9 9 5 3 4
2 6 5 4 7 12 12 6 12 7 8 20 23 22 23 18 20 20 21 22 21 21 19 16 15 14 15 16 14 12 11 9 9 8 7 9 10 10 9 7 6 4 3 4 2 2 0 3 7
4 4 7 8 8 11 10 8 10 4 18 18 21 22 20 18 20 19 21 23 25 23 20 19 17 16 16 16 13 11 9 8 8 8 9 9 10 9 7 4 2 4 5 3 5 4 7 5 2
7 3 10 7 7 7 13 7 5 10 20 19 22 20 17 18 21 20 19 22 26 25 23 22 20 17 16 14 12 10 7 7 9 9 11 10 6 6 3 2 2 2 3 2 4 3 7 5 4
7 7 6 8 4 6 18 7 11 6 21 21 21 19 16 16 22 25 27 28 29 27 26 24 20 14 17 14 13 11 6 10 10 11 8 6 8 6 4 3 2 2 2 2 4 3 4 5 4
8 4 7 9 8 7 3 3 9 6 18 20 20 16 14 13 23 22 26 27 28 29 28 25 20 17 17 17 15 11 6 10 10 11 8 6 7 4 4 5 1 1 2 1 3 4 4 4 4
1 3 4 7 5 7 3 4 8 5 10 18 17 17 13 13 19 24 27 27 30 30 29 25 22 18 19 18 15 11 13 10 10 13 10 7 6 6 3 4 2 2 0 1 4 6 5 4 4
3 4 2 4 10 6 2 2 13 11 10 11 13 14 14 15 16 26 28 28 30 29 27 26 22 18 18 18 16 15 17 15 12 12 9 9 5 3 2 5 3 2 2 1 3 4 4 5 5
3 2 4 6 7 7 5 6 15 12 6 10 12 9 14 16 19 27 26 28 30 30 30 27 25 20 20 20 17 15 19 19 16 12 9 9 7 7 4 5 5 1 2 2 3 4 7 4 4
3 1 5 11 8 9 10 7 4 7 13 11 19 8 16 14 16 23 25 28 32 36 32 30 27 24 20 20 19 18 16 15 15 12 11 8 7 7 6 4 4 1 2 2 4 6 6 5 6
1 3 7 5 8 8 9 6 11 4 12 13 17 7 15 17 17 17 24 29 30 32 34 34 31 27 22 19 19 12 7 7 9 13 11 10 11 10 7 6 5 2 3 1 2 5 7 7 5
2 5 5 16 8 4 2 3 10 10 13 15 19 8 14 17 18 19 24 26 32 36 37 33 30 28 23 18 16 12 10 8 13 13 12 8 7 9 7 6 7 6 6 3 1 3 5 5 9
7 3 5 9 4 6 4 1 5 6 12 14 19 12 8 17 19 20 28 34 31 30 38 35 32 29 24 20 16 12 9 12 15 12 11 9 10 8 8 7 8 8 7 6 3 1 2 4 7
3 1 6 6 4 1 8 6 4 7 14 17 22 15 11 14 16 19 24 24 26 27 29 35 32 29 26 22 19 14 9 12 15 16 13 13 10 10 10 10 8 7 6 4 7 4 2 1 3
4 5 1 2 1 5 9 7 6 5 11 18 26 18 15 13 14 13 12 19 20 26 29 33 34 31 27 23 21 18 11 12 14 16 19 15 15 14 13 12 10 8 7 6 8 7 7 3 3
6 10 5 6 5 3 5 5 4 5 9 7 7 9 6 7 12 14 2 12 19 21 28 32 35 33 29 25 23 19 14 14 13 12 11 18 17 15 13 12 12 10 9 9 11 9 7 8 6
4 4 9 5 2 4 2 4 2 5 8 10 11 13 10 8 9 15 13 17 15 18 23 31 34 34 32 27 24 21 17 15 14 12 12 14 17 17 16 15 15 12 11 10 9 10 9 7 7
8 6 4 3 5 4 1 2 3 2 4 8 10 10 7 8 8 9 11 11 10 8 18 24 25 23 27 25 25 24 21 17 16 13 14 13 12 16 16 16 18 15 13 11 11 11 9 10 9
1 2 5 5 5 5 3 5 1 6 7 9 10 8 7 7 5 9 12 13 11 4 6 17 20 20 22 24 23 24 23 21 19 18 15 14 14 15 16 13 12 14 14 13 13 12 11 11 9
5 9 7 5 3 1 3 5 2 8 6 9 10 8 7 7 4 7 19 21 16 10 5 12 14 14 15 17 22 22 22 23 22 21 20 18 17 16 18 16 14 15 16 14 14 14 14 12 12

GFSSGP_925_spd_096.txt.gz
Wind_Speed
6 7 3 2 2 3 2 1 1 10 7 4 12 4 5 4 1 3 14 14 20 19 15 15 14 13 12 12 12 11 11 13 11 12 12 11 13 13 13 15 16 17 19 18 18 17 18 18 17
11 8 1 1 2 3 2 1 2 5 7 16 8 7 4 3 4 8 10 21 23 20 16 14 12 11 10 10 10 11 11 11 12 11 11 12 12 13 13 15 16 17 17 19 17 16 15 15 15
12 3 2 3 2 1 1 1 2 5 17 10 4 5 4 3 9 10 16 25 23 19 15 12 11 10 10 11 10 11 11 12 11 11 12 12 13 13 14 14 16 16 17 16 15 14 12 11 11
5 1 1 2 3 2 1 0 11 14 8 5 8 8 5 8 10 8 26 26 23 18 14 13 11 11 10 9 11 10 10 10 11 10 11 12 12 12 14 14 14 15 16 15 14 14 11 9 8
1 1 2 3 3 3 1 2 2 7 4 5 3 5 7 3 11 28 26 24 23 18 14 11 10 10 9 8 9 10 11 10 10 11 11 12 12 12 13 14 15 14 14 13 12 12 11 13 12
2 2 1 3 4 1 2 2 2 3 5 5 8 7 3 16 23 22 25 24 20 20 16 12 10 10 10 10 11 10 10 9 11 11 10 12 11 12 11 12 13 14 13 12 11 11 13 10 9
2 1 2 4 8 3 2 4 2 6 7 5 7 5 6 10 16 24 24 22 19 17 15 13 10 10 9 9 10 10 10 10 10 10 10 11 10 12 12 11 12 12 11 11 10 12 9 9 6
1 1 1 1 8 5 3 3 8 5 4 7 8 6 10 10 20 24 22 20 18 17 14 13 10 9 10 9 9 10 10 10 10 11 11 10 12 12 13 13 11 11 10 10 9 8 8 7 8
3 1 2 4 7 4 3 5 3 6 9 3 2 8 16 23 25 23 21 17 16 14 13 12 11 10 10 9 8 10 9 10 11 10 10 10 12 12 13 12 11 11 9 8 8 7 7 6 6
3 1 2 4 2 3 6 10 7 6 4 9 15 18 22 22 24 20 17 15 16 15 13 11 11 11 12 10 8 11 11 10 10 10 10 11 12 12 13 11 10 11 10 8 5 4 2 2 3
2 1 5 7 7 3 9 7 4 12 5 13 19 17 17 19 15 15 15 20 19 15 13 11 11 11 12 11 10 12 12 11 11 11 11 11 12 11 11 10 9 10 7 6 5 3 2 2 3
2 4 7 13 13 5 10 7 10 2 5 15 19 19 18 13 15 15 16 18 17 16 14 12 11 11 11 12 11 12 12 13 12 10 9 10 10 10 10 9 6 6 4 3 1 1 3 4 7
4 5 7 7 9 8 4 8 8 3 14 14 19 18 15 15 13 14 15 17 17 17 15 15 13 13 12 13 12 11 10 10 9 8 9 8 9 7 6 6 6 6 6 5 5 6 6 4 3
2 3 9 1 5 12 10 6 2 4 16 15 17 15 14 16 18 14 15 17 18 18 18 17 16 15 13 12 10 9 7 7 8 8 10 9 7 5 2 3 3 4 5 6 6 8 9 5 6
7 8 10 10 6 5 16 10 9 3 13 16 15 14 12 13 17 16 19 22 22 20 19 19 18 14 13 11 10 9 7 7 8 9 8 4 2 3 2 4 5 4 5 6 6 6 7 5 5
3 2 4 8 9 8 1 6 9 9 15 16 15 13 13 10 18 18 20 22 22 21 22 20 18 14 13 12 11 8 6 6 7 7 6 3 5 2 1 3 4 4 4 6 7 7 6 5 5
3 3 1 9 13 8 2 8 10 15 16 15 13 12 12 8 13 18 22 23 23 24 23 21 18 15 15 13 10 8 6 7 5 7 6 4 5 3 1 2 2 5 4 5 7 8 7 7 6
1 2 1 5 7 6 4 4 11 11 13 14 13 12 11 12 16 24 23 26 25 24 23 21 18 16 16 15 12 9 9 8 8 8 6 5 4 3 2 1 2 6 4 5 7 7 8 8 8
2 2 8 4 5 5 6 8 8 8 8 12 7 12 11 14 19 20 23 24 27 26 25 23 19 17 18 20 16 12 13 13 9 9 7 5 3 2 1 1 1 3 4 4 5 7 7 8 9
2 7 6 8 6 5 2 4 1 8 8 15 8 8 14 10 10 17 23 26 29 29 28 25 21 19 20 19 17 11 14 13 10 10 7 5 6 4 2 2 2 1 4 4 5 9 7 7 8
1 3 6 6 4 3 8 3 5 5 6 7 12 5 4 15 16 15 21 26 28 31 30 29 26 23 21 19 16 12 11 9 11 11 9 7 6 6 5 4 3 1 2 2 4 8 8 9 6
3 5 6 14 4 3 1 2 5 9 9 11 13 15 8 12 17 17 22 24 29 33 32 31 30 26 21 20 19 15 12 10 11 9 8 6 4 7 6 5 4 2 2 0 2 5 7 8 10
6 3 7 8 4 3 2 2 4 7 10 14 14 18 15 11 15 17 25 31 27 31 35 32 31 27 24 21 19 16 11 8 6 7 6 7 6 4 5 3 3 4 4 4 1 2 4 6 8
5 2 7 4 3 2 6 5 4 5 10 14 16 16 17 11 16 20 27 20 21 24 30 30 31 30 27 23 19 16 12 8 8 11 9 7 6 7 7 6 5 6 4 4 5 3 1 3 4
3 3 2 2 1 5 2 4 7 4 5 19 24 26 20 9 14 13 15 20 21 24 27 31 32 32 29 25 21 18 11 8 8 9 12 11 11 10 8 7 7 5 4 5 6 5 3 2 3
7 8 5 5 5 3 4 5 4 4 5 11 13 12 12 9 13 14 17 18 19 16 22 29 34 34 31 27 22 18 15 10 8 9 10 13 15 11 9 8 8 7 7 5 6 6 5 4 5
4 4 7 6 3 4 3 5 2 4 6 12 17 18 15 11 12 16 21 24 14 16 23 29 33 34 31 27 22 18 17 15 12 9 9 9 12 13 11 9 9 10 9 8 7 7 7 5 4
7 6 4 3 5 3 3 4 4 2 5 8 14 15 13 11 10 10 13 23 25 26 28 28 30 33 33 27 22 19 17 15 12 11 10 10 9 11 13 11 12 12 10 9 8 9 7 7 6
2 1 5 5 4 6 3 6 2 5 7 8 9 10 12 13 13 12 14 17 21 11 15 23 25 23 27 27 23 20 19 16 14 14 12 10 8 8 9 10 8 10 13 12 11 10 9 9 8
1 2 5 5 4 2 4 5 1 6 10 11 10 8 7 4 7 10 17 19 20 19 6 10 17 24 23 22 22 20 17 18 16 15 14 14 13 11 11 10 10 9 8 9 10 11 11 10 9

GFSSGP_925_spd_099.txt.gz
Wind_Speed
8 7 3 0 1 1 3 4 2 13 11 7 13 4 5 6 2 7 13 10 18 17 14 11 12 10 9 10 9 10 9 9 10 10 12 12 13 13 14 16 18 19 17 16 17 17 16 16 16
10 4 2 1 2 4 3 3 10 12 14 18 6 11 2 5 5 11 12 17 18 17 14 12 12 10 9 9 9 9 8 8 9 9 10 11 12 13 14 16 16 17 17 16 15 15 15 16 16
9 2 1 2 2 3 3 6 11 11 16 15 7 6 3 3 10 10 16 21 19 17 14 12 11 10 10 10 10 9 10 9 9 10 10 11 13 14 14 15 16 16 15 15 13 12 12 13 12
3 1 2 2 2 2 3 5 11 20 15 5 12 8 6 5 9 9 20 20 18 16 13 11 11 12 9 11 10 10 11 9 10 10 10 11 13 15 15 15 15 15 14 13 13 12 9 8 8
2 0 2 2 1 0 6 8 12 20 10 11 5 6 10 4 10 21 20 18 17 15 13 11 10 11 10 9 11 10 10 11 10 10 11 12 14 14 15 15 14 14 13 13 13 13 14 12 11
2 1 2 4 4 2 5 6 15 12 9 11 12 13 6 10 21 18 18 17 15 15 13 11 11 11 9 10 12 12 10 11 10 10 11 12 14 14 14 16 14 13 12 12 13 13 11 10 10
3 2 4 5 8 5 3 5 7 9 11 6 14 11 6 14 15 18 17 16 15 14 13 11 11 10 11 10 11 12 12 12 11 10 11 12 13 14 14 15 14 13 12 12 11 11 10 9 10
1 2 4 5 8 5 4 4 9 8 7 10 14 8 10 14 18 19 17 15 14 13 12 12 11 10 11 10 11 11 12 11 11 11 11 13 14 15 14 14 13 11 11 10 9 10 9 9 8
3 2 3 6 7 4 9 6 6 7 13 8 3 16 20 22 22 21 18 15 14 12 11 10 10 10 12 11 11 11 12 12 12 12 13 13 13 14 13 13 12 10 9 8 8 7 8 8 7
3 1 2 4 5 10 9 10 9 8 11 11 17 19 23 23 23 21 18 16 15 13 11 10 10 10 10 10 11 11 10 10 11 12 13 13 14 14 13 13 12 12 9 6 5 4 4 5 3
1 1 6 10 4 4 13 12 7 15 8 12 23 22 22 22 20 18 17 16 16 14 11 10 10 10 10 10 10 8 9 9 10 12 12 12 12 12 11 12 10 8 7 5 4 3 4 5 4
3 2 6 2 4 4 12 11 12 4 2 15 21 24 24 19 19 18 16 14 14 13 12 11 11 10 10 12 10 11 11 10 10 10 12 12 10 9 11 8 8 8 6 4 4 4 5 5 5
5 4 12 9 4 2 9 9 12 5 15 18 21 21 18 17 16 15 13 12 12 12 12 12 11 11 13 12 11 10 10 9 8 9 11 10 9 9 7 9 8 7 7 6 6 7 7 8 7
3 7 10 5 8 3 6 7 9 6 19 18 18 17 16 17 17 16 14 13 13 12 12 12 12 13 13 12 13 11 8 9 8 9 10 9 8 6 6 5 6 7 6 6 7 8 8 7 8
6 10 12 5 11 6 6 3 4 12 18 19 17 15 14 14 16 15 14 14 14 13 13 13 13 13 13 11 11 9 7 8 8 10 10 7 5 6 6 7 7 7 6 7 8 7 7 6 6
7 4 7 8 10 11 8 8 7 7 17 18 17 14 14 13 15 14 14 13 13 13 13 13 13 12 12 11 10 8 8 9 9 9 7 4 5 4 5 6 6 6 6 6 6 6 6 5 4
1 3 5 8 9 5 5 1 8 10 14 16 16 14 13 13 14 14 14 14 15 15 14 14 13 12 12 11 9 7 6 7 7 7 6 5 6 4 4 5 6 6 6 6 5 6 6 5 5
4 2 3 9 6 13 12 14 17 13 11 15 15 15 14 14 17 19 16 16 16 16 15 15 12 11 13 12 10 7 7 6 6 7 7 5 5 4 4 4 5 6 5 5 6 6 5 5 6
3 8 8 12 10 7 4 6 20 18 11 13 15 15 14 16 17 18 19 17 17 17 17 17 15 13 14 12 8 6 7 6 6 6 5 4 4 3 3 3 4 5 5 6 6 4 4 5 8
6 8 6 9 8 4 6 6 9 18 18 13 13 15 15 13 15 18 20 20 20 19 19 18 18 16 17 14 14 8 9 8 6 7 5 4 4 3 2 2 2 4 5 5 6 6 3 4 8
3 1 5 6 6 7 11 2 4 16 11 14 8 9 15 16 17 16 22 22 21 21 21 19 19 17 16 16 14 9 9 8 7 6 5 4 4 3 2 1 2 2 3 3 4 6 5 4 5
3 3 8 15 8 3 6 4 13 15 18 14 15 16 12 17 18 20 22 23 24 23 20 18 19 19 17 18 13 13 11 9 7 8 8 6 5 6 5 4 4 3 3 2 2 4 5 6 6
2 5 10 8 4 1 7 4 3 18 15 21 19 22 21 13 18 20 25 26 24 22 21 20 21 20 17 18 14 13 10 7 8 8 9 7 6 5 7 7 6 4 3 3 2 2 5 6 6
6 8 9 5 3 3 3 6 8 12 24 19 19 18 22 19 16 23 23 21 22 21 20 20 24 24 20 17 19 16 13 11 8 9 7 7 7 6 7 5 5 4 5 4 4 3 3 4 4
6 8 3 2 4 3 2 6 6 8 10 18 23 24 19 22 16 15 18 20 23 24 22 21 23 24 24 20 17 17 14 10 8 8 9 8 7 6 7 7 6 4 5 5 5 6 3 1 1
11 12 5 6 4 3 2 5 1 3 6 9 17 21 18 19 15 16 22 21 24 24 23 21 21 23 25 21 19 18 15 9 7 7 7 6 8 7 7 6 7 6 5 5 5 5 4 3 2
5 8 1 2 1 4 2 3 5 3 3 11 18 17 18 18 17 13 22 24 24 23 26 24 20 18 19 20 19 18 16 13 9 7 6 5 5 9 8 6 6 6 6 6 6 7 7 5 4
6 10 9 4 7 8 3 4 3 5 6 11 17 20 18 18 17 15 19 23 21 16 14 13 17 20 19 19 19 18 16 14 12 9 7 5 5 6 9 8 8 9 9 7 8 7 8 7 6
6 6 2 6 4 10 7 4 1 6 9 12 13 15 17 17 17 17 21 20 27 15 16 10 14 17 19 20 21 20 17 15 14 11 8 6 4 3 4 5 6 6 9 10 10 9 9 9 9
2 5 12 8 10 5 7 5 1 3 7 9 10 10 13 15 15 13 21 20 22 25 12 6 10 16 18 17 23 22 19 17 14 14 12 9 7 7 6 5 6 7 6 7 9 9 8 10 9

GFSSGP_925_spd_102.txt.gz
Wind_Speed
5 4 2 5 4 3 9 7 13 14 14 9 9 5 10 11 8 10 21 13 15 14 11 10 10 8 10 9 10 11 11 11 13 13 13 13 14 15 15 17 18 17 17 18 17 17 17 17 16
6 2 3 3 4 10 9 9 16 12 14 17 9 8 4 13 10 17 16 17 17 16 14 12 10 9 8 9 10 9 10 10 10 10 12 12 13 14 15 16 17 16 16 17 16 16 16 16 16
5 2 4 2 2 9 10 11 13 14 16 11 6 6 5 8 17 14 21 19 16 14 13 11 9 9 8 9 10 10 9 9 10 9 11 12 14 14 15 16 15 15 15 14 14 14 13 14 16
3 3 2 1 9 8 14 15 16 16 15 6 11 10 8 18 9 17 21 19 16 14 13 10 10 10 9 9 9 10 9 9 10 10 12 13 14 14 15 15 15 15 15 15 14 11 10 10 10
1 2 2 2 7 8 11 12 18 19 11 9 3 10 14 9 17 22 20 17 16 15 13 12 11 10 10 10 9 9 10 9 10 11 12 13 13 14 14 15 14 14 14 15 15 15 13 13 11
1 1 2 5 9 8 9 12 17 15 12 10 14 20 12 12 21 20 18 16 14 15 15 12 12 11 11 11 11 9 10 10 10 12 14 14 15 15 14 14 13 14 13 14 14 13 11 11 11
1 2 3 5 12 11 11 14 14 12 13 9 15 16 10 19 19 19 16 15 14 14 14 13 12 11 13 13 11 11 11 10 12 13 14 15 15 15 15 14 13 12 13 12 12 13 11 12 12
2 1 5 9 13 12 11 10 9 12 9 11 12 8 14 19 19 18 16 15 14 13 13 12 13 12 12 12 13 13 12 12 13 13 14 16 16 16 14 13 12 11 10 11 11 11 11 9 10
4 3 7 10 16 12 13 14 6 5 13 7 4 14 25 24 21 19 17 16 14 12 11 12 12 11 12 12 11 12 13 13 13 14 15 14 13 13 12 13 11 10 9 9 9 9 11 8 10
5 3 4 6 5 15 15 12 12 12 12 13 17 24 27 25 22 20 17 17 15 13 11 11 12 12 11 11 11 11 10 11 11 12 12 13 12 13 14 12 11 9 7 6 6 6 8 8 6
2 2 7 6 2 10 13 11 8 12 12 16 22 24 24 24 21 18 16 15 14 13 12 11 11 10 10 10 11 11 11 11 11 12 12 13 13 12 11 10 9 7 7 5 6 6 5 5 4
4 6 2 9 3 10 12 11 10 3 9 14 22 25 24 20 19 18 17 13 14 12 12 12 12 10 11 10 10 11 12 12 12 12 12 12 12 11 9 8 7 5 6 5 6 7 7 5 4
6 7 10 8 5 10 10 12 9 9 11 19 23 23 20 18 18 16 15 14 14 13 13 13 12 11 11 10 12 12 12 12 12 12 10 10 10 9 7 6 5 5 6 6 6 7 8 7 7
2 9 16 7 4 4 10 13 8 11 17 22 20 20 18 17 18 16 15 15 14 13 13 14 13 11 11 11 11 12 11 11 11 11 9 8 7 6 6 5 5 5 5 5 5 6 7 8 9
7 10 10 9 11 2 5 10 9 17 19 20 19 17 16 17 17 15 15 15 15 15 15 15 14 13 12 12 11 11 11 11 11 10 9 7 5 4 5 5 5 5 4 4 4 5 6 8 8
5 10 10 9 10 4 6 15 8 16 19 19 18 16 15 15 17 15 14 14 15 16 17 16 14 14 13 11 10 10 10 11 10 8 7 5 5 5 5 5 5 4 4 4 5 5 6 5 5
9 7 8 8 10 5 3 5 3 10 17 18 17 16 15 14 15 14 15 14 16 16 17 16 15 15 13 11 10 10 9 8 8 8 6 5 5 4 3 4 3 4 4 4 4 5 3 3 3
8 7 12 12 7 11 6 6 6 9 16 18 17 17 16 16 15 16 15 15 16 16 16 15 15 14 13 10 9 9 9 9 9 8 7 6 6 5 5 4 3 5 5 5 4 3 3 3 3
2 7 12 9 13 6 8 8 13 12 13 13 18 17 16 16 17 18 16 16 17 17 17 16 15 14 13 11 11 10 10 8 8 8 6 5 6 5 3 4 3 5 4 3 2 2 2 4 3
6 13 15 14 11 5 6 10 15 18 12 16 17 17 18 17 16 18 18 18 18 19 18 17 15 14 14 11 9 8 8 8 8 7 6 5 5 4 4 4 3 3 5 4 4 3 1 4 5
5 2 14 15 10 10 11 2 10 19 11 9 11 15 18 17 17 16 19 20 19 20 21 19 17 14 13 11 10 8 8 8 9 8 7 6 6 5 4 4 3 3 2 4 2 3 4 5 5
4 2 8 19 12 6 14 4 7 17 20 18 16 18 19 18 16 19 21 20 21 20 20 19 18 14 12 13 12 10 11 11 9 9 7 6 6 6 6 5 5 4 3 2 2 2 3 3 5
2 6 7 9 2 8 15 6 8 16 18 23 25 23 19 18 20 18 22 24 22 20 20 19 18 16 13 13 11 11 11 10 8 7 7 6 6 7 7 7 6 6 4 3 2 1 2 3 4
8 10 4 3 2 7 8 11 10 18 25 24 22 19 23 18 20 22 23 22 21 20 19 19 18 17 16 13 12 11 9 7 8 7 7 8 8 7 6 6 5 5 4 4 4 3 2 1 3
11 8 3 3 7 7 4 7 2 18 15 23 28 25 26 22 19 18 18 20 19 21 21 20 19 18 17 14 12 12 11 7 7 8 9 4 7 8 10 9 8 6 7 5 5 5 4 3 1
14 14 6 7 4 6 4 6 4 10 10 16 21 24 23 22 20 17 21 22 23 22 22 20 20 19 18 17 14 11 9 9 9 8 5 8 6 6 7 8 7 6 6 6 5 6 7 5 3
14 15 14 9 7 6 7 6 9 9 9 13 16 22 23 22 18 18 20 21 22 23 23 22 19 18 17 17 14 13 12 12 8 3 6 7 6 7 7 7 8 7 8 6 6 6 7 6 5
13 12 16 12 13 12 7 8 2 10 10 13 18 23 21 16 18 15 20 22 21 23 20 18 18 16 15 15 15 15 13 13 12 8 8 6 4 8 9 8 7 8 8 8 8 6 7 6 7
12 12 10 13 14 12 12 7 6 5 7 11 15 19 19 21 21 15 15 20 20 21 17 15 14 13 13 14 15 15 13 11 10 10 10 6 6 6 6 8 8 6 8 10 9 7 6 8 7
8 17 16 10 15 10 13 0 4 5 4 5 11 14 16 16 17 15 18 16 17 21 18 14 12 8 9 13 14 14 16 12 12 11 12 9 8 7 5 6 7 4 5 6 9 7 7 8 7

GFSSGP_925_spd_105.txt.gz
Wind_Speed
6 5 10 8 4 6 11 13 15 15 17 12 10 12 15 15 14 13 23 17 19 18 15 13 12 11 10 10 11 11 12 13 14 14 15 16 18 18 17 16 18 18 17 17 17 17 16 16 16
8 3 8 5 5 11 12 14 16 12 14 13 10 11 13 14 16 20 19 19 18 19 17 13 12 10 10 10 10 11 12 12 12 14 15 16 16 16 17 17 17 17 16 17 17 16 16 16 15
6 4 3 5 5 13 14 15 13 16 16 12 7 17 12 17 17 18 24 20 22 17 15 13 11 9 9 10 10 11 11 12 12 14 15 15 15 16 16 17 16 16 15 14 14 15 15 14 14
8 6 1 6 9 11 17 15 16 19 9 9 17 13 21 15 16 23 21 23 19 15 17 13 11 11 10 10 11 11 12 13 13 14 14 15 15 16 16 16 15 16 16 15 13 12 11 13 13
6 3 2 5 13 15 17 17 17 17 11 13 12 21 16 16 25 21 20 18 18 20 15 14 12 12 11 10 11 11 12 12 13 13 14 14 15 15 15 15 15 15 16 16 15 15 14 12 13
2 1 1 9 11 10 13 16 18 12 12 7 22 20 15 22 21 21 21 21 18 19 16 14 13 13 12 11 11 13 12 12 13 14 14 16 15 15 15 14 14 15 15 15 14 13 13 13 13
2 0 7 9 10 15 14 16 15 15 13 14 19 18 14 19 20 17 16 16 15 21 16 15 13 13 13 13 12 13 14 14 15 15 16 15 15 14 13 13 13 13 12 13 13 13 13 12 12
2 2 6 6 14 12 13 12 11 12 9 15 17 10 19 20 20 18 17 15 16 20 18 14 14 13 14 13 13 13 14 15 15 15 15 16 15 14 13 13 12 11 11 11 12 12 11 13 14
5 3 8 10 17 12 11 11 12 6 10 8 6 22 24 23 20 19 15 20 19 14 13 14 14 15 14 12 12 13 14 14 16 14 14 16 15 13 12 11 11 10 10 10 11 11 6 10 16
6 3 5 4 11 19 17 15 11 12 12 9 15 24 24 21 19 19 16 14 16 18 12 10 14 13 12 15 13 11 11 13 13 10 6 7 14 14 13 10 10 9 9 10 9 8 5 3 8
3 3 3 6 5 17 17 14 13 13 11 15 20 24 23 21 19 18 16 16 18 17 17 19 11 14 12 13 12 13 12 12 12 10 11 13 13 13 12 9 9 6 3 3 3 2 3 7 6
2 2 0 7 4 10 14 13 9 8 14 16 20 24 22 18 18 16 14 16 19 12 11 14 12 8 10 9 10 11 15 14 13 13 11 10 9 9 5 8 9 5 7 4 6 9 6 8 4
4 6 12 7 4 9 12 11 9 7 15 18 21 21 20 17 18 17 13 16 15 14 13 14 12 10 8 8 11 10 14 11 14 12 8 10 9 8 9 2 7 3 6 7 5 7 6 7 6
7 9 12 3 7 6 11 13 12 14 16 21 20 20 18 16 18 16 14 15 14 15 14 14 15 14 9 12 9 12 14 13 14 12 8 6 8 4 7 6 6 2 8 7 8 4 5 8 10
7 12 11 3 1 4 8 14 14 14 20 21 20 17 16 16 17 16 15 15 16 14 15 14 14 13 13 13 13 10 14 13 12 12 8 4 5 1 3 4 1 7 5 6 5 5 4 8 9
9 9 9 7 4 3 7 12 16 16 19 20 20 17 15 15 17 15 16 15 15 17 16 15 15 16 15 14 11 11 11 12 12 11 8 6 5 4 3 5 5 5 2 4 1 3 5 4 7
2 5 11 8 2 2 6 12 11 18 19 19 18 17 17 17 18 16 16 16 17 17 17 14 16 16 15 13 9 11 10 13 10 9 10 6 6 3 1 3 5 4 1 1 3 4 5 3 3
5 10 14 10 4 4 3 2 7 16 17 13 16 17 15 17 16 19 18 17 17 18 17 14 16 15 15 10 11 12 9 9 9 7 10 7 6 4 2 4 2 6 1 4 9 8 5 5 4
21 13 16 11 9 4 11 9 7 6 5 8 10 14 16 15 21 20 19 20 19 19 17 16 16 16 14 13 12 10 10 9 9 12 8 6 6 5 3 6 4 3 6 8 1 4 3 2 1
8 18 18 10 9 3 7 8 5 8 11 9 11 12 17 16 17 20 13 22 22 20 19 18 17 16 13 13 6 6 15 10 11 10 8 6 6 4 4 1 3 2 4 2 2 6 6 5 2
7 9 12 12 8 6 10 2 10 10 14 10 13 12 20 19 19 18 19 20 22 21 20 20 16 16 14 9 7 6 4 6 7 8 9 8 6 5 1 3 3 2 0 4 1 3 6 4 4
6 21 18 15 18 7 16 2 1 14 11 14 17 12 17 19 20 22 26 22 22 23 20 20 18 16 14 9 11 8 10 11 12 12 8 7 7 6 5 5 3 4 5 3 2 2 7 8 5
9 3 28 29 9 15 20 6 9 20 19 21 20 20 13 11 19 13 22 23 24 25 21 20 19 17 15 14 9 10 14 9 12 8 8 4 8 7 7 6 5 4 4 3 2 1 7 7 9
5 2 5 7 10 7 16 14 15 19 28 29 27 23 19 20 13 26 22 22 20 26 21 21 19 18 15 12 11 9 10 7 0 8 7 12 9 9 6 7 5 5 6 2 4 3 3 7 8
9 13 4 4 8 3 1 9 8 23 24 28 30 27 26 23 14 18 7 28 22 15 24 22 20 19 18 15 12 9 4 3 2 4 10 3 10 8 9 8 6 6 7 3 5 5 2 2 3
14 13 7 6 5 5 14 4 8 16 19 22 27 29 28 24 18 17 31 21 21 29 20 21 21 20 19 17 14 11 9 9 9 9 7 11 11 6 12 8 6 5 5 7 6 8 7 8 4
15 15 13 8 3 9 11 12 15 13 14 21 26 27 29 25 21 12 22 30 23 28 24 21 21 20 19 18 15 13 11 11 7 5 3 13 5 6 8 7 7 7 7 7 6 9 6 5 5
17 11 15 13 13 16 12 11 11 5 10 14 16 24 26 24 23 20 9 16 25 22 23 23 23 20 18 17 16 14 13 10 9 7 10 6 2 1 11 7 7 7 7 7 7 10 10 7 8
12 11 11 16 15 15 7 3 16 21 12 13 15 15 24 19 20 6 6 15 24 22 25 28 27 22 20 17 16 14 13 11 9 8 8 5 3 4 1 4 6 6 8 8 8 10 3 6 7
18 19 17 11 14 12 15 5 8 10 11 8 10 12 18 16 19 14 14 13 20 21 19 19 9 24 22 21 16 15 12 10 12 10 8 7 4 4 5 5 6 7 7 8 9 10 8 8 8

GFSSGP_925_spd_108.txt.gz
Wind_Speed
8 9 10 13 2 5 13 15 12 18 17 17 23 17 18 17 12 16 27 30 30 22 18 15 14 11 12 12 12 13 13 14 16 16 18 17 19 18 20 19 18 19 18 19 18 18 17 16 16
8 13 8 2 3 7 11 15 15 15 16 19 22 16 20 24 26 26 23 27 25 22 19 16 16 13 12 11 12 13 12 14 15 15 17 17 19 19 19 18 18 18 18 17 17 17 16 15 15
10 9 1 3 2 3 12 14 16 18 13 20 9 5 16 22 21 29 30 27 29 27 21 17 15 14 13 12 11 13 13 13 14 15 17 18 19 18 18 18 16 16 15 16 15 15 15 14 14
9 3 1 4 6 14 17 16 17 12 15 21 23 15 20 27 28 28 28 21 26 23 19 16 15 14 13 13 12 13 13 14 14 16 17 18 17 18 17 16 16 16 14 13 13 13 14 13 13
5 3 1 5 2 20 15 17 18 12 19 17 23 20 20 27 32 27 23 25 23 21 17 15 15 14 14 13 13 14 14 15 16 17 17 17 17 16 16 16 17 17 16 16 15 14 13 12 14
3 1 1 4 10 15 16 18 13 13 21 6 19 21 21 26 22 21 22 22 26 25 19 16 15 14 13 13 14 14 14 16 16 16 17 16 16 16 16 15 16 15 15 14 14 14 14 13 14
3 2 6 7 9 9 17 18 10 13 17 18 20 23 19 18 19 17 24 21 29 24 21 17 15 15 15 15 14 15 16 16 16 16 17 17 16 15 15 15 14 14 14 13 14 14 14 16 17
3 3 4 3 5 15 18 17 14 19 7 19 21 17 15 18 22 25 37 27 28 19 22 18 17 15 15 14 14 14 16 15 15 16 17 18 17 15 14 15 13 13 13 13 14 14 16 19 17
5 3 5 6 16 12 17 18 13 19 11 17 12 20 20 20 26 24 24 24 22 16 15 20 17 19 16 14 13 14 14 14 14 17 21 20 20 14 12 12 13 13 12 12 12 13 15 14 13
4 2 3 5 14 13 16 14 13 3 10 14 21 24 24 22 23 23 21 21 17 20 12 22 18 16 17 13 15 13 13 9 8 11 8 13 16 14 12 14 13 12 8 6 5 4 7 5 3
4 4 6 8 6 18 19 15 17 17 14 16 23 21 20 20 21 16 29 24 18 16 19 20 17 17 14 15 19 14 18 11 4 8 14 16 13 15 11 8 13 11 8 10 12 6 5 4 5
7 12 3 16 7 11 16 16 12 11 15 22 20 19 18 16 16 18 25 15 20 22 17 18 17 16 11 8 14 15 16 14 7 6 9 11 7 11 16 1 5 5 16 5 5 3 7 8 7
7 2 16 4 5 4 13 12 11 16 19 23 20 18 17 16 15 18 27 22 20 24 22 23 19 14 9 9 14 17 13 10 15 5 7 4 7 5 14 5 7 2 2 6 11 10 8 8 8
6 8 7 1 7 7 4 15 8 19 19 22 21 19 17 17 19 19 22 22 20 21 21 18 14 12 3 9 15 18 15 13 15 9 11 6 9 3 3 1 8 3 7 7 4 4 8 10 10
9 11 8 3 6 6 3 14 13 14 19 21 20 18 17 16 18 16 18 17 20 20 21 15 15 12 8 11 12 10 13 10 14 13 8 2 3 5 6 5 5 3 9 8 3 2 5 14 11
7 6 9 2 6 4 4 6 17 17 19 20 19 17 15 16 18 15 17 19 19 22 20 18 16 18 13 13 12 10 13 12 12 13 9 6 5 2 2 2 4 3 2 4 3 8 2 14 11
4 4 8 0 8 5 3 9 11 18 19 19 17 17 15 15 17 16 16 24 22 22 15 25 18 18 16 12 8 14 13 10 10 12 8 5 3 3 3 7 2 2 5 7 10 7 9 5 5
8 6 9 3 3 8 3 9 14 17 18 18 18 17 16 17 16 19 20 21 25 21 15 18 15 20 15 10 7 9 10 8 6 14 9 7 3 1 3 2 3 7 7 13 8 9 3 7 2
16 7 5 13 8 3 5 2 5 8 12 10 16 15 11 15 19 20 22 23 22 22 17 22 19 18 14 12 11 8 9 3 9 7 6 4 4 2 2 4 6 9 1 9 9 10 11 5 4
12 14 12 9 7 3 4 6 9 8 12 4 3 13 16 12 6 20 22 25 23 22 19 18 23 18 17 14 14 11 14 10 11 12 9 6 6 4 4 1 2 9 2 4 3 5 11 5 3
8 16 13 9 6 6 3 3 7 7 8 12 5 3 9 18 7 14 20 22 26 25 21 19 23 21 19 4 14 8 11 11 16 14 12 9 8 4 2 1 4 2 3 2 3 6 10 9 6
12 15 20 24 13 5 15 2 3 9 14 10 9 9 9 7 19 15 20 20 26 28 27 22 20 22 15 9 8 11 10 8 14 14 14 12 10 8 5 2 0 1 4 2 4 3 5 11 15
9 18 15 17 9 9 16 4 4 14 16 20 15 15 15 3 10 18 23 25 22 28 29 27 23 19 16 18 9 7 7 3 8 5 10 10 10 6 8 6 4 2 2 2 3 7 9 12 13
21 16 16 9 5 5 15 10 7 14 24 22 22 19 18 15 13 24 22 18 29 31 29 32 27 22 18 18 15 9 5 10 10 3 14 12 10 10 6 7 5 5 2 2 2 5 7 9 11
8 20 7 6 5 11 15 13 11 28 24 23 22 24 18 13 7 7 17 25 29 25 28 30 30 25 20 17 14 11 11 11 15 16 11 8 3 2 14 9 8 5 5 2 3 4 3 6 10
12 16 6 4 5 4 11 8 4 22 25 23 16 19 17 17 16 19 17 16 12 24 16 28 27 25 23 19 15 11 9 9 7 10 1 3 4 11 10 12 7 5 5 5 4 5 6 5 6
13 14 13 7 5 8 5 6 6 18 20 21 23 20 24 25 24 22 15 18 14 19 28 12 28 24 23 19 17 13 9 6 2 6 14 12 23 14 13 12 9 8 5 6 5 7 7 7 4
15 7 13 11 7 9 4 4 6 12 16 23 23 26 25 24 25 17 17 24 34 32 28 24 18 26 24 22 22 16 13 9 7 5 3 2 11 7 11 5 6 6 7 6 7 8 8 7 6
12 11 11 15 10 9 4 0 13 12 5 13 24 23 23 25 25 19 12 14 18 27 31 27 30 25 26 23 24 22 19 17 11 8 8 7 8 3 2 3 5 4 5 8 8 10 5 5 5
16 16 12 7 10 10 7 7 11 10 22 20 9 27 22 23 20 16 15 19 9 7 8 33 29 27 24 23 22 19 19 18 18 13 7 6 7 5 6 5 6 7 8 9 8 8 7 10 7

GFSSGP_925_spd_111.txt.gz
Wind_Speed
6 6 3 4 2 1 3 8 10 20 13 13 8 14 12 7 8 7 31 27 27 23 20 18 17 15 15 15 15 15 15 17 16 19 21 21 20 19 20 20 20 20 19 18 18 16 17 16 17
5 8 8 2 1 1 4 8 16 17 15 18 22 23 22 19 15 18 25 32 27 25 20 19 15 15 14 15 14 14 15 16 16 19 21 19 20 18 19 19 19 20 18 18 17 15 16 16 16
7 2 2 3 3 2 7 14 10 16 13 11 10 14 8 14 19 18 34 30 29 24 21 20 16 16 14 13 14 14 14 15 16 18 19 18 18 17 17 17 17 18 17 17 16 14 15 16 17
5 2 3 2 5 3 10 12 11 19 20 21 20 14 22 27 24 36 31 34 31 23 22 20 17 15 15 13 14 14 14 15 16 18 18 17 17 17 17 17 15 15 14 14 14 12 15 16 17
7 3 3 3 4 11 12 12 19 21 19 16 21 22 15 29 45 43 33 28 26 23 21 19 18 16 16 15 15 14 15 15 16 17 17 17 17 17 17 17 17 16 15 15 13 13 15 17 17
3 2 2 3 4 9 11 14 18 18 19 18 21 23 10 30 37 40 36 30 29 26 21 19 17 17 16 15 15 16 15 16 16 16 16 16 16 16 17 16 16 15 14 13 13 14 16 18 17
4 3 3 4 1 8 8 15 13 16 20 19 17 19 10 15 22 30 33 34 27 25 21 19 18 17 16 15 15 15 16 16 17 17 17 16 15 14 15 14 14 13 12 12 13 14 16 17 17
4 2 4 2 1 9 11 6 17 19 19 21 21 10 9 21 27 37 39 33 28 25 23 20 20 18 18 16 15 16 16 15 14 15 15 16 14 13 14 14 14 14 14 13 12 11 13 15 14
2 3 2 5 3 8 15 12 3 9 22 16 11 10 18 28 33 29 26 25 29 27 23 22 21 19 15 18 15 15 14 15 15 13 14 16 16 14 12 12 12 12 11 11 12 10 7 6 8
3 2 5 9 14 18 19 18 8 11 14 16 18 14 26 39 33 28 22 20 24 21 24 22 25 17 17 19 19 19 18 18 15 17 15 12 10 6 9 11 10 8 7 7 8 4 7 5 3
6 4 2 13 15 11 15 13 9 16 15 20 18 15 23 29 28 24 24 25 28 28 26 21 22 19 19 19 18 15 14 12 7 13 12 11 11 11 7 3 4 3 3 3 10 12 7 6 9
5 8 4 11 12 14 9 12 6 12 18 23 18 15 19 14 20 24 22 23 27 25 22 21 18 19 18 18 16 18 17 17 8 13 9 14 8 7 7 5 5 10 2 2 11 9 3 4 3
7 11 7 12 15 10 16 9 5 19 22 19 17 14 13 9 26 26 27 27 27 28 23 23 16 15 11 14 18 16 15 11 15 15 12 15 13 7 8 8 6 5 7 3 7 9 7 3 5
10 22 22 20 11 3 12 11 15 18 20 18 15 14 9 10 30 22 23 27 27 24 29 22 16 11 7 19 24 18 14 15 12 13 10 12 12 5 4 1 7 4 6 8 6 4 4 4 8
6 9 13 7 7 6 13 15 19 20 18 18 13 12 11 14 26 24 22 30 32 33 29 23 19 12 18 18 18 18 18 11 9 12 13 10 8 5 2 4 8 8 5 1 1 6 10 9 11
4 3 5 7 9 4 11 2 14 18 20 16 16 13 14 9 22 24 28 31 34 28 20 19 18 12 16 13 11 17 11 17 11 9 7 9 8 4 4 2 3 4 7 4 5 6 5 14 12
7 4 6 8 7 1 4 4 6 15 18 14 14 12 12 12 14 21 28 32 33 25 21 21 18 15 14 12 9 9 14 13 13 10 8 3 4 3 4 5 3 3 3 4 7 4 13 12 11
6 5 7 5 3 6 4 2 3 12 14 12 9 9 10 12 8 21 28 34 29 25 21 20 21 17 14 11 8 11 8 9 10 12 9 7 4 2 2 4 2 2 5 7 10 11 9 7 3
8 11 8 7 6 3 3 7 7 12 7 9 8 9 13 14 16 24 29 32 29 23 27 20 22 19 16 11 8 14 11 3 16 11 8 8 4 2 2 7 8 4 5 9 9 12 15 9 8
12 16 5 6 11 5 5 6 13 7 4 4 8 12 12 15 13 16 31 29 29 28 26 23 23 18 15 12 10 8 12 15 15 10 8 7 5 3 1 3 4 4 4 6 8 11 15 8 9
2 7 5 5 8 3 2 4 8 4 5 5 6 5 5 15 10 15 27 29 31 29 27 28 25 19 17 6 11 7 8 11 12 11 9 9 7 4 1 1 2 1 5 3 7 9 12 16 17
10 3 9 15 6 5 3 2 5 10 12 9 6 6 4 3 6 11 25 27 31 31 31 30 23 21 18 10 11 11 11 7 9 8 11 11 8 7 3 3 1 2 4 2 5 8 11 14 18
10 18 18 15 4 5 8 4 5 14 18 17 13 9 6 7 6 11 14 27 30 34 32 30 27 23 17 15 12 14 11 9 7 6 10 9 8 7 8 6 5 2 3 1 4 6 7 11 13
27 14 10 4 0 3 10 5 4 8 26 24 16 13 9 7 7 4 5 24 30 31 31 33 29 24 21 15 15 10 8 9 5 6 5 7 10 10 8 8 6 5 5 3 2 3 4 6 9
21 10 3 1 2 2 6 7 11 12 14 28 25 21 17 13 10 8 5 12 26 29 29 32 31 26 23 17 15 12 10 6 11 10 7 10 9 6 9 8 9 6 6 4 2 5 3 5 9
14 12 4 4 1 2 4 2 6 11 18 11 6 19 16 13 10 10 13 14 23 31 33 32 34 28 23 18 15 13 12 15 8 16 12 10 14 7 6 9 9 10 6 7 3 5 5 6 6
6 8 12 5 2 1 4 3 8 14 3 11 10 18 18 15 13 11 15 15 21 26 33 33 35 32 28 23 19 17 14 12 17 16 10 16 12 6 8 9 10 8 6 5 4 3 3 4 7
6 6 2 1 6 4 5 3 5 3 5 6 15 19 17 17 15 13 14 22 28 28 24 33 34 34 32 27 24 20 17 15 13 15 14 10 10 13 11 12 13 12 10 7 7 5 3 6 4
2 4 4 1 3 5 5 5 6 7 7 6 6 14 16 16 17 14 11 26 26 21 19 27 32 28 27 27 25 22 20 16 14 11 9 8 14 10 15 12 9 11 8 9 8 6 7 4 5
7 7 6 4 8 3 5 4 9 3 10 5 5 9 13 15 16 13 17 23 26 19 17 26 30 27 29 27 29 26 22 20 20 19 15 14 18 11 14 17 13 11 9 8 8 6 5 7 8

GFSSGP_925_spd_114.txt.gz
Wind_Speed
3 1 1 2 0 3 4 5 9 10 7 9 12 5 13 3 5 3 25 29 27 24 20 18 15 13 12 13 13 14 15 16 17 20 18 18 20 18 18 18 17 16 15 15 16 16 17 17 16
2 1 2 2 3 6 6 10 14 9 12 16 13 15 8 5 9 15 19 25 29 27 23 19 17 15 14 14 13 14 14 16 17 16 18 17 19 18 16 16 16 16 14 13 15 15 15 15 15
1 2 1 3 2 2 8 14 19 16 17 15 6 9 4 7 16 20 25 31 29 26 22 19 18 15 14 14 14 14 14 16 17 16 16 17 18 17 15 15 14 14 12 12 14 14 14 15 14
2 2 3 3 3 4 10 13 20 18 14 20 14 10 7 15 16 17 33 31 28 25 21 18 17 15 14 14 14 14 15 16 17 16 15 16 16 14 14 13 12 11 10 10 12 14 16 15 14
2 2 3 2 3 2 13 17 18 16 14 20 19 12 6 4 29 36 34 30 29 26 22 18 16 17 15 15 15 15 16 16 17 16 14 15 14 13 12 12 11 10 10 10 11 13 16 13 14
2 1 2 3 4 9 12 16 18 16 17 19 17 12 4 26 33 28 32 29 27 26 22 20 16 17 16 16 16 16 16 16 16 16 15 15 14 13 12 11 11 10 9 9 12 13 14 13 14
4 4 4 5 1 12 13 18 17 17 18 10 15 12 6 15 27 34 29 27 25 24 23 21 18 16 15 15 16 16 16 16 16 16 15 14 13 13 12 10 8 7 6 9 11 13 13 14 8
3 3 3 4 2 7 10 8 15 23 6 16 19 10 7 12 27 30 27 25 25 24 22 21 19 18 16 16 15 16 16 16 16 16 15 14 12 11 11 11 8 6 5 5 6 10 13 12 9
3 3 4 2 4 3 10 19 4 10 22 11 7 15 18 30 32 28 27 26 24 23 22 21 18 17 16 17 15 16 16 16 16 15 14 13 13 12 10 9 8 8 7 6 6 6 8 10 10
3 1 3 4 6 6 11 12 15 13 16 12 15 20 28 35 33 29 26 21 25 25 24 20 19 18 18 18 17 17 16 16 18 18 15 14 10 9 8 6 5 3 3 4 4 6 6 6 5
3 2 3 7 3 10 9 13 12 17 14 18 25 21 24 27 24 24 25 26 29 27 24 21 19 18 17 19 21 20 17 14 15 16 14 12 11 9 7 5 4 3 5 7 7 5 8 4 3
7 10 8 6 3 3 11 11 15 18 11 18 20 27 25 18 20 22 23 26 29 27 26 23 20 19 17 19 19 18 15 13 12 13 12 13 13 9 8 8 5 2 5 6 7 6 3 5 6
7 14 13 9 10 8 16 9 7 10 17 17 26 23 20 18 20 21 25 28 29 26 24 23 19 18 15 15 14 15 12 9 13 13 10 10 9 9 5 3 4 4 5 7 8 8 7 6 1
8 13 13 9 10 8 7 7 9 16 15 17 21 22 20 16 24 20 24 23 25 27 25 22 20 16 17 12 12 15 11 14 13 11 9 7 5 7 2 2 2 4 6 9 7 8 7 7 1
12 7 5 4 2 5 9 11 14 20 19 13 19 14 15 21 27 25 27 28 33 30 27 21 18 11 14 19 18 14 13 14 13 10 10 7 6 2 1 3 4 7 6 4 6 6 9 6 3
5 5 4 4 4 4 3 7 19 20 18 10 12 10 15 20 24 25 26 32 32 32 26 22 19 18 17 21 19 16 15 13 13 15 10 10 7 3 4 2 4 4 5 5 7 6 5 5 4
5 4 4 2 7 5 6 4 9 16 16 12 10 8 15 13 14 23 31 35 34 32 28 24 21 21 18 15 16 14 12 13 13 11 10 7 4 4 3 5 6 2 1 6 10 9 7 13 11
5 5 2 4 3 4 6 2 4 14 18 16 11 8 13 15 13 29 31 36 34 30 27 23 21 19 17 14 11 10 15 12 14 10 9 8 6 3 4 3 2 6 7 9 11 11 12 5 6
9 7 5 4 1 4 2 11 6 10 4 8 9 8 13 16 19 31 33 35 32 28 27 23 19 19 19 13 9 14 13 11 14 12 12 9 6 2 3 5 4 3 8 11 13 16 15 15 8
8 12 3 3 4 2 3 11 4 6 3 3 5 7 15 9 16 26 29 30 34 33 29 25 23 21 18 12 11 15 12 10 16 10 9 7 5 3 2 4 4 4 5 8 12 15 15 14 11
10 7 5 3 5 5 3 3 4 2 4 3 5 3 10 16 18 17 25 26 31 33 31 28 27 22 18 14 10 10 11 13 11 9 9 9 7 4 1 2 3 3 5 5 10 12 15 18 20
6 9 13 7 2 3 4 3 5 6 10 6 7 4 6 14 17 19 23 24 30 34 31 29 26 21 18 12 12 12 13 15 12 12 11 10 9 6 4 3 2 1 3 3 8 11 13 15 14
6 13 12 6 4 2 5 4 5 4 11 14 8 7 6 9 20 19 25 28 29 34 34 32 27 23 19 13 11 10 12 12 11 10 11 10 9 8 7 7 5 4 1 2 4 7 8 12 13
18 13 11 5 3 2 6 2 7 5 12 18 8 8 8 8 15 21 26 27 26 31 33 32 29 25 22 17 11 12 11 11 12 10 10 13 10 7 6 8 7 6 3 0 0 2 4 7 8
15 6 3 0 1 5 5 4 8 7 9 15 16 13 10 8 11 14 17 24 25 28 32 35 30 26 25 21 16 15 13 13 13 11 16 17 13 11 12 7 8 7 4 4 2 0 2 3 5
14 6 6 4 2 2 6 5 6 11 7 17 22 18 12 10 9 11 19 27 29 30 33 34 35 30 28 26 22 18 14 14 11 14 15 15 15 11 10 12 10 9 7 6 5 4 2 1 3
6 5 7 6 2 3 4 5 9 8 2 9 15 15 15 15 12 12 16 24 28 28 32 35 36 33 29 28 24 21 16 14 12 16 10 14 13 13 10 14 12 9 9 6 7 5 3 3 1
12 7 3 2 5 4 4 4 7 4 10 10 8 8 13 13 13 10 17 23 31 33 36 38 37 36 32 28 27 25 21 16 13 14 15 16 17 13 11 14 12 13 11 10 9 7 5 4 3
1 1 3 4 4 5 3 6 7 9 8 15 16 14 15 14 15 12 17 25 31 37 34 37 36 35 32 29 27 25 22 20 18 16 14 13 12 15 14 12 11 9 8 12 10 10 8 5 7
3 2 4 5 5 2 4 5 6 7 3 5 6 13 15 18 17 13 17 21 27 30 36 36 36 39 36 34 32 28 26 25 23 19 16 13 11 11 10 14 12 11 9 11 13 12 10 10 9

GFSSGP_925_spd_117.txt.gz
Wind_Speed
4 4 4 3 2 3 3 2 4 8 6 5 11 8 5 5 4 3 16 27 18 14 11 11 11 11 12 13 13 16 16 16 17 17 15 15 15 14 14 15 13 13 14 13 14 14 15 14 14
5 5 2 1 4 4 2 2 7 8 6 10 5 11 6 4 4 12 18 19 19 17 14 12 10 11 12 12 14 15 15 17 15 15 14 14 14 13 13 13 12 11 11 13 13 12 12 12 10
3 5 2 3 2 3 5 1 7 9 9 4 4 6 4 2 9 19 18 21 21 18 16 14 11 11 11 12 13 14 16 15 16 14 14 14 13 12 12 12 12 11 11 11 11 10 11 10 10
1 1 2 3 3 4 6 8 13 11 6 8 11 8 5 12 8 12 28 27 24 20 16 14 11 11 11 11 12 13 15 14 14 14 13 12 11 11 11 11 10 10 9 9 9 10 9 9 10
2 1 3 3 2 5 6 11 7 8 4 9 3 7 5 3 14 29 30 27 25 21 17 15 13 11 12 12 13 14 14 14 14 13 13 12 11 10 9 8 7 7 7 7 8 9 9 10 9
3 1 3 3 4 6 9 12 11 10 7 10 11 9 3 19 27 25 27 27 24 22 18 15 14 11 12 12 13 14 15 15 14 12 12 11 11 10 10 8 7 7 6 5 6 8 9 9 9
4 2 2 3 5 6 6 10 11 14 12 6 9 5 3 9 20 26 26 25 22 20 18 15 14 12 12 12 13 13 13 14 13 12 11 10 10 10 9 8 7 6 6 6 5 7 8 7 8
3 3 2 2 6 5 6 4 7 15 5 13 10 5 8 8 22 25 23 22 20 19 18 16 16 14 14 13 13 12 12 13 13 11 9 10 9 9 8 9 6 6 7 8 7 7 8 6 6
1 4 1 3 8 2 6 10 5 5 15 5 3 8 13 23 27 23 21 20 19 18 18 16 16 15 14 14 13 12 12 12 11 10 9 10 10 8 7 8 6 7 8 8 7 5 4 3 4
3 2 2 3 2 3 10 14 14 9 11 13 13 12 24 24 24 21 19 18 20 19 19 17 16 15 15 15 15 14 14 13 13 11 10 8 8 7 7 7 7 6 5 4 3 2 1 1 2
2 5 4 4 2 4 5 4 10 19 12 18 20 18 19 24 19 18 17 24 26 22 20 18 17 16 16 15 16 15 14 13 13 12 8 7 6 6 4 4 3 3 4 5 4 3 6 7 7
4 3 6 2 2 3 2 10 3 17 8 18 21 21 22 17 18 19 17 18 24 23 19 18 17 17 16 17 17 16 14 13 12 10 9 6 5 5 3 0 2 7 6 6 5 2 5 7 8
3 8 7 3 7 6 8 7 3 7 16 18 21 22 21 17 18 17 20 24 24 23 20 19 17 16 17 17 15 14 11 10 10 9 7 8 4 3 1 4 3 6 7 8 7 7 8 7 8
5 6 4 0 4 8 6 5 9 6 19 19 20 19 18 17 19 17 19 22 24 22 23 20 18 16 17 15 14 13 10 11 11 9 9 6 2 3 3 5 6 6 9 9 7 8 7 7 7
13 7 7 6 3 5 6 4 9 19 19 21 19 16 15 18 20 22 26 26 29 24 24 22 18 17 16 14 14 12 11 14 13 9 8 5 4 3 4 8 7 7 7 5 8 8 5 4 1
2 6 3 6 8 6 5 4 12 21 20 19 17 15 14 14 22 23 25 29 30 26 26 23 20 18 19 19 13 12 12 12 14 10 8 7 5 5 7 6 7 6 9 8 8 8 1 2 3
6 6 4 2 6 5 3 5 10 14 19 20 17 15 15 14 15 21 28 31 31 28 27 25 19 17 15 18 16 12 13 10 14 9 10 8 5 7 7 5 4 6 8 10 9 9 3 8 4
4 7 4 3 3 3 4 5 6 5 11 16 12 13 15 15 14 24 28 31 33 30 27 23 21 19 18 16 17 11 13 12 12 10 9 8 5 3 4 4 3 5 8 9 10 9 6 3 6
5 9 6 2 6 1 3 3 6 6 3 2 6 12 14 14 17 25 28 32 32 31 28 26 24 21 19 17 16 13 14 10 11 8 7 7 7 3 2 6 6 6 7 9 11 9 8 10 5
8 9 5 3 2 2 7 9 0 4 3 3 2 5 15 7 12 18 24 27 31 34 30 30 26 23 20 16 16 15 14 13 13 9 9 8 6 4 2 4 5 5 6 7 9 11 11 11 7
2 5 7 5 3 2 4 5 5 4 3 2 4 2 13 18 16 16 23 26 28 31 33 31 26 26 23 15 15 16 14 11 15 10 10 8 7 5 3 2 3 4 4 6 8 10 11 6 11
5 1 7 12 4 2 2 2 7 11 7 3 6 5 7 16 17 17 23 23 27 33 32 29 29 27 23 19 16 17 16 17 15 12 9 7 6 6 4 3 1 3 3 5 5 6 9 7 6
3 11 9 4 4 1 4 0 4 8 9 11 7 8 7 15 17 19 26 29 32 30 34 30 28 26 22 20 17 16 16 16 14 13 10 8 8 8 7 6 5 2 2 4 4 4 6 7 9
14 10 4 3 4 3 5 4 5 7 14 13 8 10 8 17 17 21 29 27 27 29 29 32 30 27 24 20 17 16 17 17 15 13 12 11 11 9 6 11 8 6 4 3 4 3 3 4 5
6 4 3 4 2 4 0 3 8 13 12 22 18 12 10 12 17 17 17 24 23 26 30 33 33 29 26 23 19 18 16 15 15 14 14 15 15 14 11 8 11 9 6 6 4 4 5 3 3
9 5 6 2 2 3 2 5 6 10 14 18 18 20 15 10 17 19 23 26 27 29 32 33 34 32 30 27 25 20 19 17 16 15 14 17 18 16 13 13 13 11 9 7 7 5 4 3 4
5 4 2 7 2 0 3 5 8 5 5 6 9 16 19 16 15 19 23 26 27 29 31 37 36 35 32 30 27 23 20 19 19 14 16 16 16 16 13 12 13 11 11 9 9 8 6 7 6
5 7 3 2 4 4 4 5 6 2 8 6 13 20 17 18 13 13 19 26 28 31 36 38 39 39 35 31 29 27 25 21 18 17 18 13 14 13 15 12 16 13 11 10 10 9 7 6 6
2 2 3 4 4 4 1 5 6 7 7 8 5 12 19 16 15 13 18 25 30 29 30 36 35 36 36 33 30 28 27 23 18 18 18 14 13 14 14 12 13 14 13 11 11 11 10 9 7
7 3 4 4 3 1 3 3 9 10 7 8 5 4 3 18 18 16 22 23 27 33 30 32 35 38 38 35 31 30 26 24 21 19 16 15 13 12 14 15 14 14 11 10 13 11 11 11 11

GFSSGP_925_spd_120.txt.gz
Wind_Speed
6 5 2 2 4 5 2 3 5 8 6 3 10 5 4 3 1 4 11 20 15 14 11 9 9 10 12 13 14 15 16 17 16 17 15 14 14 13 13 13 14 14 14 13 15 15 15 15 15
7 6 1 1 4 4 3 2 5 6 5 11 5 6 4 4 3 8 15 15 14 13 12 10 9 10 12 12 14 15 15 15 15 14 14 13 13 13 12 13 12 13 13 13 13 13 14 12 11
5 4 0 3 3 3 4 2 6 7 8 5 4 6 3 1 3 12 10 17 14 13 12 9 8 9 11 12 13 14 14 15 14 13 14 13 13 12 11 12 12 12 11 12 12 11 14 14 12
4 0 1 4 4 2 4 5 13 7 7 7 10 7 4 9 2 7 23 18 16 13 12 9 8 9 10 11 12 13 12 13 13 12 13 13 12 11 12 12 11 11 11 10 10 10 14 13 14
2 0 3 4 2 2 5 7 4 4 4 7 3 4 4 5 10 21 21 18 16 14 11 9 8 8 10 10 12 12 12 12 11 11 11 10 10 10 9 9 11 10 10 10 9 10 11 11 11
3 1 4 3 2 3 4 4 4 5 8 8 9 7 2 10 18 21 19 18 16 14 12 9 7 9 9 10 11 12 11 11 10 10 10 10 10 11 10 10 10 11 10 9 9 9 9 10 11
3 3 3 2 5 3 3 4 4 4 9 6 7 5 4 3 16 20 19 19 16 13 11 11 8 9 9 10 11 12 11 11 10 10 9 10 11 11 10 10 10 10 10 9 9 7 8 8 7
3 2 3 2 5 2 4 3 6 4 5 6 9 5 8 6 18 20 18 17 15 14 11 13 11 11 11 10 11 12 11 10 9 9 9 11 10 10 10 11 10 10 10 9 8 7 6 6 6
2 2 3 3 5 3 7 6 5 6 9 2 3 6 12 21 23 20 18 15 14 14 13 12 11 11 11 12 11 10 10 9 9 8 8 8 9 9 10 11 10 9 9 11 9 6 4 3 4
3 3 1 3 3 2 4 7 4 6 5 6 10 16 21 22 21 17 16 14 16 15 15 12 11 11 12 13 12 12 11 11 10 9 7 8 8 8 8 10 9 8 7 7 7 5 2 1 2
2 3 3 8 5 5 2 5 3 14 4 6 18 16 17 18 15 13 13 16 19 17 16 14 13 12 12 11 12 12 12 11 11 9 7 7 6 6 6 5 6 7 5 5 4 1 1 2 4
2 3 5 3 6 4 3 6 5 9 3 13 15 20 18 14 14 14 14 17 17 18 16 14 13 12 11 13 12 12 11 11 11 9 7 5 4 4 4 3 4 6 7 7 5 3 4 5 5
2 2 6 6 7 3 6 4 3 6 12 16 15 16 15 14 15 16 20 19 16 17 16 15 14 14 12 12 12 12 11 10 9 7 5 4 3 1 4 6 5 8 8 7 6 5 5 7 7
4 7 7 6 3 4 5 3 6 7 15 15 17 14 13 15 17 13 18 19 20 18 17 16 16 14 15 14 12 12 10 9 9 8 6 4 1 2 3 5 6 7 7 6 6 6 6 7 6
8 5 5 2 1 2 5 6 7 16 18 16 15 12 11 13 18 18 21 25 23 21 20 19 17 16 14 12 11 10 8 10 9 8 6 3 3 3 6 6 7 7 6 5 4 3 2 4 4
3 3 1 6 3 4 4 5 5 19 20 17 15 13 12 13 17 18 21 27 24 23 23 21 19 16 14 13 11 10 8 10 8 8 7 6 4 5 6 7 8 9 8 8 7 6 5 5 3
5 2 4 3 5 4 2 3 7 17 19 16 15 15 13 10 11 16 22 27 27 25 25 22 19 18 18 17 13 9 9 9 11 7 7 7 6 5 5 6 8 8 7 10 8 7 4 3 3
3 3 3 3 4 1 5 5 8 11 15 17 13 13 12 12 15 23 25 28 27 25 24 21 19 16 17 21 16 10 11 8 11 8 9 6 6 4 3 3 6 6 6 10 9 9 6 4 1
6 6 4 3 2 5 3 4 8 3 6 10 7 10 12 15 18 21 23 26 26 24 25 24 20 19 20 22 19 12 12 11 9 8 6 6 6 4 2 4 6 6 5 9 8 6 6 5 3
4 7 4 2 11 5 3 6 3 3 1 3 7 8 13 10 7 14 21 23 27 27 27 24 22 22 21 20 19 14 13 12 10 6 7 6 6 4 4 4 6 5 4 6 7 5 3 6 5
4 2 3 1 6 2 5 4 5 4 3 2 4 6 10 15 14 12 19 24 26 28 29 27 25 23 21 18 18 14 14 11 9 9 9 7 6 6 4 3 5 4 5 5 7 7 5 3 7
6 3 7 8 3 2 2 2 8 10 7 5 7 7 12 14 14 14 19 21 27 30 30 28 27 25 22 18 17 20 17 12 13 12 9 8 7 6 4 3 3 2 3 4 4 5 6 3 4
2 8 7 3 3 3 4 2 3 12 14 13 9 8 8 13 15 15 22 28 30 30 31 29 29 27 25 20 17 20 17 15 15 13 11 9 9 7 7 4 4 3 2 3 2 3 3 4 5
11 6 4 3 2 2 4 4 4 7 21 18 9 9 10 11 12 17 26 24 24 25 29 30 29 28 27 23 21 19 17 17 15 14 12 12 11 10 10 9 6 5 3 3 4 3 2 1 2
3 6 2 3 3 3 5 3 9 7 14 25 20 12 12 13 14 12 14 20 22 26 29 33 31 29 26 24 24 21 18 18 18 16 16 15 14 15 13 9 11 9 7 6 5 5 5 4 3
5 6 5 4 2 4 4 6 5 7 9 20 20 16 16 15 15 17 22 25 26 29 33 34 34 33 29 25 24 22 20 19 18 17 16 14 16 16 14 13 11 10 9 8 8 7 7 6 6
5 3 3 5 3 2 4 6 5 3 6 7 15 13 18 19 19 20 23 25 27 27 32 37 37 35 32 29 25 23 21 20 19 16 16 17 16 16 14 14 14 14 13 12 10 10 8 9 8
5 5 2 2 5 4 5 2 4 10 8 7 10 13 15 14 16 15 20 25 27 30 34 38 37 38 37 33 29 26 24 21 19 17 17 16 15 15 16 15 13 15 15 14 13 11 10 9 8
2 1 3 2 3 4 2 2 6 12 8 6 4 5 8 13 16 16 19 25 29 27 29 36 35 36 37 35 32 29 26 23 20 18 17 15 13 13 14 15 16 16 16 14 13 12 11 10 9
5 4 5 4 3 1 2 3 8 10 8 4 3 4 7 12 14 15 20 21 24 28 25 33 36 37 38 37 34 31 27 25 23 21 17 17 16 12 12 16 15 13 15 15 16 14 13 12 11

GFSSGP_925_spd_123.txt.gz
Wind_Speed
5 3 2 1 1 3 5 5 5 12 11 6 10 4 4 6 3 9 16 12 16 14 13 9 7 9 10 13 14 14 15 16 15 17 17 17 17 17 17 17 15 15 15 16 16 17 17 16 17
6 2 2 0 3 6 4 5 11 9 10 12 6 9 4 6 5 13 16 14 16 14 11 10 9 9 11 13 14 14 15 14 15 15 15 15 17 16 16 16 15 14 15 15 16 15 14 13 14
6 1 2 2 2 4 5 5 12 7 14 9 6 6 3 4 9 17 15 19 16 14 11 10 11 9 10 13 15 14 14 13 14 15 14 15 16 15 17 15 14 14 14 15 16 16 15 12 12
2 2 1 2 7 3 2 11 15 14 10 4 11 9 6 8 8 9 20 17 15 13 11 10 10 9 10 13 13 13 13 13 14 14 14 14 14 15 16 15 14 13 13 14 14 15 15 16 14
0 1 2 4 4 3 7 13 11 10 5 7 1 7 9 3 8 19 17 15 15 13 11 9 9 9 9 11 13 12 13 13 12 12 12 12 13 13 14 13 13 12 12 12 13 14 14 13 13
1 1 3 2 5 6 9 8 8 7 7 8 12 12 6 5 13 16 14 13 12 11 9 8 7 8 9 10 12 12 12 12 12 12 12 11 12 13 13 14 13 11 10 11 12 13 13 12 11
1 1 3 4 8 6 5 6 7 8 8 8 12 9 5 6 12 13 13 12 10 9 9 8 7 7 7 10 11 11 12 12 12 13 13 14 14 14 13 13 12 10 9 10 10 10 10 9 8
2 1 6 4 10 3 7 4 10 7 5 11 8 5 8 11 14 14 13 10 9 8 7 7 7 7 9 9 11 11 11 12 12 13 13 14 14 13 14 13 11 11 9 8 7 7 7 7 7
1 2 6 5 8 6 8 7 4 5 12 5 2 10 13 20 16 15 14 10 8 7 6 6 6 7 9 10 9 10 11 12 12 11 12 12 12 12 12 11 11 10 11 9 6 4 3 4 4
3 3 4 4 2 7 8 11 5 6 11 5 11 15 19 18 17 16 14 13 10 8 7 7 6 7 9 9 10 9 9 9 10 11 11 11 11 10 10 10 10 8 8 7 5 3 1 1 2
2 3 6 5 5 6 9 9 4 11 8 6 20 18 18 18 15 13 12 12 11 10 9 7 7 10 9 9 9 8 8 9 9 10 10 9 9 8 7 6 7 6 6 4 3 1 0 3 4
3 5 4 3 4 5 6 2 11 7 2 12 17 20 19 16 15 14 13 12 12 11 10 9 8 9 8 9 8 8 8 9 8 9 9 7 6 6 5 4 6 8 8 6 4 2 3 5 5
3 4 6 3 5 7 2 3 5 9 10 17 18 18 16 15 14 12 11 11 11 12 11 11 10 11 10 11 9 8 9 7 6 7 5 6 5 3 5 6 7 7 7 6 5 5 5 6 7
4 8 8 7 6 6 4 2 8 8 17 17 19 17 16 15 16 13 12 13 12 12 12 12 11 11 12 11 9 8 6 6 6 5 5 4 4 3 4 5 5 6 5 5 4 4 5 8 9
9 5 6 8 6 4 6 6 9 15 19 18 18 16 14 15 15 15 15 14 14 13 13 13 12 13 13 11 9 7 6 6 4 4 4 2 3 3 4 5 5 5 4 4 3 2 5 9 11
3 3 3 5 5 4 6 11 7 17 19 19 17 15 14 15 16 12 15 14 15 14 15 14 13 13 12 11 9 7 4 5 5 5 5 4 4 4 4 5 4 6 6 5 4 6 7 8 9
2 3 3 4 2 3 6 4 1 17 19 18 17 15 14 13 14 15 15 17 17 17 16 15 14 13 13 11 10 7 5 7 5 5 5 5 5 4 4 3 5 6 6 6 5 7 7 7 6
3 4 2 3 3 2 2 6 4 16 13 17 17 14 13 14 17 18 16 17 16 16 16 15 13 12 14 12 10 6 6 6 8 5 6 4 3 3 2 1 3 4 4 6 7 7 6 4 3
4 4 6 3 3 4 3 4 10 15 15 15 15 14 15 16 17 15 16 16 15 15 15 15 14 15 16 16 11 7 7 6 8 7 7 6 3 2 1 3 3 3 3 6 5 5 5 4 5
4 6 5 4 6 1 2 2 6 6 12 15 17 17 17 15 13 17 18 18 18 18 17 15 16 15 15 17 17 10 9 8 8 10 8 7 6 3 2 3 3 2 2 3 4 3 2 3 2
3 2 2 2 7 2 4 3 4 3 5 8 16 18 18 17 17 16 20 21 19 20 20 19 19 18 17 17 18 12 9 10 7 8 9 8 6 5 5 3 4 2 2 1 3 4 2 2 3
5 4 9 9 7 1 1 3 6 10 11 9 13 16 18 18 17 17 21 22 23 23 20 20 21 21 19 17 16 15 11 10 10 9 9 8 8 7 6 5 4 3 3 2 0 3 2 2 2
1 6 9 7 3 3 5 3 2 10 18 17 15 16 18 19 18 18 23 26 25 21 23 22 23 23 19 19 16 16 13 12 10 10 9 9 8 8 7 6 6 5 3 3 2 1 2 2 2
13 8 5 4 2 3 6 6 4 9 27 23 18 17 17 19 18 20 25 22 22 20 19 20 22 25 23 21 18 16 15 14 9 11 10 9 9 8 9 9 8 8 5 4 3 4 3 1 1
5 7 2 3 4 1 6 6 9 10 10 26 26 19 19 18 19 18 18 22 23 23 22 21 21 23 25 22 20 18 17 16 15 13 12 11 10 11 11 11 11 9 7 6 6 6 7 5 3
13 11 3 3 3 2 4 5 1 9 6 19 25 22 21 19 19 19 24 26 27 26 24 23 22 21 22 22 23 21 19 15 14 14 12 11 11 11 12 13 13 12 13 10 8 6 6 6 5
6 9 2 0 0 3 2 4 5 14 11 1 18 16 19 20 20 21 24 26 25 25 26 26 24 24 23 24 23 22 22 19 16 16 16 13 13 12 15 14 13 13 13 11 10 9 9 8 7
3 8 4 4 3 2 4 3 4 15 14 7 9 17 19 16 11 10 17 25 25 26 27 25 24 27 26 24 22 21 21 21 18 17 16 15 14 15 16 15 14 12 13 12 12 11 10 11 10
4 4 2 4 3 2 3 3 5 8 10 9 9 14 17 16 17 15 19 27 28 25 25 25 25 25 26 26 24 22 20 23 21 18 17 16 15 14 14 14 15 15 12 12 13 12 12 12 11
3 3 8 6 2 1 3 1 4 4 6 9 3 8 13 15 14 14 20 23 25 26 26 27 26 25 26 25 24 25 23 21 20 22 20 17 16 15 12 13 15 15 11 12 15 13 12 12 12